GFSCGP_prec_cloud_003.txt.gz
Cloud_Cover
0 0 0 0 0 0 0 0 0 0 0 0 0 0 0 0 0 4 24 100 97 29 48 13 2 4 6 4 5 5 5 5 5 5 5 5 5 5 5 5 29 51 28 5
0 0 0 0 0 0 0 0 0 0 0 0 0 0 0 0 1 3 1 0 7 36 10 7 7 0 5 5 8 5 5 10 24 9 5 5 5 1 1 2 4 4 5 5
0 0 0 0 0 0 0 0 0 0 0 0 0 0 0 0 0 0 5 4 0 1 5 19 9 5 3 3 1 2 5 5 5 2 5 5 1 0 3 34 52 62 52 5
0 0 0 0 0 0 0 0 0 0 0 5 0 0 3 0 0 4 0 0 5 5 3 3 5 5 3 5 5 7 72 85 94 100 94 99 100 100 100 100 100 100 100 100
0 0 0 0 0 0 0 0 0 0 0 1 0 0 5 5 2 5 5 5 16 76 90 70 5 5 31 5 6 59 46 38 60 25 100 100 100 100 100 100 100 100 100 91
0 0 0 0 0 0 0 0 0 0 0 0 0 0 0 2 10 28 7 64 100 100 81 8 43 82 29 32 5 5 64 72 52 44 52 40 55 32 4 4 2 0 0 0
0 0 0 0 0 0 0 0 3 0 3 0 0 0 0 2 5 5 100 100 100 81 5 26 90 8 28 10 5 5 6 5 5 5 5 5 5 5 0 0 0 0 0 0
0 0 0 0 0 0 0 0 4 0 5 11 5 0 0 0 5 96 97 16 12 46 50 77 22 5 6 3 2 0 5 5 4 0 0 0 5 1 5 0 0 0 0 0
0 0 0 0 0 0 0 0 0 0 33 67 65 8 0 3 5 5 5 5 5 44 72 5 5 5 5 5 0 0 0 0 0 0 0 0 0 5 0 0 0 0 0 0
0 0 0 0 0 0 0 0 2 5 26 93 86 38 0 2 2 1 2 5 5 5 5 5 5 18 5 5 5 3 0 5 3 3 1 0 0 0 0 0 0 1 4 5
0 1 5 3 5 5 5 5 5 13 5 5 38 83 0 2 1 14 5 5 5 5 6 5 42 72 52 68 16 5 5 5 5 5 5 1 0 0 0 4 5 5 56 87
1 5 5 8 11 84 11 5 5 66 6 2 18 36 29 4 5 5 5 5 5 5 17 25 99 89 16 80 51 53 45 99 13 5 5 5 4 3 2 4 37 89 100 100
4 5 5 5 5 5 5 0 4 5 7 45 65 18 5 5 5 10 5 5 5 5 30 32 66 68 100 88 78 46 88 46 18 82 21 1 0 0 5 36 100 100 100 100
0 2 5 5 0 3 3 1 2 5 65 63 25 82 5 52 41 5 5 72 96 99 37 79 99 99 100 98 76 94 6 56 31 49 61 10 5 5 60 100 100 91 100 100
5 5 61 5 5 43 32 5 94 16 5 93 48 20 5 5 32 73 78 59 93 92 49 14 86 48 6 12 11 81 75 13 99 97 38 39 87 100 100 87 100 100 100 100
5 5 5 72 2 5 20 5 5 5 5 6 31 48 51 64 19 6 58 80 75 38 5 5 12 14 5 19 99 24 27 64 5 7 86 100 100 100 100 100 100 100 100 100
2 8 56 66 95 44 100 9 5 39 23 74 99 63 18 5 5 3 0 5 3 5 14 99 71 98 100 100 100 100 90 27 5 29 12 51 100 92 100 100 100 100 100 100
40 36 62 30 82 80 100 6 64 100 100 5 5 5 5 5 2 3 5 5 30 82 97 100 100 100 100 100 100 100 100 100 79 84 93 96 94 92 97 100 100 100 100 100
26 58 92 98 94 44 91 5 5 14 100 15 48 5 5 47 11 5 26 96 97 78 53 84 100 100 100 100 100 47 61 43 100 56 100 100 100 98 100 100 100 100 100 100
60 7 19 93 100 100 11 5 5 8 7 60 80 99 66 100 99 38 100 100 87 100 100 100 100 98 100 100 100 100 8 72 97 73 93 93 100 100 100 100 100 100 100 100
96 99 95 100 100 51 5 5 5 64 97 97 100 85 96 100 100 100 100 100 100 100 100 100 98 99 96 99 99 53 7 5 59 5 42 53 100 71 66 100 100 100 100 99
73 100 57 91 100 58 5 90 70 88 100 99 43 44 98 100 100 100 100 100 99 100 100 100 65 27 90 88 100 29 8 6 5 6 56 84 76 95 100 100 84 70 48 21
86 99 63 99 67 96 100 100 100 94 88 100 100 100 100 100 100 100 100 100 100 100 100 99 100 20 98 74 100 100 98 66 40 79 42 86 96 84 13 17 8 5 5 6
100 100 97 100 73 100 99 50 100 100 100 100 100 100 100 100 100 94 100 100 100 98 100 92 5 5 85 100 100 96 34 41 5 5 41 64 43 5 5 5 5 5 5 30
100 100 100 82 83 68 100 100 100 100 100 100 100 100 100 100 98 100 100 100 100 100 100 100 100 84 38 19 5 5 5 5 5 20 46 7 5 5 18 5 11 19 46 61
100 97 100 100 98 100 100 100 100 100 89 70 100 100 100 100 28 36 17 79 67 100 100 98 19 5 11 33 5 5 5 5 5 6 5 5 5 70 95 15 66 95 6 5

GFSCGP_prec_cloud_006.txt.gz
Cloud_Cover
0 0 0 0 0 0 0 0 0 0 0 0 0 0 0 0 0 0 0 0 0 1 0 0 0 0 0 0 0 0 5 5 5 5 5 5 5 5 5 5 0 1 1 0
0 0 0 0 0 0 0 0 0 0 0 0 0 0 0 0 0 0 0 0 0 0 1 8 5 5 0 0 2 5 5 5 5 1 0 0 1 1 3 9 88 26 39 32
0 0 0 0 0 0 0 0 0 0 0 0 0 0 0 0 0 2 0 4 3 0 3 3 5 5 0 5 5 5 5 5 5 8 31 77 90 68 25 96 100 95 81 60
0 0 0 0 0 0 0 0 0 0 0 0 0 0 0 5 5 5 5 5 5 5 1 1 0 0 0 1 5 5 36 51 80 41 36 16 6 5 5 6 4 2 0 0
0 0 0 0 0 0 0 0 0 0 0 0 0 0 0 5 5 5 7 34 5 5 5 0 1 2 0 5 5 45 19 5 5 5 5 5 5 5 5 0 0 0 0 0
0 0 0 0 0 0 0 0 0 0 0 0 0 0 0 0 0 5 20 5 4 0 2 5 5 5 5 5 5 4 5 5 5 5 6 19 5 2 0 0 0 0 0 0
4 0 0 0 0 0 0 0 0 0 4 2 0 0 0 3 5 5 1 2 5 5 5 11 40 16 9 5 5 5 5 5 7 5 5 5 5 5 4 0 0 0 0 0
0 0 0 0 0 0 0 0 3 0 5 4 0 0 0 0 5 1 5 5 4 5 44 80 43 42 5 5 5 32 30 73 97 100 10 5 5 20 69 26 4 5 0 0
0 0 0 0 0 0 0 0 0 0 41 5 0 0 4 0 0 0 5 5 5 1 6 36 88 98 100 100 98 100 100 100 98 97 79 96 92 65 76 85 6 5 5 5
0 0 0 0 0 0 0 0 0 3 15 5 3 4 0 0 1 2 4 4 5 20 54 77 100 100 56 24 87 63 55 5 25 5 8 27 59 60 5 3 3 5 5 5
0 0 0 0 0 3 3 4 4 5 5 7 40 19 0 4 4 10 5 5 5 31 27 82 36 91 71 5 40 55 5 66 32 66 89 92 73 20 5 5 1 4 5 78
0 0 0 0 1 5 0 4 5 3 2 6 31 77 6 5 15 11 66 38 6 5 7 5 7 5 84 30 37 56 74 72 77 53 39 95 100 95 25 6 96 100 100 100
0 0 3 0 2 5 5 0 5 5 27 46 76 80 64 97 100 78 5 5 15 36 53 61 78 92 99 92 52 88 84 78 99 80 97 100 100 100 100 100 100 88 81 57
0 0 0 2 1 5 5 4 5 8 96 96 88 100 19 30 10 12 16 7 15 16 7 5 10 5 59 80 71 67 100 100 100 100 100 100 100 100 100 94 33 94 100 98
0 0 5 5 5 5 57 5 5 13 6 94 61 47 46 48 9 25 7 28 28 7 56 13 5 16 78 99 95 100 100 100 97 100 100 100 100 100 100 100 99 79 90 100
0 5 5 5 5 5 10 5 5 5 5 13 8 47 5 38 12 5 5 6 10 5 9 69 99 100 100 94 99 100 100 100 100 92 100 100 100 100 100 85 83 100 100 100
5 5 57 56 58 50 99 16 2 5 6 8 5 75 6 9 5 5 8 6 5 16 99 100 100 100 93 94 81 89 100 100 100 100 84 85 84 86 100 87 88 52 100 100
65 27 64 61 82 58 98 37 6 53 94 33 13 7 5 5 16 5 18 36 96 100 100 100 100 99 100 100 99 100 94 100 100 30 42 14 46 98 100 99 85 94 90 74
6 89 77 91 99 34 93 20 10 32 24 5 5 5 5 17 32 94 100 100 100 100 100 100 98 100 73 85 89 93 44 74 35 60 5 5 14 6 86 97 81 100 100 100
66 8 27 99 100 100 60 5 5 5 6 5 22 59 63 80 51 93 100 100 100 100 100 100 97 91 100 100 100 100 100 100 100 94 5 52 5 5 5 5 75 100 100 100
94 98 100 100 100 39 5 6 83 100 99 95 100 78 100 100 100 100 100 100 100 100 84 98 100 100 100 100 100 100 38 97 92 84 92 93 24 5 5 7 45 76 60 36
5 66 42 90 100 68 64 79 95 70 36 68 98 99 95 100 100 100 100 100 90 100 97 99 100 100 63 47 88 92 100 100 82 68 62 68 61 5 5 15 21 5 5 5
84 57 94 100 52 70 11 92 99 100 76 54 100 100 100 100 100 84 100 100 78 97 100 100 63 99 100 25 7 4 12 12 9 6 58 80 16 5 5 4 4 5 5 40
98 84 74 100 96 97 100 93 80 62 94 100 100 100 100 100 100 100 100 100 84 25 98 100 100 100 76 5 37 38 9 82 64 5 5 5 5 8 5 5 7 11 16 64
96 90 88 100 34 40 43 74 100 100 100 100 100 100 93 85 46 15 5 33 78 100 100 100 91 16 6 81 93 100 97 80 7 5 5 5 5 5 5 16 82 69 33 63
94 99 68 15 100 100 100 96 100 100 100 100 97 70 26 44 8 6 7 98 80 53 73 26 5 5 98 100 100 100 89 84 8 49 5 5 6 42 14 5 6 46 11 21

GFSCGP_prec_cloud_009.txt.gz
Cloud_Cover
0 0 0 0 0 0 0 0 0 0 0 0 0 0 0 0 0 0 0 0 0 0 0 0 0 0 0 0 0 5 5 5 5 5 0 0 0 0 0 0 0 0 0 0
0 0 0 0 0 0 0 0 0 0 0 0 0 0 0 0 0 0 0 0 0 0 0 0 0 0 0 5 4 5 5 5 5 5 4 0 2 2 3 5 27 5 5 5
0 0 0 0 0 0 0 0 0 0 0 0 0 0 0 0 0 0 1 0 0 0 0 0 0 0 5 5 4 5 1 0 0 0 1 2 5 12 15 5 5 7 15 19
0 0 0 0 0 0 0 0 0 0 0 0 0 0 0 0 0 0 0 0 0 0 0 0 0 0 1 5 5 5 5 4 4 5 5 5 5 5 5 5 5 5 5 5
0 0 0 0 0 0 0 0 0 0 0 0 0 0 0 0 0 2 5 4 2 5 1 5 5 5 5 5 5 8 31 5 6 69 40 7 17 44 5 5 5 5 5 5
3 5 0 0 0 0 0 0 0 0 0 0 0 0 0 0 4 16 5 5 5 5 5 5 5 5 10 60 25 54 42 86 96 90 49 67 35 18 5 5 5 7 5 5
0 0 3 0 0 0 0 0 0 0 0 0 0 0 0 0 2 4 1 2 2 5 5 5 6 6 5 10 54 90 100 51 28 82 97 80 16 5 7 42 55 7 5 5
0 0 0 0 0 0 0 0 0 0 4 1 4 0 0 0 0 0 0 0 1 5 28 74 6 80 95 88 96 73 7 8 35 51 15 19 87 90 73 85 10 34 13 10
0 0 0 0 0 0 0 0 0 2 5 5 0 0 0 0 0 1 3 5 5 97 80 44 5 66 100 100 100 100 100 99 62 11 66 80 67 64 69 95 100 99 100 98
0 0 0 0 0 0 0 0 0 0 2 0 0 0 0 1 3 5 5 5 36 6 21 32 66 82 93 96 60 46 56 39 11 48 85 100 97 74 97 73 42 85 97 66
0 0 0 0 0 0 2 2 1 1 4 5 54 32 0 5 5 29 22 6 6 16 79 89 18 16 50 37 30 7 40 96 100 100 100 100 100 57 70 36 70 99 76 88
0 0 0 0 0 0 0 2 2 5 5 0 17 44 71 5 7 70 64 52 100 100 91 29 5 6 5 5 5 83 100 100 100 100 100 90 86 79 100 88 22 31 97 88
0 0 0 0 0 0 0 0 5 5 5 5 46 70 61 8 78 64 86 88 99 13 5 42 19 5 5 9 97 100 100 100 100 100 100 100 99 96 50 54 95 51 98 100
0 0 4 2 0 4 1 0 2 4 59 61 21 96 45 98 71 20 60 66 42 20 69 5 40 9 49 100 100 100 100 100 100 100 100 97 84 48 95 100 98 99 100 97
5 3 4 5 5 5 5 1 1 5 5 40 100 80 5 29 5 8 5 5 5 6 25 9 92 100 100 100 100 100 100 100 100 100 93 60 48 100 96 97 100 100 100 100
5 5 5 5 5 5 5 1 5 5 5 7 8 5 5 5 5 5 5 14 67 73 96 100 100 100 100 100 100 100 100 100 77 100 100 99 73 22 15 5 5 8 98 100
5 5 54 100 52 5 85 5 5 5 5 5 5 5 5 5 24 26 70 87 66 99 100 100 100 100 100 100 77 92 43 64 34 22 16 12 13 5 5 5 5 5 5 5
93 10 67 67 17 19 12 4 5 5 5 5 5 7 68 45 67 70 46 98 100 100 100 100 100 100 100 39 10 69 60 62 16 5 5 72 83 48 5 5 5 5 5 5
1 73 79 92 98 22 1 5 5 5 12 8 6 24 59 48 72 100 100 100 100 100 100 100 100 100 88 32 5 6 5 5 22 82 100 100 78 70 5 5 5 5 5 5
42 7 18 90 100 90 1 5 5 10 42 66 51 36 100 99 100 100 100 100 100 100 100 100 100 100 79 58 42 9 6 23 100 100 100 100 99 23 5 5 5 5 5 5
90 98 100 100 100 18 5 12 75 98 96 100 100 100 100 100 100 100 100 100 100 100 100 96 75 99 100 100 86 5 10 5 36 59 67 96 54 63 5 5 5 5 4 5
5 71 69 84 95 61 48 100 99 85 98 87 100 91 100 100 100 100 100 100 100 90 99 99 100 100 100 100 61 20 4 5 5 5 52 32 10 5 5 5 3 5 5 9
47 22 95 100 35 60 64 81 85 100 100 100 100 100 100 100 90 98 100 95 100 100 100 100 100 100 100 100 13 5 5 5 5 5 38 5 5 5 5 5 5 70 85 99
13 16 47 88 28 34 54 51 87 100 100 61 100 100 96 37 10 99 98 93 89 99 100 98 89 98 93 5 80 94 71 95 80 72 13 5 5 5 5 50 69 100 100 100
87 98 47 97 34 59 100 100 100 100 100 85 19 43 7 68 95 100 69 5 15 5 20 29 34 5 5 33 98 100 100 100 100 72 5 5 52 5 55 35 5 93 98 95
44 88 99 91 100 100 100 100 100 100 100 100 42 48 100 54 18 9 5 14 18 5 7 5 5 12 96 100 100 100 100 100 79 19 5 5 5 40 61 7 60 23 9 9

GFSCGP_prec_cloud_012.txt.gz
Cloud_Cover
0 0 0 0 0 0 0 0 0 0 0 0 0 0 0 0 0 0 0 0 0 0 0 0 0 0 0 0 0 5 5 5 14 100 11 5 5 2 3 0 2 5 1 1
0 0 0 0 0 0 0 0 0 0 0 0 0 0 0 0 0 0 0 0 0 0 0 0 0 0 0 0 4 5 15 73 100 100 75 5 5 5 5 5 5 5 5 5
0 0 0 0 0 0 0 0 0 0 0 0 0 0 0 0 0 0 0 0 0 0 0 0 3 0 0 5 27 99 100 100 75 24 5 5 52 6 22 60 26 6 5 15
0 0 0 0 0 0 0 0 0 0 0 0 0 0 0 0 0 0 0 0 0 0 3 5 0 3 5 5 71 75 12 5 23 62 46 63 14 5 36 8 14 5 5 5
0 0 0 0 0 0 0 0 0 0 0 0 0 0 0 0 0 0 1 5 1 0 0 0 3 5 5 5 6 6 58 70 84 93 22 5 7 16 47 7 5 5 5 8
0 0 0 0 0 0 0 0 0 0 0 1 0 0 4 0 0 1 5 4 0 0 0 3 10 44 50 35 8 38 60 55 81 100 55 85 84 52 23 5 8 76 82 25
0 0 0 0 0 0 0 0 0 2 1 3 0 0 0 0 0 5 5 0 0 3 5 5 5 5 5 14 61 20 52 97 86 95 94 73 72 37 71 27 46 80 99 100
0 0 0 0 0 0 0 0 0 0 0 0 0 0 2 0 0 0 0 0 1 5 5 48 31 25 67 46 5 44 8 50 44 58 44 39 41 76 97 100 100 100 100 88
0 0 0 0 0 0 0 0 0 0 2 3 0 0 0 0 3 3 5 5 5 5 5 5 5 42 5 8 45 13 6 75 40 31 5 5 38 100 100 100 100 100 66 21
0 0 0 0 0 0 0 0 3 1 23 2 0 0 4 0 1 5 5 5 3 2 5 5 5 5 92 37 13 5 36 40 67 5 6 46 64 97 100 100 99 25 6 58
0 0 0 0 0 0 3 2 0 0 1 1 0 1 0 0 4 5 4 3 1 5 17 66 62 16 62 7 5 29 6 6 5 70 100 100 100 100 100 100 20 70 96 77
0 0 0 0 0 0 0 0 0 5 5 16 4 4 5 5 5 5 5 5 35 97 100 81 90 52 29 9 5 5 5 91 100 100 100 100 100 100 100 64 86 99 100 100
0 0 5 4 2 0 1 0 0 5 5 5 60 36 37 5 6 16 31 74 100 98 90 74 71 49 13 62 70 77 62 100 100 100 100 100 100 54 90 88 99 100 95 96
3 4 2 4 5 2 0 0 5 5 6 8 7 54 5 20 30 34 94 74 52 63 87 77 78 88 69 60 62 92 100 100 100 100 100 64 58 95 74 82 94 97 81 90
5 1 5 5 5 5 5 0 0 0 5 73 9 6 14 5 36 45 6 65 100 76 65 41 59 99 84 99 100 100 100 100 100 95 94 60 16 59 93 69 37 14 7 5
5 3 4 4 5 5 4 0 5 4 3 5 5 40 6 5 5 24 74 92 98 90 35 100 97 100 100 100 100 100 100 100 99 5 66 53 50 90 71 5 5 5 5 5
5 0 6 44 5 6 17 5 5 5 5 5 16 57 5 27 82 100 64 65 83 100 58 82 100 100 100 100 100 100 100 92 18 40 77 94 100 78 77 88 99 5 5 5
58 5 70 48 68 24 5 16 41 40 5 5 10 44 6 36 100 100 31 99 100 94 100 100 100 100 100 100 100 100 99 89 25 77 94 100 92 95 99 75 14 5 5 5
4 37 98 95 62 57 6 5 5 6 5 5 5 34 33 87 52 100 98 100 100 100 99 97 100 100 100 89 11 5 5 5 89 100 100 100 64 10 5 5 5 5 5 5
16 2 35 88 62 86 13 5 5 9 75 77 71 26 51 100 100 100 100 100 100 100 96 38 80 98 5 5 5 7 33 9 11 66 14 5 5 5 6 34 5 5 6 72
68 98 95 95 93 26 5 10 58 41 83 74 70 100 100 100 100 100 100 80 20 7 23 94 38 3 5 5 5 72 82 71 99 100 28 34 39 10 5 5 5 83 98 100
31 13 76 83 100 91 45 92 100 25 10 85 96 100 100 100 92 96 32 7 5 40 31 6 0 5 17 5 31 21 56 90 100 100 100 85 97 5 5 42 55 100 100 100
6 5 5 7 5 91 100 100 52 5 72 100 100 100 100 100 68 38 5 12 10 5 5 5 5 8 5 5 6 95 87 97 100 100 100 100 100 35 73 100 92 100 100 100
80 5 5 38 5 76 82 70 27 58 96 100 96 92 74 5 5 7 16 5 5 28 6 27 49 3 2 5 39 99 95 100 100 100 100 100 100 72 78 99 100 100 100 100
53 18 22 55 23 64 80 81 80 94 100 98 90 41 5 5 23 5 4 5 14 7 41 56 5 5 5 5 67 100 100 100 100 100 100 100 99 90 88 96 94 91 100 83
98 28 85 98 89 99 100 99 100 100 83 78 33 49 24 4 0 5 8 94 10 8 5 4 5 5 10 74 97 100 100 100 100 100 100 100 60 94 100 97 95 98 67 10

GFSCGP_prec_cloud_015.txt.gz
Cloud_Cover
0 1 17 0 0 0 0 0 0 0 0 0 0 0 0 0 0 0 0 0 0 0 0 0 0 0 0 0 0 0 5 5 80 64 78 98 85 96 87 25 5 5 5 5
0 0 0 0 0 0 0 0 0 0 0 0 0 0 0 0 0 0 0 0 0 0 0 0 0 0 0 0 0 4 5 87 100 99 100 100 96 80 64 69 13 63 14 87
0 0 0 0 0 0 0 0 0 0 0 0 0 0 0 0 0 0 0 0 0 0 0 0 0 0 0 5 5 5 66 100 100 100 71 26 88 94 88 40 32 71 16 5
0 0 0 0 0 0 0 0 0 0 0 3 0 44 0 0 0 0 0 0 0 0 0 0 0 0 5 5 5 5 18 3 5 16 89 100 98 42 100 72 69 32 5 14
0 0 0 0 0 0 0 0 0 0 0 0 0 0 80 0 0 0 0 0 0 0 0 0 0 4 4 4 5 5 5 5 26 98 100 100 100 100 92 53 5 18 93 72
0 0 0 0 0 0 0 0 0 0 0 1 3 0 98 98 19 0 0 2 4 0 0 0 4 5 0 5 5 5 9 61 83 65 47 23 69 59 37 33 16 18 32 13
0 0 0 0 1 0 0 0 5 55 30 66 1 0 40 0 0 1 0 0 0 0 3 5 5 5 5 5 5 18 51 89 79 64 98 68 70 81 88 71 99 96 71 100
4 27 0 0 0 0 0 0 3 2 5 13 0 1 63 0 0 0 0 0 0 0 2 3 5 5 7 52 95 100 79 51 15 32 50 99 53 93 95 82 100 100 100 100
0 2 0 0 0 0 0 0 0 0 0 0 1 15 3 0 0 2 1 0 4 5 5 7 15 80 100 100 90 5 29 76 65 68 43 47 59 96 100 93 100 100 100 100
0 1 0 0 0 0 0 0 4 4 22 0 52 3 100 14 56 17 32 68 42 7 20 58 97 46 39 7 70 51 10 48 35 88 92 100 98 94 93 100 100 100 100 98
0 0 0 0 0 1 4 5 0 0 0 4 1 12 4 15 14 5 10 5 8 66 71 73 71 85 84 92 100 100 100 100 98 96 57 73 86 100 100 100 49 94 76 70
0 0 0 0 0 0 0 1 0 0 2 5 1 5 3 5 4 5 8 93 16 73 78 89 98 100 100 100 82 70 74 96 96 96 100 100 100 100 88 100 100 100 100 100
0 0 0 1 0 1 0 3 1 4 5 4 5 6 100 64 100 100 100 97 38 99 73 100 100 100 100 98 65 95 73 86 99 100 100 100 100 100 96 100 100 96 100 99
5 4 3 3 4 5 5 5 5 5 21 16 7 98 100 100 100 95 31 68 97 97 64 93 87 92 71 90 75 64 84 100 100 86 98 56 33 61 94 100 100 100 99 96
0 0 0 0 0 0 5 5 5 5 16 88 34 99 100 100 67 23 77 98 96 100 100 97 38 56 98 100 100 100 82 84 95 98 44 5 68 95 100 100 99 97 73 5
5 5 5 5 0 0 0 0 5 5 26 5 80 99 100 48 89 88 26 57 99 12 5 61 100 100 100 92 78 86 86 13 5 5 28 79 98 99 100 100 97 93 5 5
5 5 5 9 7 5 9 13 5 32 84 96 98 97 100 59 100 98 99 78 9 5 74 79 78 82 91 91 65 100 99 100 91 98 100 89 76 100 100 100 100 100 24 7
5 5 30 16 68 90 48 48 7 6 5 85 100 99 85 30 85 55 66 75 22 8 23 78 92 97 74 6 5 100 100 100 100 100 100 86 97 100 100 100 100 100 100 100
5 10 40 72 8 61 62 16 5 5 5 14 68 52 64 77 6 59 43 18 92 99 99 100 96 28 5 5 50 100 100 100 100 100 70 82 97 99 100 100 100 100 100 100
3 21 13 73 36 24 11 97 91 16 40 52 94 85 97 63 63 68 52 97 90 97 71 5 15 5 5 5 5 5 23 100 100 100 100 40 96 100 100 100 100 100 100 100
67 96 62 86 73 5 6 5 5 30 62 68 21 35 39 79 46 57 61 74 98 65 41 6 32 27 5 5 5 5 18 100 100 100 98 50 90 100 100 100 100 100 100 81
32 37 75 71 92 86 22 60 74 35 56 98 31 84 95 97 92 70 79 99 74 17 5 5 5 5 5 5 5 5 21 31 29 66 27 66 100 100 100 100 100 100 91 98
11 7 7 52 43 86 100 100 100 96 70 86 76 100 100 88 97 68 38 6 5 5 5 5 5 5 5 11 68 83 91 49 89 62 85 100 100 100 100 100 100 99 100 100
33 5 9 45 73 96 100 100 100 94 84 22 100 44 55 78 13 5 5 5 5 5 5 5 5 10 89 100 100 100 45 91 100 100 100 100 100 100 100 100 100 100 98 97
98 23 19 92 51 87 43 64 64 100 96 100 88 29 47 38 6 5 15 21 24 5 5 5 66 100 100 100 100 96 99 95 97 100 99 100 100 100 99 68 93 75 98 53
100 100 26 68 94 66 78 100 65 100 94 86 35 21 7 5 5 12 39 9 5 5 5 73 88 88 88 48 98 88 100 89 50 84 90 99 93 98 94 93 98 95 6 5

GFSCGP_prec_cloud_018.txt.gz
Cloud_Cover
1 4 74 0 2 0 0 0 0 43 0 0 0 0 0 0 0 0 0 0 2 10 0 1 3 0 0 0 0 0 3 5 5 5 74 49 49 84 80 92 82 5 43 53
4 5 1 0 0 0 0 0 0 0 0 0 0 0 0 0 0 0 0 0 0 0 0 0 0 0 0 0 0 5 66 98 70 59 60 68 5 94 99 97 68 12 62 60
0 1 0 0 0 0 0 0 0 0 0 0 0 0 0 0 0 0 0 0 0 0 0 0 0 0 0 2 32 99 43 5 74 43 4 5 5 78 96 26 90 80 23 7
0 0 0 0 0 0 0 0 0 0 0 1 4 24 98 0 0 0 0 0 0 0 0 0 0 1 5 8 6 5 5 3 1 5 5 36 54 22 5 6 5 5 5 78
0 0 0 0 0 0 0 0 0 0 0 0 0 0 95 5 5 2 0 0 0 0 0 0 0 0 0 2 5 5 5 4 5 5 5 5 5 5 11 30 76 62 60 69
0 0 0 0 0 0 0 0 0 0 0 2 25 17 91 99 80 100 2 0 0 0 0 0 0 1 0 4 4 5 4 5 5 47 17 89 75 100 100 100 100 100 100 100
0 0 0 0 1 0 0 5 12 72 63 23 50 64 2 13 88 64 12 0 0 0 0 7 5 12 18 13 5 10 13 26 15 67 82 87 87 100 100 100 100 100 100 100
23 22 0 0 0 5 0 0 0 2 10 25 21 1 5 33 4 62 0 0 1 3 2 2 3 5 5 9 5 38 36 50 100 100 100 100 100 93 87 56 48 72 100 100
5 2 0 0 0 0 4 2 0 1 0 0 0 100 100 12 82 7 2 0 21 16 20 76 96 10 14 85 36 6 68 100 100 100 100 95 100 100 100 100 100 100 100 100
0 5 0 0 0 0 0 0 0 32 3 4 27 82 46 64 100 74 90 93 22 25 58 31 6 62 47 6 97 100 100 100 100 100 100 100 100 96 65 100 96 88 63 8
0 0 0 0 0 2 2 5 0 0 0 2 19 70 5 8 71 50 14 5 25 78 5 5 5 5 73 99 100 100 92 100 79 98 100 92 39 10 9 49 6 5 2 4
0 0 0 0 0 0 0 0 3 2 1 5 5 68 3 2 2 12 74 9 59 76 6 4 5 5 6 34 62 11 100 37 100 88 13 5 5 5 84 47 5 1 5 5
0 0 0 0 1 0 0 4 5 5 4 4 16 5 71 96 98 99 43 96 84 51 38 17 59 15 5 5 6 36 8 14 5 5 5 5 5 88 5 5 2 5 5 5
0 0 1 5 0 0 0 0 0 3 5 5 4 12 9 74 80 50 35 19 5 5 5 5 7 5 27 19 5 59 8 80 6 5 5 2 4 1 5 1 0 12 61 20
0 0 0 0 0 0 0 0 0 5 5 70 21 99 100 81 13 94 18 5 5 5 5 5 5 5 5 5 5 5 5 9 5 32 8 62 54 99 37 5 5 5 64 8
0 5 5 0 0 0 5 0 0 2 5 64 29 5 100 94 5 5 5 5 5 5 5 5 5 5 5 5 22 94 34 96 99 100 92 100 66 5 5 2 2 5 98 5
0 5 5 5 6 5 5 5 1 4 40 9 37 53 54 7 5 6 89 8 10 48 36 8 5 10 83 59 11 17 94 95 45 18 36 100 73 36 47 17 5 8 54 27
1 0 31 6 42 10 5 5 5 5 10 27 85 98 84 47 42 6 38 76 82 31 5 5 60 76 93 36 46 100 5 1 12 72 97 95 97 98 72 100 6 97 71 95
5 0 15 61 5 5 5 28 5 5 2 5 15 8 5 5 5 5 92 96 8 5 19 66 52 11 6 92 95 6 5 2 89 99 48 35 4 100 99 100 60 100 100 99
5 5 5 29 6 4 0 54 5 18 5 53 74 54 69 5 21 45 5 5 18 70 99 54 5 40 100 82 5 5 4 5 5 91 6 10 98 100 100 100 100 100 100 100
49 73 64 56 68 9 0 5 4 5 6 5 5 5 5 14 65 26 5 5 14 5 5 22 5 6 20 5 4 5 5 5 48 0 4 5 8 75 18 93 100 100 100 92
14 26 82 55 86 26 4 32 46 5 5 63 92 20 33 5 5 8 12 5 5 5 5 5 5 6 5 3 5 10 5 4 0 3 4 5 8 100 69 68 100 100 64 13
5 7 6 4 5 4 96 98 34 5 5 58 98 31 91 95 100 62 5 5 5 5 5 20 53 6 5 5 88 99 5 4 5 5 5 12 5 29 71 100 100 6 5 5
13 85 4 3 2 2 43 84 37 5 29 82 93 95 100 100 85 5 8 6 20 97 15 31 33 7 74 100 98 13 5 5 5 5 38 78 42 76 79 5 5 5 5 5
100 100 83 5 5 34 98 38 44 13 27 100 100 98 100 26 52 45 68 62 94 100 69 24 40 74 5 5 5 5 5 5 23 5 5 5 5 5 5 5 20 41 5 5
100 100 50 60 73 78 36 53 85 44 100 100 100 100 99 69 37 73 85 100 99 5 5 5 5 5 5 5 5 74 95 24 61 34 5 5 5 5 20 35 11 16 5 8

GFSCGP_prec_cloud_021.txt.gz
Cloud_Cover
0 1 5 0 0 26 100 38 4 0 0 0 0 0 2 0 0 0 0 0 0 0 0 0 0 2 5 5 0 0 0 3 5 5 41 7 5 47 6 48 5 33 22 50
1 0 20 20 5 4 4 1 0 0 0 0 0 0 0 0 0 0 0 0 0 0 0 0 0 0 17 12 0 2 36 68 7 14 13 5 5 5 5 83 81 50 9 41
0 3 2 1 0 0 0 0 0 0 0 0 0 0 0 0 0 0 0 0 0 0 0 0 0 0 1 2 16 83 46 95 68 5 5 4 2 5 5 63 98 98 88 41
1 1 0 0 0 0 0 0 0 0 0 0 0 0 0 0 0 1 5 5 0 0 0 0 0 5 5 5 8 0 3 5 5 5 2 1 1 5 5 7 31 90 37 6
0 0 0 0 0 0 0 0 0 0 0 0 0 0 99 78 5 3 5 2 4 5 0 0 0 0 0 0 0 5 5 5 0 5 5 46 99 95 100 100 67 43 45 88
0 0 0 0 0 0 0 0 0 0 0 0 0 4 70 50 46 6 2 99 65 55 0 0 0 0 0 0 0 1 0 0 0 2 0 5 68 89 100 100 100 100 100 100
0 0 0 0 0 0 0 0 0 4 5 87 62 76 100 42 26 38 5 5 4 5 0 0 0 1 5 2 4 5 5 92 88 82 61 12 5 5 6 5 35 100 78 13
4 2 0 0 0 0 0 0 0 0 20 5 3 61 84 27 24 98 97 85 5 5 4 5 3 0 0 4 5 5 43 100 100 100 60 97 97 93 68 83 89 31 5 5
5 0 0 0 0 0 0 0 0 0 0 0 3 57 94 65 81 81 100 100 34 21 49 5 5 2 2 5 16 10 5 48 94 66 100 100 94 60 99 94 52 5 5 5
0 0 0 0 0 0 0 0 0 0 0 0 0 19 5 19 6 74 85 81 91 86 72 5 5 5 5 3 5 5 5 6 46 22 5 7 5 5 5 18 33 5 5 5
0 0 0 0 0 0 0 0 0 0 0 1 4 1 0 5 5 23 29 71 50 36 7 5 8 5 5 5 5 4 5 5 5 14 6 9 5 5 5 5 4 0 0 0
0 0 0 0 0 0 0 0 0 0 0 2 4 1 0 40 8 99 98 97 43 70 77 97 5 5 5 50 50 5 5 11 19 12 7 5 5 7 4 0 0 0 0 0
0 0 0 0 0 0 0 0 0 0 5 1 1 0 4 83 16 70 22 34 50 84 56 5 18 83 45 8 5 5 5 5 5 26 93 71 73 64 11 5 4 10 30 2
0 0 0 0 0 0 0 0 0 0 0 2 0 3 3 10 18 4 23 5 5 5 5 5 6 5 5 13 5 9 31 81 69 15 22 34 63 39 7 95 39 100 79 91
0 0 0 0 0 0 0 0 0 0 0 0 1 77 82 14 6 80 36 5 5 70 5 4 5 5 6 39 34 6 5 5 2 5 6 5 5 19 51 81 100 92 100 99
0 0 0 0 0 1 1 0 0 0 0 0 2 5 5 5 5 5 5 5 67 69 5 6 16 7 5 5 5 5 5 5 5 20 14 4 5 100 82 30 100 100 100 100
0 0 4 4 3 5 5 5 0 0 0 0 5 2 2 1 0 5 68 53 16 39 32 9 5 5 5 5 5 5 5 5 51 13 5 1 5 66 73 47 100 100 100 58
5 5 76 5 12 5 1 3 0 3 0 2 4 5 5 5 5 33 36 57 22 5 5 5 5 5 5 5 5 19 71 93 6 5 0 0 0 0 1 5 100 100 100 100
11 12 56 50 5 5 5 6 5 5 5 5 0 0 2 7 80 6 18 6 5 5 5 5 5 5 62 94 100 62 84 13 1 0 0 0 0 4 21 82 94 100 93 100
100 93 21 82 5 5 5 5 8 5 3 5 5 5 5 5 12 5 5 5 5 5 59 52 74 94 94 50 5 5 5 5 0 0 2 5 0 5 21 16 13 46 98 97
70 62 14 21 10 2 0 1 5 5 1 0 5 5 5 5 11 9 10 60 33 61 89 18 5 38 5 5 5 5 3 5 4 5 4 0 5 4 13 93 72 100 96 6
5 29 15 70 52 40 3 4 5 5 3 5 5 5 32 93 98 61 78 79 95 95 9 5 5 5 10 5 5 5 4 1 5 5 0 0 3 13 75 100 99 48 5 5
14 69 100 99 71 14 2 5 5 5 5 16 5 33 15 46 84 88 100 89 52 6 5 5 5 6 5 5 5 5 5 3 0 0 3 0 5 5 14 10 21 52 5 5
100 100 100 50 7 34 5 5 6 8 51 48 92 100 62 99 100 100 65 63 67 5 5 5 5 5 5 3 0 4 5 0 0 2 5 5 5 5 5 36 33 5 5 5
100 100 87 5 5 23 6 19 6 12 31 99 100 93 25 84 64 86 77 82 9 5 5 5 5 5 2 0 2 5 4 4 5 5 5 5 5 5 5 5 5 6 5 5
100 100 100 14 44 98 14 18 62 90 100 97 70 91 86 69 95 95 22 5 5 5 5 5 5 5 0 5 5 5 5 5 55 52 5 5 5 5 14 22 6 5 5 5

GFSCGP_prec_cloud_024.txt.gz
Cloud_Cover
5 4 5 0 5 6 8 5 5 0 0 0 0 0 0 0 0 0 0 0 0 0 0 0 0 0 4 52 5 5 99 68 74 90 5 5 12 8 32 9 5 5 57 93
1 0 0 2 0 77 19 5 0 0 0 0 0 0 0 0 0 0 0 0 0 2 0 0 1 2 1 31 11 1 2 44 70 30 100 100 100 84 12 5 5 86 99 100
0 0 5 5 2 3 59 4 0 0 0 0 0 0 0 0 0 0 0 0 72 96 72 16 7 18 72 93 17 2 5 5 92 71 44 70 73 22 94 71 47 79 53 10
4 4 0 0 4 0 0 0 0 0 0 0 0 0 0 0 0 0 0 1 2 99 80 12 5 20 61 0 0 5 67 20 5 5 5 5 14 73 85 98 11 11 5 5
4 0 0 2 0 0 0 0 0 0 0 0 0 0 0 1 0 5 6 99 100 100 100 100 100 100 94 0 0 0 0 0 0 0 5 75 100 100 100 98 100 100 100 100
0 0 0 0 0 0 0 0 0 0 0 0 0 1 21 5 2 27 34 49 73 22 72 89 100 59 5 5 5 0 0 0 0 2 36 95 88 75 91 86 61 40 13 12
0 0 0 0 0 0 0 0 0 2 3 8 5 5 25 35 17 33 5 5 13 82 70 10 5 76 38 4 5 5 3 4 28 15 7 5 5 18 30 41 5 5 5 5
0 2 0 0 0 0 0 0 0 1 4 5 5 3 1 4 99 98 95 5 20 100 100 92 5 5 5 5 4 4 24 97 84 37 66 14 5 5 6 10 22 5 5 1
0 0 0 0 0 0 0 0 0 0 0 1 0 4 5 62 58 100 100 95 72 5 5 5 5 5 5 19 99 48 31 62 38 5 5 5 5 5 5 5 4 0 0 0
0 0 0 0 0 0 0 0 0 0 0 1 0 2 5 5 89 23 5 6 5 5 23 11 13 10 21 84 82 5 5 5 3 5 5 11 7 5 5 3 3 5 4 1
0 0 0 0 0 0 0 0 0 0 0 2 4 0 0 0 3 3 5 9 86 100 100 100 100 100 100 33 5 5 5 1 4 8 13 5 3 1 0 5 5 5 10 5
0 0 0 0 0 0 0 0 0 0 0 0 4 1 0 0 4 5 5 55 78 88 64 30 95 100 6 4 5 5 5 5 14 5 4 0 4 4 5 80 6 2 5 5
0 0 0 0 0 0 0 0 0 0 1 0 0 0 0 2 5 20 29 38 17 5 56 100 55 5 5 5 9 58 58 40 5 5 5 5 5 67 57 10 10 18 100 99
5 2 0 0 0 0 0 0 1 5 5 3 1 1 0 3 2 0 0 0 5 5 41 12 5 5 5 10 37 38 6 5 5 5 50 99 100 91 100 82 64 83 92 91
5 5 0 0 0 0 5 4 0 0 0 0 0 0 0 0 0 5 5 5 5 32 94 81 92 45 5 56 21 5 5 5 59 100 100 100 100 100 50 2 59 5 6 46
0 0 0 0 0 5 5 4 0 0 0 0 0 0 0 0 5 5 5 5 82 100 100 81 5 5 5 5 5 5 12 100 100 54 40 32 27 0 0 0 0 0 46 98
5 0 2 5 5 5 9 5 0 0 1 1 2 0 0 3 2 4 5 5 37 65 6 5 5 5 5 5 5 5 29 73 11 5 1 0 0 0 0 0 4 100 100 100
5 18 56 21 9 19 5 5 2 2 5 3 0 0 0 5 5 5 5 5 5 5 5 5 14 51 5 16 32 51 5 6 5 5 0 0 0 0 1 6 80 100 99 59
14 17 71 99 37 5 5 6 5 5 64 5 5 4 0 0 3 5 43 5 11 14 42 19 16 71 9 7 11 5 5 5 3 0 0 0 0 0 0 23 58 56 8 63
100 99 34 90 5 5 6 5 7 73 100 42 12 6 5 17 5 5 5 5 43 61 5 58 58 6 8 24 5 5 5 1 0 5 5 5 5 0 5 5 96 99 34 88
33 7 78 88 29 18 5 5 43 100 100 28 54 32 26 100 56 5 5 5 8 11 96 69 57 65 24 5 5 5 3 5 5 3 4 5 0 0 5 56 78 41 21 13
70 92 100 100 100 80 8 5 10 91 89 18 100 94 100 94 70 5 49 22 50 100 90 84 66 5 5 5 2 4 3 0 2 5 5 4 0 3 5 5 19 75 98 99
100 100 100 100 100 100 19 6 69 8 16 100 100 100 100 100 88 96 30 52 86 81 78 13 6 7 6 0 5 0 1 5 5 5 5 5 5 5 5 67 89 100 67 8
100 100 100 95 100 100 28 99 96 31 100 92 68 100 100 100 100 44 62 97 100 73 46 74 39 31 5 5 5 4 5 5 57 5 5 5 5 5 5 5 5 5 6 15
100 100 41 5 9 33 100 84 22 71 93 54 99 91 99 80 41 85 97 100 60 16 70 52 19 10 5 5 5 40 67 58 85 82 54 38 5 5 5 30 70 49 7 5
100 100 42 6 54 18 25 5 32 96 100 100 100 71 13 40 90 97 83 5 49 72 44 30 29 5 5 5 24 89 89 100 100 96 94 66 5 7 18 95 99 64 5 5

GFSCGP_prec_cloud_027.txt.gz
Cloud_Cover
93 100 25 0 6 43 5 5 5 7 26 5 5 8 5 14 40 28 93 11 3 0 0 4 0 0 1 5 9 61 98 27 52 92 98 69 5 5 5 5 60 72 98 98
99 6 4 5 5 5 0 0 3 5 5 5 5 5 0 4 4 2 2 0 0 2 9 82 6 30 56 67 100 9 98 100 98 74 6 5 5 11 58 22 13 76 49 9
5 8 2 8 28 5 5 0 0 0 0 0 0 0 0 0 0 0 0 0 5 5 5 10 41 100 100 92 9 17 14 4 1 2 5 49 34 40 12 5 5 5 5 5
0 0 0 0 0 0 4 4 0 0 0 0 0 0 0 0 0 0 1 4 41 20 5 59 98 68 89 48 5 5 5 5 4 5 85 99 18 9 5 5 5 5 5 5
0 2 3 0 0 5 5 0 0 0 0 0 0 0 0 0 0 5 5 16 33 23 100 55 71 67 53 66 12 8 5 3 5 12 89 100 100 100 100 88 91 100 100 98
0 0 0 0 0 0 0 0 0 0 0 0 0 0 0 0 0 0 5 52 89 100 100 99 100 97 100 100 93 27 21 8 20 91 100 100 100 100 100 100 100 100 100 97
0 0 0 0 0 0 0 0 0 0 0 0 0 0 0 0 0 2 10 94 97 8 60 100 92 100 100 100 77 100 46 30 100 100 94 72 35 33 98 100 100 42 2 2
0 0 0 0 0 0 0 0 2 0 0 0 0 0 0 0 0 5 5 5 5 48 97 100 100 92 59 27 21 5 8 92 71 11 69 94 88 83 57 9 5 5 5 0
0 0 0 0 0 0 0 0 0 0 0 0 0 0 0 0 3 5 5 8 66 96 4 0 0 0 2 5 6 24 7 5 5 12 5 4 3 4 5 5 5 5 2 0
0 0 0 0 0 0 0 0 0 0 0 0 0 0 0 0 3 5 13 99 21 0 2 4 5 5 5 15 75 34 5 5 5 5 5 5 5 5 5 5 2 2 4 5
0 0 0 0 0 0 0 0 0 0 2 2 3 0 0 0 2 3 1 0 1 5 5 27 26 86 53 94 71 35 5 16 7 5 5 5 5 5 3 5 5 5 5 46
1 0 0 0 0 0 0 0 0 0 0 1 4 1 0 0 0 0 5 5 5 5 69 85 95 91 87 88 91 75 99 37 5 5 4 3 5 5 5 5 5 87 68 88
0 0 0 0 3 5 5 1 0 0 0 0 1 0 0 0 0 0 0 4 5 5 5 5 57 100 100 93 94 68 97 5 5 5 5 5 1 1 11 23 5 0 0 0
0 0 3 5 5 5 5 5 5 3 0 0 0 0 0 0 0 0 1 4 5 5 5 19 88 91 93 100 97 57 5 5 5 5 5 1 5 5 7 0 0 0 0 0
5 5 5 5 4 1 0 0 0 0 0 0 0 2 0 0 0 0 0 0 5 5 61 93 68 98 93 20 5 5 5 5 5 5 1 0 5 5 0 0 0 0 3 46
5 5 3 0 0 0 0 0 0 3 5 5 5 5 2 0 0 0 1 5 5 71 98 80 54 62 37 5 5 5 5 5 5 5 5 5 5 0 0 0 0 5 70 94
5 5 5 7 5 5 9 5 5 6 5 5 5 5 5 5 5 3 5 5 15 98 100 86 14 5 5 5 5 5 5 5 5 14 7 5 5 2 0 0 18 98 88 17
5 14 37 46 5 23 23 39 5 5 5 8 5 5 47 81 92 8 34 5 8 60 44 43 12 24 5 10 5 5 18 34 38 8 5 5 5 0 5 6 32 100 100 37
5 5 38 8 32 36 100 86 5 5 49 5 5 5 99 100 72 7 5 5 6 71 100 91 24 6 50 43 58 94 68 47 7 25 5 5 0 5 5 5 5 72 53 46
5 7 7 73 5 12 100 54 11 18 96 44 13 67 100 99 24 34 12 44 96 100 100 96 42 20 82 96 100 96 63 49 54 4 0 0 0 5 4 5 5 17 70 80
33 12 12 92 8 86 100 94 84 92 38 100 100 100 100 100 21 57 100 100 100 100 84 12 45 88 100 100 85 95 70 7 0 0 0 1 22 85 0 3 5 5 5 14
61 51 98 99 100 100 100 95 93 97 16 36 96 100 100 98 94 100 98 100 100 100 98 79 83 77 98 92 65 56 5 0 4 5 5 45 100 12 5 5 5 22 93 100
100 100 100 100 100 100 60 22 66 46 27 35 97 100 100 100 100 100 100 100 100 75 36 59 44 62 69 72 40 5 5 5 5 5 64 100 46 5 5 5 8 80 90 64
100 100 100 100 100 92 5 41 44 42 9 69 98 100 100 100 100 100 100 71 71 49 79 61 94 32 99 63 5 5 5 5 5 83 100 100 87 27 5 5 11 68 88 51
100 100 98 8 60 8 100 100 87 18 9 100 100 100 100 100 100 100 82 55 96 100 100 100 84 76 25 5 5 5 5 8 33 100 100 97 99 93 5 83 100 100 98 70
100 100 7 5 45 25 83 92 76 27 57 99 100 83 100 100 100 92 95 100 100 100 97 99 96 43 5 6 14 27 5 42 100 100 100 100 100 100 54 97 100 100 100 91

GFSCGP_prec_cloud_030.txt.gz
Cloud_Cover
100 100 100 100 100 98 5 5 5 5 30 86 68 55 100 98 100 100 100 7 23 97 78 76 86 90 6 49 86 99 100 100 100 100 100 100 93 86 5 5 5 7 75 30
86 75 100 99 20 5 5 3 5 65 68 68 45 69 57 99 100 75 88 48 5 12 7 5 17 9 8 65 91 100 75 59 95 87 18 4 5 5 5 4 2 1 0 0
99 100 27 5 6 2 5 5 6 12 12 5 7 5 22 71 57 17 3 1 0 0 5 25 43 93 100 76 48 69 97 100 35 5 5 5 0 0 1 2 2 0 0 0
56 60 5 57 6 0 1 0 0 0 2 3 2 4 5 0 0 0 0 0 1 0 5 5 5 78 26 33 100 100 71 5 28 4 1 4 5 5 5 5 5 2 3 5
3 1 0 2 0 0 0 0 0 0 0 5 2 0 0 0 0 0 0 2 0 5 87 5 56 6 33 100 90 56 57 65 55 98 18 7 5 5 5 0 5 5 6 5
0 0 0 0 0 0 0 0 0 0 0 0 0 0 0 0 0 0 0 0 5 5 5 20 29 58 95 100 100 100 100 96 69 88 68 95 83 5 5 38 78 76 83 97
5 2 0 0 0 0 0 0 1 0 0 0 0 0 0 0 0 0 0 0 5 5 4 10 64 86 100 100 67 96 100 100 97 39 5 5 5 15 65 74 66 42 35 37
2 0 0 0 0 0 0 0 0 0 4 0 0 0 0 0 0 0 0 0 0 5 7 80 78 93 5 5 69 32 56 38 5 5 5 46 63 5 5 5 5 5 5 5
0 0 0 0 0 0 0 0 0 0 0 0 0 0 0 0 0 0 0 2 5 5 12 27 2 0 5 5 5 6 61 88 95 5 5 5 5 5 5 5 5 23 43 5
0 0 0 0 0 0 0 0 0 0 0 0 0 0 0 0 0 0 0 4 13 46 4 0 4 5 5 5 9 95 87 20 5 5 5 5 5 5 6 30 44 13 5 5
0 0 0 0 0 0 0 0 0 0 1 1 3 0 0 0 0 0 1 3 0 0 0 4 5 7 10 7 51 23 5 5 93 99 5 5 5 5 5 5 4 5 5 2
0 0 0 0 0 0 0 0 0 0 0 5 4 1 0 0 0 0 0 0 0 0 5 8 76 98 97 96 19 22 84 100 74 5 5 5 5 5 5 5 2 0 0 0
0 0 0 0 0 0 0 2 0 1 0 0 1 0 0 0 0 0 0 0 0 5 5 5 19 100 100 90 58 92 100 57 84 99 5 5 5 5 1 0 2 5 5 1
0 0 0 0 0 2 6 32 11 5 0 0 0 0 0 0 2 3 5 5 0 0 5 5 84 97 75 69 100 77 90 99 93 5 5 5 5 4 5 5 5 5 0 2
0 0 3 4 15 21 42 23 2 4 2 4 3 4 5 5 5 5 5 4 0 2 5 5 27 23 74 100 63 14 6 5 5 5 5 7 14 18 31 7 5 5 5 81
38 18 5 14 8 7 8 4 5 5 5 5 5 5 5 5 5 5 5 5 5 26 15 15 85 100 98 100 96 5 5 8 24 35 58 87 99 100 76 77 5 5 8 77
7 6 5 7 4 13 81 5 5 44 79 5 5 5 7 33 13 60 100 82 35 29 38 100 100 100 100 100 50 35 76 97 95 83 98 100 100 100 43 5 24 5 57 45
7 5 5 5 5 43 50 32 5 5 5 5 5 48 19 18 99 100 12 22 69 98 93 100 96 94 100 100 90 100 100 100 97 100 100 100 100 80 5 4 25 20 37 93
5 5 34 5 7 85 100 100 39 3 25 79 6 22 6 67 80 99 54 92 84 100 100 94 100 98 100 100 100 100 100 100 100 100 100 97 79 5 2 5 0 5 29 86
5 5 5 56 44 66 100 100 12 6 76 100 100 98 100 100 100 100 5 83 99 94 86 100 100 100 100 100 100 100 100 100 100 100 93 21 5 5 5 0 22 5 33 5
36 38 5 92 13 100 100 93 95 98 89 54 40 14 95 100 100 100 29 61 80 100 100 100 100 100 100 100 100 100 100 100 100 90 10 5 5 5 5 24 7 5 5 6
25 57 93 67 67 48 5 36 91 99 100 100 54 79 100 100 100 90 100 100 100 100 100 100 100 100 100 100 100 100 100 68 86 19 5 5 79 77 8 17 5 7 70 99
27 56 12 92 100 47 59 100 100 100 100 100 99 100 100 100 76 98 100 100 100 100 100 100 100 100 100 100 100 100 58 84 26 48 5 5 100 94 60 50 11 5 77 100
97 95 100 96 100 100 100 100 100 97 51 22 92 100 100 100 100 100 100 100 100 100 100 100 100 100 100 99 100 94 56 35 80 59 5 29 83 99 98 58 5 22 98 99
100 100 100 100 100 24 100 100 78 37 61 100 100 100 100 100 100 100 100 100 100 100 100 100 100 100 100 100 90 99 97 92 23 5 6 83 100 97 100 67 30 99 100 84
100 100 46 10 26 5 39 98 91 92 100 100 100 100 100 100 100 100 100 100 100 100 100 100 100 96 100 100 100 37 60 39 14 56 27 100 100 98 100 65 50 99 100 81

GFSCGP_prec_cloud_033.txt.gz
Cloud_Cover
100 100 100 100 100 83 100 100 94 10 9 5 5 68 100 100 91 93 100 100 100 67 69 73 49 77 100 96 27 59 100 94 100 100 100 100 100 100 100 100 80 36 9 0
99 100 100 100 98 99 100 100 49 66 49 22 7 8 14 11 5 26 38 46 64 93 74 69 23 59 43 49 41 100 99 80 100 97 44 61 62 36 5 0 0 0 0 0
100 100 100 100 100 97 7 5 6 5 8 37 85 87 71 46 50 19 5 5 5 5 5 30 36 4 50 46 28 13 9 6 5 5 5 5 5 5 66 56 6 5 0 0
99 30 95 55 11 42 5 0 5 5 55 68 11 5 5 5 3 2 5 5 5 5 0 4 5 5 13 55 5 5 9 5 31 69 67 5 42 56 8 11 4 2 5 5
100 100 100 43 48 5 3 5 4 5 5 5 1 0 0 0 0 0 0 0 0 2 0 3 6 9 66 14 12 34 74 38 23 92 63 91 96 5 2 0 3 5 8 87
74 16 24 51 1 0 0 0 1 1 2 2 2 1 0 0 0 0 0 0 4 1 0 3 5 52 38 50 54 80 70 97 82 11 34 15 5 4 5 4 3 5 9 1
2 1 0 0 0 0 0 0 1 4 5 0 0 0 0 0 0 0 0 0 0 0 0 5 92 60 70 91 77 5 25 32 58 64 7 7 5 5 5 3 0 2 1 0
0 0 0 0 0 0 0 0 0 0 0 0 0 0 0 0 0 0 0 0 0 0 4 22 77 100 100 10 5 5 5 6 10 97 78 5 48 67 5 0 0 2 5 5
0 0 0 0 0 0 0 0 0 0 0 0 0 0 0 0 0 0 0 0 0 4 5 12 61 5 0 0 4 5 5 19 99 100 69 65 91 63 5 5 5 5 9 51
0 0 0 0 0 0 0 0 0 0 0 0 0 0 0 0 0 0 0 0 0 5 5 5 3 0 2 5 5 5 61 100 100 80 92 100 76 6 12 10 50 26 17 15
0 0 0 0 0 0 0 0 0 0 0 0 0 0 0 0 0 0 0 0 0 5 0 0 0 0 5 5 8 41 100 95 63 85 89 17 73 63 7 5 5 5 5 5
0 0 0 0 0 0 0 0 0 0 0 0 0 0 0 0 0 0 5 5 5 5 4 0 2 5 7 13 74 100 63 99 97 85 7 15 5 5 5 5 5 5 5 5
0 0 0 0 0 0 0 0 0 0 0 0 1 0 2 5 5 18 16 5 5 5 5 5 5 90 77 86 100 78 70 100 98 5 8 5 5 21 5 10 76 7 10 11
0 0 0 0 0 0 1 5 5 5 0 0 4 5 27 20 5 5 5 5 5 5 5 5 11 74 100 100 93 93 100 79 67 20 5 5 5 44 99 100 96 99 96 14
0 0 0 0 0 4 6 31 5 5 5 2 5 5 26 21 5 5 5 5 5 5 5 8 5 91 100 92 86 100 57 20 5 5 6 24 99 98 100 100 100 83 7 8
5 5 5 5 10 83 79 14 5 5 5 5 24 30 5 5 5 5 5 5 12 5 5 5 77 100 88 100 100 100 100 60 59 19 41 99 100 100 100 100 53 55 16 10
5 5 7 69 59 99 100 9 5 5 5 5 5 4 5 13 99 100 79 6 5 5 53 64 93 100 88 100 99 96 80 95 100 90 100 100 100 100 100 22 50 29 37 11
5 5 42 58 8 94 100 69 5 5 5 5 5 5 10 66 91 97 6 6 6 46 78 96 100 100 100 76 86 90 90 100 100 100 100 100 100 100 78 34 5 5 8 82
5 5 8 27 4 9 98 63 22 0 5 3 4 65 97 98 54 99 81 40 74 86 51 100 100 100 100 66 62 89 99 100 100 100 100 100 100 98 7 25 6 2 2 94
49 10 6 92 5 22 100 93 21 5 6 28 100 100 100 100 18 64 14 74 100 82 100 100 100 100 100 100 100 100 100 100 100 100 100 97 72 45 41 100 5 2 32 99
27 38 7 5 30 68 50 34 7 46 62 100 100 100 100 97 71 58 39 69 100 100 100 100 100 100 100 100 100 100 100 100 100 94 14 6 85 86 100 82 5 5 5 5
6 13 34 58 67 5 5 5 52 100 100 100 79 28 9 83 48 13 81 100 100 100 100 100 100 100 100 100 100 100 100 98 81 24 10 99 100 100 95 5 5 5 5 8
91 49 35 96 41 5 7 40 58 85 100 78 6 5 18 54 46 59 99 100 100 100 100 100 100 100 100 100 99 100 91 100 76 32 100 100 100 85 5 39 5 5 5 54
92 78 74 5 45 5 8 19 74 100 87 86 16 47 9 26 42 85 100 100 100 100 100 100 100 100 100 99 100 100 90 100 98 100 100 100 84 5 74 88 64 5 5 57
99 100 14 23 91 98 100 100 100 64 29 8 14 23 38 46 62 84 100 100 100 100 100 100 99 100 100 100 100 96 100 100 100 100 100 56 14 6 82 70 90 49 18 89
100 93 99 100 100 100 100 92 85 55 40 37 45 61 98 98 100 100 100 100 100 100 100 100 100 100 100 100 100 100 100 100 100 100 64 41 66 48 98 71 74 25 9 20

GFSCGP_prec_cloud_036.txt.gz
Cloud_Cover
100 100 100 100 100 100 100 100 100 100 100 100 100 100 100 100 100 100 100 100 100 92 37 100 99 77 53 47 99 68 94 100 100 100 100 100 100 100 100 100 100 100 100 100
100 100 100 100 100 100 100 100 100 100 95 100 100 100 99 77 46 41 42 62 69 93 82 79 77 49 40 80 82 59 50 100 100 100 100 82 100 90 100 100 100 91 56 75
100 100 100 100 100 100 100 100 100 100 97 48 46 60 59 57 50 29 53 79 74 97 98 80 56 45 93 94 51 29 93 29 58 48 97 100 26 84 92 94 93 76 14 1
86 100 100 100 98 100 100 98 78 40 15 45 5 51 5 5 5 10 47 62 32 10 2 0 2 7 9 71 61 42 5 37 99 68 12 5 5 5 5 5 5 4 5 1
100 100 100 100 100 97 74 17 47 5 5 5 5 3 5 5 1 0 1 5 4 0 0 3 5 5 70 5 28 5 63 26 6 72 42 38 5 5 5 5 6 19 10 4
100 66 28 17 9 10 20 5 5 5 2 0 3 0 1 4 0 0 0 0 0 0 1 5 5 5 5 5 5 10 8 5 14 5 5 5 11 6 5 11 98 85 32 5
20 5 14 78 95 52 5 2 2 0 0 0 1 5 0 0 0 0 0 0 0 0 0 4 5 4 5 5 5 5 5 5 5 5 5 10 31 9 73 99 93 21 5 5
22 14 8 5 3 0 0 0 3 4 5 5 1 0 0 0 0 0 0 0 0 0 0 4 0 5 5 5 5 5 0 5 5 7 37 98 97 77 79 25 5 5 5 5
0 0 0 0 0 1 5 5 4 3 0 0 0 0 0 0 0 0 0 0 0 0 0 0 5 5 6 5 3 2 5 5 5 12 67 98 91 59 67 6 5 13 7 5
0 0 2 5 5 2 0 0 0 0 0 0 0 0 0 0 0 0 0 0 0 0 5 4 5 20 16 0 2 5 5 5 29 100 91 45 34 92 70 73 88 27 5 5
0 0 0 0 0 0 0 0 0 0 0 0 0 0 0 0 0 0 0 4 5 5 5 5 5 5 5 5 5 48 65 81 88 100 100 86 90 76 75 32 5 5 5 5
0 0 0 0 0 0 0 0 0 0 0 0 0 0 0 0 0 0 5 5 5 5 5 5 5 5 5 5 20 23 86 62 100 100 100 94 20 9 5 5 5 5 5 38
0 0 0 0 0 0 1 0 0 2 5 5 28 5 0 0 0 4 5 5 5 5 5 5 5 5 5 14 89 45 72 100 60 91 94 28 5 5 5 5 5 18 87 99
0 0 0 2 5 5 5 5 5 5 26 26 5 5 2 6 5 5 5 5 5 5 5 5 5 5 5 80 35 56 100 65 70 81 13 13 19 5 5 49 82 100 98 26
0 5 5 5 30 8 5 20 13 5 75 22 1 5 2 84 86 78 13 5 5 5 5 5 5 5 5 40 15 79 44 92 64 85 53 28 16 36 87 100 100 100 55 26
5 7 5 45 27 5 39 65 5 5 5 5 5 24 0 3 6 5 5 5 81 30 5 5 5 5 5 13 65 80 99 22 100 63 98 60 93 100 100 100 95 86 19 64
35 21 54 58 5 52 100 5 5 5 2 5 5 5 5 7 5 5 17 100 99 9 5 5 5 5 15 77 100 100 85 100 81 100 89 99 100 100 100 98 52 46 10 77
44 51 68 7 66 100 100 6 5 0 4 1 1 5 5 4 4 5 33 92 6 24 75 12 6 32 93 100 100 100 100 94 100 99 99 96 100 100 94 99 86 18 77 70
11 19 46 55 16 100 100 54 5 0 5 5 5 5 5 5 5 7 100 8 5 6 6 35 60 100 100 100 100 100 100 100 100 100 100 100 94 96 100 98 100 94 100 80
5 5 6 24 70 82 100 100 48 5 5 85 94 11 5 5 6 96 100 46 6 14 41 44 72 99 99 99 100 100 100 100 100 100 100 100 100 100 100 100 100 100 97 85
31 47 43 18 38 87 84 65 6 12 40 99 33 20 100 100 100 100 15 5 5 41 8 41 95 100 100 98 100 100 100 100 100 100 100 100 100 100 100 100 100 98 98 93
25 37 67 65 74 49 5 33 96 98 77 8 32 87 74 100 100 55 5 5 9 56 80 93 98 100 100 100 100 100 100 100 100 100 100 100 100 100 100 100 100 99 98 98
7 7 7 6 5 5 22 81 17 8 80 82 48 86 99 22 5 5 5 49 83 64 94 98 100 100 100 100 100 100 100 100 100 100 100 100 100 100 100 100 86 100 99 100
40 29 5 5 8 5 5 5 5 5 18 100 100 56 5 5 5 23 83 100 99 85 99 100 100 100 100 100 100 100 100 100 100 100 100 100 100 100 100 98 100 100 100 100
5 5 5 5 5 5 7 45 97 100 98 37 5 16 5 6 56 92 61 13 82 100 100 100 100 100 100 100 100 100 100 100 100 100 100 100 100 93 85 93 100 100 100 100
60 64 50 93 100 100 100 100 81 8 5 5 5 6 42 76 47 15 58 93 99 100 100 100 100 100 100 100 100 100 100 100 100 100 100 52 100 94 100 98 100 100 90 23

GFSCGP_prec_cloud_039.txt.gz
Cloud_Cover
100 100 100 100 100 100 100 100 100 100 100 100 100 100 100 100 100 100 100 100 100 100 100 100 100 77 73 40 45 100 100 64 71 100 100 100 100 100 100 100 100 100 99 76
100 100 100 100 100 100 100 100 100 100 100 100 100 100 100 100 100 100 100 100 100 100 98 88 87 62 70 81 82 82 99 100 72 15 48 100 100 47 67 62 86 100 94 74
100 100 100 100 100 100 100 100 100 100 100 100 100 100 100 100 100 100 100 94 99 78 28 26 23 20 68 86 92 100 59 17 31 5 5 58 97 87 49 42 91 100 65 8
100 100 100 100 100 100 100 100 100 100 100 100 100 100 97 32 92 99 100 100 86 36 6 12 20 75 50 100 99 8 5 20 11 8 5 12 54 77 23 14 37 48 5 5
100 100 100 100 100 100 100 100 100 100 100 100 87 11 100 93 99 99 47 54 21 4 9 30 45 84 66 5 5 16 34 38 5 5 5 5 23 42 50 67 25 6 11 11
100 100 100 100 100 100 100 100 100 87 85 98 70 100 100 100 89 24 4 4 5 1 12 2 17 26 4 5 6 14 12 30 4 4 5 13 47 76 98 57 49 64 65 25
100 100 100 100 100 100 81 84 100 100 100 8 33 2 5 16 5 5 1 0 0 0 0 0 0 0 1 5 4 5 5 15 14 29 54 34 14 77 77 80 84 81 73 68
100 100 90 10 36 100 93 88 100 100 63 33 11 0 4 5 2 0 0 0 0 0 0 0 0 0 0 0 2 5 16 51 91 61 31 5 5 44 100 23 82 81 87 21
100 100 86 100 100 57 23 5 0 0 0 5 7 20 0 0 0 0 0 0 0 0 0 0 0 2 4 0 6 6 88 100 74 7 5 22 16 100 84 39 28 85 15 5
100 100 66 21 15 0 0 2 2 5 5 2 63 1 73 0 0 0 0 0 0 0 1 5 5 1 0 2 35 38 34 50 5 5 6 48 100 100 82 56 90 5 14 5
44 11 40 0 0 1 8 5 6 4 1 0 0 4 0 0 0 0 0 3 5 5 5 5 5 5 6 44 53 49 9 5 5 5 25 86 100 35 9 77 5 10 5 5
2 5 6 5 5 5 1 3 5 0 0 0 0 0 0 0 0 0 0 0 5 5 5 9 5 19 41 37 51 21 8 76 24 55 100 100 98 18 6 5 5 5 5 5
5 5 5 5 1 0 0 0 0 0 0 0 19 0 0 4 5 2 0 0 4 5 5 5 16 22 14 5 5 5 16 6 67 62 100 90 46 10 12 9 53 22 5 5
2 0 0 4 13 30 5 0 2 2 0 1 2 0 5 5 5 2 3 2 5 2 5 5 39 73 70 5 16 31 87 13 96 98 100 59 15 55 6 88 34 5 5 5
0 0 0 0 2 3 1 2 5 5 1 38 0 5 0 5 46 24 24 5 1 4 5 48 100 100 7 5 50 36 6 80 77 100 94 84 78 79 99 78 60 65 50 67
0 0 0 0 0 0 3 5 5 1 3 41 4 13 0 5 5 5 5 5 5 2 5 10 100 7 4 1 5 51 79 94 66 96 97 83 93 100 83 94 96 81 99 100
3 1 2 4 3 5 5 5 4 4 5 4 5 13 5 5 4 1 0 2 5 5 5 39 97 5 5 5 34 50 96 51 100 100 99 100 100 94 100 100 92 100 100 100
0 4 5 11 5 76 5 0 4 5 5 3 5 5 5 5 4 5 5 5 5 5 37 96 5 5 16 42 32 79 82 100 100 100 100 96 100 100 100 100 100 100 100 100
5 8 48 54 14 91 5 5 5 5 5 5 5 5 5 5 5 5 23 5 2 15 40 5 5 8 8 66 70 100 100 100 100 100 100 100 100 100 100 100 100 100 100 100
5 20 78 11 66 95 16 5 5 5 5 41 47 5 5 5 5 2 5 5 5 11 21 5 7 41 64 63 88 96 78 100 100 100 100 100 100 100 100 100 100 100 100 100
5 43 38 5 35 5 46 8 24 33 89 30 6 5 5 10 5 5 11 29 100 93 10 91 60 19 15 78 92 100 100 100 100 100 100 100 100 100 100 100 100 100 100 100
10 7 41 6 63 63 20 59 98 72 12 20 19 7 6 5 7 73 100 100 65 15 87 67 68 92 99 99 100 100 100 100 100 100 100 100 100 100 100 100 100 100 100 99
5 7 5 5 5 12 54 13 14 35 34 17 5 15 31 39 99 99 28 6 13 58 88 88 100 83 63 100 100 100 100 100 100 100 100 100 100 100 100 100 100 100 100 98
16 5 6 33 5 5 5 5 5 5 5 5 9 80 100 66 5 21 5 5 43 92 93 25 62 100 100 100 100 100 100 100 100 100 100 100 100 100 100 100 100 100 92 98
9 5 34 88 5 5 5 5 12 22 68 100 87 15 5 5 12 48 8 50 65 12 80 100 100 100 100 100 100 100 100 100 100 100 100 100 100 100 100 100 97 99 88 92
21 11 6 5 34 68 89 100 100 100 39 5 5 42 10 5 9 5 7 23 82 100 100 100 100 100 100 100 100 100 100 100 100 100 100 100 100 100 100 100 83 86 99 99

GFSCGP_prec_cloud_042.txt.gz
Cloud_Cover
40 100 100 100 100 99 100 100 100 100 87 93 100 100 100 85 100 100 100 90 100 100 69 94 100 100 100 100 100 100 100 100 100 100 30 5 5 5 5 100 82 93 100 100
90 100 100 100 100 100 100 100 100 100 100 100 100 100 100 100 100 100 100 100 100 100 100 100 100 99 100 100 84 91 86 82 7 5 16 5 5 3 2 5 7 89 100 100
82 97 100 100 100 100 100 85 100 78 98 100 100 100 100 100 100 100 100 100 100 100 100 100 100 100 100 80 98 16 27 32 14 57 5 4 1 3 2 5 5 5 27 6
96 100 100 100 100 100 100 62 90 100 38 100 100 100 100 100 100 100 100 100 100 100 90 9 65 49 96 44 89 10 66 5 14 6 4 3 5 5 5 5 28 5 5 5
100 100 98 100 100 92 100 100 32 100 100 100 100 86 100 99 99 100 60 5 5 6 50 64 26 98 100 100 5 46 4 39 5 5 0 4 42 100 100 98 60 98 98 76
100 100 100 100 98 100 100 100 100 100 100 100 100 100 100 97 98 98 100 30 5 5 4 94 97 100 80 100 6 20 0 100 12 2 3 0 5 68 50 15 33 100 99 27
100 100 98 68 100 100 100 100 100 100 100 100 100 100 95 84 34 29 16 5 3 5 16 25 95 67 55 17 8 100 64 100 7 5 2 0 2 8 7 54 64 93 32 5
63 100 96 100 100 100 100 100 100 100 100 85 62 48 91 5 4 3 5 8 5 0 0 10 0 40 83 62 18 2 3 38 2 5 30 33 5 5 68 100 100 100 53 5
100 90 100 97 77 100 100 87 92 52 54 5 5 5 0 5 24 38 45 4 0 0 0 11 9 50 0 0 0 0 0 0 5 84 98 20 5 5 49 74 83 100 95 5
89 99 100 100 100 100 100 100 58 20 4 3 13 41 100 80 4 0 0 0 0 0 0 0 0 0 0 0 0 0 41 39 59 14 4 5 5 68 100 100 100 92 69 22
98 100 100 100 100 100 100 58 3 0 41 56 3 88 10 0 0 0 0 0 0 0 0 0 0 0 0 1 37 5 56 100 59 5 5 30 64 100 100 100 100 100 45 15
99 100 100 82 93 94 47 34 55 7 2 4 0 0 2 0 0 0 0 0 0 0 0 0 0 0 3 89 100 99 100 100 67 5 5 66 99 100 100 100 100 48 18 62
100 85 25 6 24 1 1 17 5 4 63 0 19 0 0 0 0 0 0 0 0 0 1 4 46 53 76 94 100 100 100 100 44 5 84 100 100 100 100 100 40 34 100 100
2 4 0 0 0 95 70 9 4 5 4 0 0 0 5 0 0 0 3 1 0 0 2 6 98 100 100 100 100 100 100 94 17 67 100 100 100 100 91 88 96 99 99 100
0 1 3 5 5 89 0 53 68 6 18 3 0 0 1 0 12 6 5 5 21 4 4 5 86 62 100 99 100 100 83 5 15 100 100 100 100 100 100 99 100 100 100 100
5 5 5 4 0 0 1 0 0 5 0 0 0 4 0 0 5 5 72 6 1 5 5 5 5 5 54 100 100 57 30 10 68 100 100 100 100 100 100 100 100 100 100 100
5 5 0 0 0 0 3 0 0 0 0 0 0 4 1 0 6 91 3 0 5 5 5 5 5 5 14 100 97 21 56 44 78 99 100 100 100 100 100 100 100 100 100 100
5 4 2 4 0 3 2 0 0 0 0 0 6 30 5 5 5 4 4 5 5 5 6 5 5 5 83 99 100 99 81 79 86 100 100 100 100 100 100 100 100 100 100 100
5 4 4 14 0 3 0 0 0 0 0 2 6 4 3 2 5 5 5 5 16 5 5 5 16 100 100 62 77 52 72 99 100 100 100 100 100 100 100 100 100 100 100 100
5 5 5 4 5 4 0 0 0 0 0 5 5 5 5 5 6 6 6 46 33 12 5 29 100 95 5 5 5 8 80 94 100 100 100 100 100 100 100 100 100 100 100 100
3 6 38 5 31 5 6 2 5 5 5 5 5 5 5 16 5 5 5 5 5 10 83 100 80 10 9 21 64 87 97 100 100 100 100 100 100 100 100 100 100 100 100 100
5 8 65 6 81 62 9 6 7 5 14 5 5 8 5 14 14 5 5 62 96 100 84 19 69 98 79 86 93 100 100 100 100 100 100 100 100 100 100 100 100 100 100 100
5 7 5 5 5 5 5 5 12 97 86 24 19 30 70 91 51 79 98 100 82 50 51 63 100 89 100 97 100 100 100 100 100 100 100 100 100 100 100 100 100 100 100 100
8 36 30 13 5 8 64 5 70 26 33 82 82 82 100 100 100 98 27 96 90 45 59 73 72 92 100 100 100 100 100 100 100 100 100 100 100 100 100 100 100 100 100 100
26 7 7 44 5 5 5 34 52 17 80 100 100 100 100 100 37 17 9 10 62 65 84 100 100 100 100 100 100 100 100 100 100 100 100 100 100 100 100 100 100 100 100 100
100 100 100 33 92 20 11 42 97 99 100 100 100 100 77 6 5 28 99 97 95 100 100 100 100 99 100 100 97 87 96 99 100 100 100 100 100 100 100 100 100 100 100 28

GFSCGP_prec_cloud_045.txt.gz
Cloud_Cover
93 16 100 100 100 100 100 100 100 43 100 91 100 100 100 100 100 100 100 100 100 100 100 100 100 100 100 100 90 77 63 100 100 100 100 100 100 100 100 100 74 5 5 5
88 19 95 100 100 100 82 100 99 99 81 99 100 100 100 100 100 100 100 100 100 100 100 91 100 100 94 93 100 100 100 100 100 100 99 7 5 5 5 5 4 2 5 5
100 99 99 100 100 100 94 96 100 100 31 100 100 100 94 100 100 100 100 100 100 100 100 98 72 100 100 100 100 100 100 100 82 53 5 5 6 2 0 0 1 3 5 2
100 100 100 100 90 100 93 95 86 100 97 90 99 53 40 59 100 97 99 82 100 100 86 74 99 43 92 95 32 24 88 51 17 5 3 5 0 0 0 0 0 0 1 5
92 76 63 88 100 100 95 47 90 99 98 97 100 96 14 78 100 100 59 8 6 24 100 98 79 76 74 18 5 5 5 5 1 28 2 5 0 0 0 0 0 5 4 38
92 46 54 100 100 100 100 92 95 99 97 100 100 97 100 79 90 100 100 87 90 71 38 54 13 5 24 5 4 1 0 0 0 0 5 1 0 0 0 11 91 100 100 72
13 74 100 100 100 90 100 100 100 100 100 100 100 99 74 98 100 100 100 42 33 5 5 5 5 4 0 2 16 1 0 0 0 18 5 5 0 6 60 65 100 100 73 41
48 100 93 100 92 100 100 100 100 100 100 84 100 76 52 61 32 31 5 0 0 0 0 0 0 0 0 0 15 0 0 1 95 46 15 5 0 3 6 23 99 100 99 94
59 100 76 94 97 100 100 49 96 99 100 100 100 85 5 5 20 5 1 0 2 4 0 0 0 0 0 0 0 11 100 100 45 7 5 5 5 5 77 96 86 99 88 92
100 100 76 100 100 100 100 94 51 83 100 100 55 3 5 3 99 100 2 3 2 0 0 0 0 0 0 0 0 47 100 100 16 3 5 6 24 29 88 60 86 100 100 100
100 100 66 85 100 100 99 100 92 99 100 99 5 14 5 38 80 2 0 0 0 0 0 0 0 0 0 0 0 0 14 1 2 17 5 24 62 92 100 100 93 100 97 100
100 100 100 100 100 88 16 68 71 84 68 94 4 0 4 88 5 0 0 0 0 0 0 0 0 0 0 0 0 0 0 72 100 100 100 100 100 100 100 100 100 100 100 96
82 100 100 100 100 93 5 5 6 5 20 0 2 0 5 0 0 0 0 0 0 0 0 0 0 1 4 2 1 86 100 100 100 100 100 100 100 100 100 100 99 100 81 88
30 32 90 100 91 5 98 6 2 3 5 5 5 0 0 0 0 1 0 0 0 0 0 0 2 5 5 43 100 100 86 100 100 100 100 100 100 100 100 100 98 99 74 96
100 100 100 100 95 2 23 11 6 24 87 95 9 0 0 0 2 31 28 3 0 0 0 0 4 5 4 24 9 8 85 99 100 100 100 100 100 100 100 94 100 100 100 91
29 90 100 100 4 2 10 1 0 4 1 0 1 4 5 62 33 5 5 0 3 4 0 4 1 5 5 14 5 6 48 100 100 100 100 100 100 100 92 100 100 100 100 100
14 24 47 10 2 5 5 0 0 0 0 0 0 1 5 1 2 0 0 4 1 0 5 1 1 1 4 5 67 5 97 100 100 100 100 99 80 78 100 100 100 100 100 100
13 5 8 5 5 47 0 0 0 0 0 0 5 5 0 0 0 0 0 5 5 5 16 7 5 5 5 5 5 73 78 81 100 100 100 86 97 100 100 100 100 100 100 100
5 5 9 5 5 3 0 3 0 0 0 0 5 0 0 0 0 0 4 5 5 5 5 5 8 5 5 28 97 59 73 97 100 100 100 86 100 100 100 100 100 100 100 100
8 5 10 52 5 4 0 5 0 2 3 5 0 0 0 0 5 5 5 5 5 5 5 5 5 22 51 89 11 5 6 65 100 99 100 100 100 100 100 100 100 100 100 100
34 56 26 28 31 4 5 2 3 5 5 4 3 5 5 5 5 5 5 5 5 24 5 51 100 100 100 64 51 75 100 100 100 100 100 100 100 100 100 100 100 100 100 100
7 44 15 59 83 8 5 5 5 5 5 3 5 5 5 16 5 5 5 53 8 7 94 100 100 38 80 98 100 100 100 100 100 100 100 99 100 100 100 100 100 100 100 100
29 66 33 5 5 5 7 12 30 9 5 5 5 6 26 5 5 19 5 29 100 100 100 100 53 78 100 100 99 100 100 100 100 97 99 99 100 99 100 100 100 100 100 100
94 32 55 5 5 5 30 49 53 63 21 11 22 71 56 72 37 67 100 100 100 100 96 100 97 100 100 99 100 100 100 100 95 100 100 99 99 100 100 98 90 57 5 37
94 7 16 5 5 5 65 54 57 87 32 30 72 56 59 52 85 100 100 100 100 100 100 100 98 93 85 75 72 38 87 82 34 6 53 56 2 2 0 1 5 5 5 5
86 33 9 56 5 9 18 46 37 93 95 100 94 75 54 84 100 83 98 100 100 100 100 79 80 28 22 6 38 47 36 12 8 7 0 0 0 0 1 0 0 0 0 0

GFSCGP_prec_cloud_048.txt.gz
Cloud_Cover
5 2 9 96 83 100 100 100 100 86 86 100 42 100 97 100 100 100 100 100 100 100 100 100 100 100 100 91 15 94 98 69 100 100 100 53 43 22 57 96 100 100 100 89
6 19 100 100 100 96 100 92 95 100 100 99 79 100 100 100 100 100 100 100 100 44 100 100 100 45 90 100 100 100 70 98 100 91 94 85 100 100 100 95 86 24 69 5
37 100 99 100 95 85 100 65 66 100 100 100 34 87 100 99 85 68 87 100 96 100 100 100 100 100 87 77 89 62 61 100 100 100 100 100 100 100 79 47 5 4 2 5
66 97 87 76 99 65 100 100 100 53 96 100 96 99 100 63 100 100 100 100 100 54 50 100 100 100 100 99 98 100 100 100 100 100 100 87 63 15 7 1 0 0 2 5
5 76 95 55 100 100 97 99 100 100 100 100 100 94 100 100 100 84 99 100 98 100 100 95 100 100 100 96 88 84 61 87 98 5 8 7 5 6 5 0 0 5 5 2
0 5 42 58 88 55 20 95 89 100 100 100 99 17 78 72 93 100 82 58 93 100 100 46 18 83 93 55 40 22 26 38 31 4 0 2 18 17 4 0 3 5 4 34
72 6 31 12 99 65 75 12 23 59 71 62 11 90 95 31 53 100 46 86 74 100 100 76 5 5 38 58 29 7 19 1 0 0 1 4 6 5 4 1 5 15 12 93
80 8 31 37 59 53 42 67 8 77 16 53 5 10 32 83 62 16 33 19 22 5 38 5 5 4 1 22 18 7 5 3 0 0 2 3 1 5 5 5 62 98 100 100
5 4 41 96 100 100 100 99 71 75 20 6 13 10 8 80 40 5 5 5 4 5 4 5 5 5 0 1 1 9 5 1 0 0 0 5 56 76 53 74 100 100 100 100
5 5 96 100 88 94 82 50 59 74 67 51 67 80 82 8 5 3 49 2 0 0 0 4 0 0 0 6 23 9 2 0 1 15 100 100 100 100 100 100 100 100 100 90
5 17 37 100 94 58 80 62 89 99 25 80 4 30 96 6 5 13 2 4 5 5 0 0 0 0 0 0 0 0 0 0 36 100 100 100 100 99 100 100 100 100 100 100
12 12 60 90 95 55 100 65 7 10 79 91 60 6 12 0 5 5 5 5 4 0 0 0 0 0 0 0 0 0 0 0 5 97 94 62 100 100 100 100 100 100 100 100
61 46 37 75 45 94 100 96 76 11 97 100 30 1 2 0 0 1 5 0 0 0 0 0 0 0 0 0 1 3 8 5 24 100 100 96 92 99 100 46 100 100 100 98
40 62 9 100 87 97 10 53 99 52 42 5 3 2 0 2 0 0 0 2 2 0 0 0 0 0 5 5 9 49 65 67 100 36 100 96 37 100 12 98 100 68 11 73
88 100 5 23 5 21 74 100 100 69 2 52 2 12 2 0 0 0 3 5 2 0 0 2 5 5 5 5 5 5 26 7 33 24 66 95 93 100 85 98 100 96 73 98
22 100 73 96 80 100 88 100 44 0 1 5 45 5 5 0 0 5 5 3 0 0 0 1 5 5 5 1 5 9 22 18 55 83 100 100 100 94 100 100 100 67 100 99
5 33 32 100 100 88 77 23 0 0 5 0 11 6 5 4 0 0 3 5 5 5 5 4 1 5 5 5 4 11 7 5 77 100 100 100 98 100 100 100 87 100 100 100
5 5 45 100 15 13 17 4 4 0 2 0 0 0 1 0 0 0 0 0 5 5 5 4 2 4 4 4 5 5 10 20 99 84 64 60 82 84 99 100 100 100 100 98
86 14 9 6 5 7 5 5 2 3 2 4 4 0 4 0 0 0 0 4 0 2 1 5 5 5 5 5 6 50 29 99 44 34 73 63 96 100 100 100 100 100 100 100
100 90 5 12 5 5 7 3 0 2 5 11 5 2 0 0 0 0 4 5 5 5 5 5 5 6 11 61 94 96 100 46 64 78 84 98 100 100 100 100 100 99 100 56
100 100 6 25 5 5 5 5 5 5 4 3 5 3 2 0 0 5 5 5 5 5 14 81 100 100 100 100 100 99 63 100 96 100 100 100 100 100 100 99 99 86 42 62
85 75 46 14 14 15 37 22 5 5 1 5 5 5 5 5 5 5 5 14 64 96 97 87 100 100 100 100 100 100 100 100 100 100 100 100 100 96 45 7 5 5 0 0
22 96 34 5 6 98 22 72 5 4 5 5 5 5 5 5 5 10 55 68 61 72 99 75 100 100 100 100 100 85 84 74 99 98 77 100 66 5 5 5 3 0 0 0
13 29 73 5 8 74 83 54 17 5 5 5 5 5 31 45 43 44 46 44 61 86 100 100 100 100 100 100 99 99 82 90 84 100 74 54 5 6 6 1 0 0 0 0
100 85 85 24 21 12 26 32 5 5 5 10 60 39 54 48 31 49 98 98 92 100 100 100 100 100 100 93 63 16 65 74 35 35 18 5 20 12 1 0 0 0 0 0
100 100 93 26 5 5 52 34 64 66 82 52 35 46 67 95 100 100 100 88 100 100 100 100 100 74 20 5 5 5 8 5 34 7 13 41 24 0 0 0 2 0 0 0

GFSCGP_prec_cloud_051.txt.gz
Cloud_Cover
2 0 3 4 29 53 86 100 100 100 100 95 98 94 100 100 100 100 100 100 100 100 100 100 92 100 100 100 100 100 100 95 100 100 100 100 100 100 100 100 100 100 100 100
0 2 4 22 59 40 88 100 96 97 100 96 100 100 100 100 100 100 100 100 98 98 96 100 100 66 100 100 100 100 100 100 100 100 100 100 97 99 100 100 100 100 100 85
4 82 26 93 92 58 90 94 100 100 100 100 100 100 100 100 100 100 100 100 100 81 93 100 100 100 100 100 100 37 35 83 100 100 90 64 92 66 88 100 100 72 52 72
1 5 7 5 48 97 98 10 48 94 100 100 100 100 100 97 97 85 100 100 100 100 100 100 100 11 100 100 100 100 100 93 87 100 100 100 100 78 46 78 73 29 21 8
0 5 5 5 42 100 99 47 11 80 100 100 95 93 100 100 100 100 98 100 98 74 94 85 69 15 17 66 71 67 92 49 50 14 56 69 11 5 69 94 89 4 0 1
0 4 1 21 71 100 48 61 73 100 98 68 100 93 99 100 100 87 94 100 97 95 94 94 76 41 5 7 19 32 37 14 68 53 25 39 5 5 78 87 5 2 2 5
0 5 1 5 21 100 100 82 67 100 99 5 79 9 10 30 56 75 98 96 24 5 32 5 14 5 9 96 58 56 96 57 100 100 100 47 11 4 71 34 5 5 5 63
2 1 3 5 14 53 97 94 96 46 6 6 30 93 68 28 5 5 38 56 100 44 10 25 20 0 12 77 52 100 89 92 99 100 100 81 5 9 90 25 5 98 72 98
0 5 3 5 91 45 16 69 80 11 7 24 36 59 5 5 5 5 21 76 77 39 11 5 5 5 18 44 32 100 74 100 100 82 5 5 2 3 4 79 81 75 51 100
0 2 22 5 54 22 5 6 28 33 18 16 58 31 10 6 38 5 5 5 68 65 82 62 22 4 8 14 42 78 76 77 30 4 5 1 0 14 71 100 100 90 100 34
0 0 4 22 15 55 66 32 63 49 24 5 45 98 40 5 5 5 2 5 4 5 4 2 0 0 0 12 33 45 53 5 4 5 1 5 36 20 100 78 55 98 36 100
0 0 0 4 48 5 75 83 86 86 79 43 5 5 21 5 66 76 41 4 4 0 0 0 0 0 0 5 1 1 0 0 0 5 18 5 51 5 40 100 98 79 100 95
0 1 0 5 3 3 6 99 100 100 38 4 4 60 3 6 30 7 16 81 5 3 3 0 0 0 5 0 0 5 3 5 2 5 7 58 60 37 99 100 100 96 56 87
5 0 0 4 3 53 9 9 9 45 6 5 4 4 2 5 53 65 5 4 0 0 0 0 0 5 2 3 4 5 24 5 5 30 69 70 84 70 94 100 100 100 88 96
5 3 0 5 5 4 0 100 67 11 5 6 57 8 0 4 6 44 3 0 0 4 0 0 3 0 4 5 5 6 44 71 92 48 37 91 99 100 100 100 100 100 95 98
4 5 4 5 5 5 0 5 10 64 5 36 48 2 0 0 0 0 0 0 0 5 5 0 0 2 5 3 5 16 58 12 53 96 99 80 100 100 100 100 100 100 100 100
24 44 21 97 81 26 6 100 100 100 100 92 1 4 0 0 4 3 2 0 1 5 4 0 0 0 5 15 88 83 88 100 100 81 76 100 100 100 100 100 100 100 100 100
77 92 68 15 6 24 83 67 45 66 25 0 5 5 0 0 0 4 58 1 4 0 3 4 5 5 5 22 53 30 24 33 6 70 92 100 100 100 100 100 100 100 100 100
62 8 15 5 2 5 6 5 0 0 0 42 5 0 0 0 0 0 0 0 0 2 3 5 5 5 5 7 6 5 5 11 85 100 100 100 100 100 100 100 100 100 100 100
98 93 80 19 5 7 11 5 2 0 4 0 0 0 0 0 0 0 0 0 1 5 5 5 5 5 5 5 6 5 7 35 96 100 100 100 100 100 100 87 100 100 99 50
67 81 24 94 100 98 61 36 1 2 64 0 0 4 2 2 2 5 5 4 5 7 18 8 7 25 45 8 21 71 56 83 96 100 100 100 100 98 100 94 87 63 18 58
100 98 25 89 100 100 100 5 5 0 0 1 1 3 0 0 0 4 5 5 5 6 23 70 73 24 59 89 97 93 100 100 100 96 100 100 96 79 86 58 35 27 62 92
99 89 58 100 96 100 100 5 5 0 0 4 5 5 5 2 4 4 5 5 5 39 45 26 72 100 100 100 100 100 100 98 99 41 70 14 62 42 54 95 68 76 98 26
100 90 6 100 100 100 100 97 5 5 5 5 5 5 5 5 5 5 5 60 63 30 55 99 100 100 100 100 100 100 100 94 84 51 6 12 80 85 95 44 28 24 28 8
68 100 100 100 100 100 100 100 80 8 22 6 15 5 5 5 5 5 5 5 6 55 100 100 100 100 100 100 100 97 73 12 5 27 72 74 66 71 70 19 9 23 49 52
82 100 100 100 100 100 100 100 100 88 76 89 75 64 34 50 70 72 83 98 100 100 100 100 100 100 100 100 74 8 5 5 54 74 50 12 33 63 13 5 17 74 94 51

GFSCGP_prec_cloud_054.txt.gz
Cloud_Cover
0 0 0 0 4 5 6 100 93 84 100 43 100 99 100 100 100 100 100 81 76 100 100 100 100 100 100 100 100 100 100 70 77 100 100 100 92 100 60 97 100 100 100 100
0 0 0 0 1 9 6 76 50 100 80 75 100 100 100 100 100 100 100 100 63 77 63 100 100 100 100 100 100 100 100 100 69 39 75 73 100 100 100 100 100 100 100 100
0 0 1 65 49 80 99 86 40 57 94 100 100 99 100 100 100 100 100 100 85 32 100 100 100 100 100 100 100 24 64 85 61 58 72 53 97 100 100 99 87 92 100 87
0 0 0 5 12 76 90 36 72 56 82 86 92 100 82 100 100 100 92 86 98 100 100 100 100 100 100 100 64 73 100 100 100 100 100 93 68 66 94 94 100 95 100 87
0 0 0 0 1 4 31 74 97 50 76 100 92 22 33 63 37 99 100 100 100 100 100 70 51 100 100 100 100 98 80 100 100 100 100 96 99 92 57 98 95 94 84 69
0 0 0 2 0 52 71 47 99 100 99 100 67 78 8 34 62 100 100 99 100 99 99 100 97 87 100 97 100 75 74 100 100 99 100 100 100 100 98 40 71 67 97 38
0 0 0 0 0 22 5 7 100 76 100 100 100 100 100 27 83 58 100 100 100 100 94 95 98 45 9 5 26 9 27 44 71 100 100 100 100 100 100 48 87 100 98 8
0 0 0 0 0 0 6 5 5 43 42 93 99 100 100 29 73 9 14 95 100 100 24 23 10 5 5 5 12 71 28 6 46 100 100 100 100 100 100 100 58 82 81 84
0 0 0 3 4 1 0 5 41 5 40 87 100 100 100 100 100 72 88 36 67 98 100 69 5 5 5 5 6 5 12 5 38 100 100 100 100 100 100 26 5 5 86 99
0 0 0 39 5 5 5 5 5 42 41 90 100 100 100 95 100 100 100 100 48 36 36 12 5 4 5 5 5 5 9 16 64 100 100 100 100 92 62 64 69 91 99 100
0 0 0 1 1 54 5 5 5 69 41 100 99 99 100 80 82 100 100 100 60 12 6 5 5 4 2 1 26 19 64 60 56 65 73 100 58 19 100 100 100 100 100 100
0 0 0 0 1 5 5 4 6 32 30 100 98 45 38 81 67 49 52 37 6 17 22 0 0 2 27 22 46 65 100 100 67 98 100 100 100 100 100 100 100 100 100 100
0 0 0 0 0 0 5 1 5 30 100 99 32 68 54 73 92 100 100 38 14 5 0 0 0 3 9 19 45 71 87 99 73 100 100 100 100 100 100 100 100 100 94 100
5 5 0 0 1 4 0 0 4 86 84 26 27 33 5 5 5 34 54 5 5 0 0 0 0 0 0 1 23 16 35 93 98 98 87 76 92 92 100 100 100 100 90 100
5 5 5 0 2 0 0 0 0 1 35 84 44 51 98 83 5 5 5 5 0 0 0 0 0 0 0 1 6 45 69 79 31 33 53 92 100 66 100 100 100 100 100 100
5 5 5 5 3 0 5 0 0 0 4 5 5 92 100 77 5 5 8 6 3 0 0 0 1 0 0 3 34 34 5 5 5 14 58 68 100 100 100 100 100 100 100 100
33 63 55 5 1 4 7 97 9 1 0 5 17 98 57 72 0 0 0 4 4 5 5 5 5 7 0 0 0 0 2 5 22 93 100 100 100 100 100 100 100 100 99 100
100 100 88 52 22 25 76 100 68 89 9 13 98 100 29 0 0 3 0 0 0 0 3 0 5 5 5 5 3 5 15 86 100 100 100 100 100 100 100 100 100 100 100 100
100 100 65 5 53 4 21 100 38 5 76 70 5 0 0 0 0 0 0 0 0 0 0 4 5 5 5 5 5 19 54 70 91 100 100 100 100 100 100 100 100 100 100 100
100 100 100 86 7 3 5 5 17 6 98 3 0 0 0 0 0 0 0 0 0 0 2 0 5 5 5 12 38 79 84 93 100 100 100 100 100 100 100 100 100 100 95 99
100 100 100 71 5 9 67 79 9 5 44 2 0 0 0 0 4 0 1 1 2 0 0 5 5 5 11 5 40 38 89 100 98 52 96 100 100 100 99 100 100 100 100 100
100 100 100 98 3 80 93 99 89 55 5 5 5 5 5 4 5 5 1 0 0 3 5 5 5 5 5 15 35 63 48 100 100 100 100 96 58 78 73 96 90 94 100 100
100 100 100 84 22 96 100 100 100 100 5 5 5 5 5 5 5 5 5 5 5 5 5 5 5 5 8 13 12 92 97 100 100 100 81 85 52 18 82 72 89 100 100 100
100 100 100 83 78 100 100 89 100 100 100 100 99 39 12 5 5 5 16 48 66 14 5 5 5 6 24 95 100 100 100 100 98 90 84 60 6 52 37 33 42 59 99 100
62 89 100 100 100 100 100 71 100 100 100 100 100 100 76 6 6 14 24 25 7 12 28 39 64 69 97 100 100 100 99 86 99 72 23 5 11 15 53 58 96 100 97 7
92 100 100 100 100 100 100 100 100 100 100 100 100 100 100 100 90 50 45 80 94 58 54 94 96 100 100 100 100 93 97 72 20 5 5 5 8 43 41 41 82 49 56 92

GFSCGP_prec_cloud_057.txt.gz
Cloud_Cover
0 0 0 0 0 0 5 2 90 96 100 97 99 92 100 100 100 100 100 100 100 32 100 100 100 100 100 1 5 5 73 99 100 100 100 100 100 100 96 96 100 100 100 100
0 0 0 0 0 0 4 12 84 100 85 96 62 100 100 100 100 100 100 100 100 45 64 94 100 38 10 9 97 48 51 14 30 30 19 13 23 83 84 95 89 98 95 77
0 0 0 0 0 0 5 58 66 18 69 90 94 100 100 100 100 100 61 64 86 100 94 97 100 100 100 100 100 100 99 11 5 16 26 51 34 19 41 55 100 47 62 50
0 0 0 0 0 0 5 6 28 6 77 92 100 100 100 100 100 99 100 97 82 96 95 74 61 100 100 100 100 100 100 95 76 83 100 100 100 100 100 70 91 86 87 100
0 0 0 0 0 0 0 5 5 25 81 100 100 100 100 100 100 98 82 98 99 100 100 100 100 100 100 100 100 100 98 67 70 59 31 93 100 100 100 100 100 100 98 76
0 0 0 0 0 0 0 5 6 57 100 98 100 100 87 65 98 100 99 100 100 96 100 77 79 96 100 95 56 86 98 96 100 100 85 86 100 98 100 97 100 100 90 68
4 0 0 0 0 0 5 5 6 38 99 95 86 100 95 99 100 100 100 96 100 100 61 90 99 96 100 100 100 92 66 26 29 38 64 99 100 100 100 100 100 100 100 99
2 0 0 0 0 0 0 4 5 5 100 100 88 100 98 100 98 99 100 100 100 100 96 47 48 97 43 59 12 9 24 90 100 58 95 100 100 100 100 100 100 100 100 95
0 0 0 0 4 0 0 5 5 5 75 100 100 100 13 65 96 99 100 100 100 100 76 54 75 37 5 29 17 5 5 36 32 57 77 98 100 100 100 100 100 100 96 85
0 0 0 0 1 2 1 0 4 5 7 92 100 100 100 74 41 78 100 100 100 100 100 88 49 5 5 5 5 5 5 5 14 55 83 99 100 100 100 100 100 100 13 80
2 0 0 0 5 5 5 5 2 45 52 82 100 100 100 96 96 96 63 89 100 100 100 100 58 5 2 67 70 3 0 0 16 63 76 97 100 100 100 100 100 96 99 100
5 5 0 0 0 5 5 5 0 5 68 100 100 100 100 100 100 100 100 100 100 100 100 96 27 5 5 42 8 1 7 19 44 96 100 100 100 100 100 100 100 100 100 100
5 5 5 0 0 0 4 5 3 25 5 58 100 100 40 98 100 66 35 62 99 100 94 69 6 5 1 3 12 51 100 100 100 100 100 100 100 100 100 100 100 100 100 100
21 5 5 3 0 0 0 0 5 2 1 5 98 81 95 48 72 48 16 5 30 20 5 3 0 5 4 14 58 95 100 100 100 100 100 100 100 100 100 100 100 96 89 100
66 67 5 2 4 2 0 0 2 5 4 1 79 83 54 43 81 31 12 5 4 2 0 0 0 0 5 4 30 68 100 100 100 100 100 100 100 100 100 100 100 84 79 100
100 8 5 5 5 5 5 1 3 4 5 0 3 12 29 92 49 34 5 5 1 0 1 5 2 2 5 14 42 46 38 34 63 74 100 100 100 100 84 99 50 100 100 100
97 84 89 27 5 5 98 0 0 5 4 1 1 4 5 78 99 98 44 42 5 5 5 2 2 17 35 39 24 54 59 41 27 29 46 53 83 100 87 92 100 100 100 100
100 23 98 34 53 33 14 1 0 5 5 5 7 52 31 35 78 90 66 1 2 1 2 1 0 4 14 20 18 21 18 22 50 98 92 99 92 100 100 100 100 100 100 100
82 100 100 94 54 98 100 3 0 0 43 4 6 11 31 99 91 49 26 7 4 4 4 5 0 5 5 5 5 5 9 24 94 99 100 61 99 100 100 100 100 100 100 100
100 100 98 95 9 83 100 100 5 0 97 2 0 4 6 6 5 15 31 5 5 5 5 5 5 5 5 5 5 5 58 94 100 85 74 96 98 100 100 100 96 81 90 76
100 100 100 100 42 80 100 100 77 2 40 70 5 5 49 81 8 6 5 5 5 5 5 5 5 5 5 5 5 5 41 62 58 92 100 99 99 86 49 5 5 7 27 35
100 100 100 100 88 99 92 23 44 14 83 30 33 46 98 100 89 13 5 5 5 5 5 5 5 5 5 5 5 5 5 5 12 55 96 82 23 5 49 36 39 45 26 58
100 100 100 97 100 97 88 91 6 51 6 100 68 91 100 100 100 100 95 52 39 5 5 8 5 5 5 5 5 5 52 68 68 58 16 5 5 5 38 40 47 56 36 5
100 100 99 92 87 100 100 100 17 7 60 100 54 100 100 100 100 100 100 100 79 19 5 5 12 5 5 5 5 5 72 100 64 5 8 34 26 10 17 61 44 11 5 5
25 83 96 98 100 100 100 91 10 14 94 47 67 100 100 100 100 100 87 100 98 98 63 47 38 17 50 71 99 99 100 64 5 13 26 5 30 23 26 5 5 5 5 5
5 73 100 100 100 100 100 58 14 55 21 5 78 100 100 100 100 35 29 16 16 5 6 5 35 100 100 100 100 80 19 27 57 56 42 5 18 18 11 18 55 39 44 54

GFSCGP_prec_cloud_063.txt.gz
Cloud_Cover
35 25 100 96 100 5 0 100 100 90 53 79 100 100 100 100 97 37 50 100 76 94 94 17 88 100 100 100 100 100 100 97 100 100 100 100 100 100 100 100 100 100 100 100
5 96 100 5 5 0 0 100 99 89 18 75 96 70 100 91 90 5 48 6 81 56 74 7 99 100 100 100 94 100 100 31 61 100 100 100 100 98 100 100 100 100 100 100
55 100 100 76 8 1 2 81 100 80 100 97 96 22 100 63 100 44 15 86 100 82 34 81 92 100 100 99 91 43 96 34 87 93 35 38 100 100 100 100 100 100 100 100
100 100 100 100 78 18 98 53 18 12 16 100 100 80 100 100 100 37 100 99 100 100 100 29 100 68 100 100 100 100 100 100 96 100 100 98 80 78 45 99 93 100 100 100
100 100 100 100 23 34 58 61 5 25 97 99 100 73 97 28 36 97 32 93 17 40 98 98 36 7 26 100 100 100 100 79 100 100 100 26 8 5 38 47 56 95 100 100
100 100 100 100 72 4 10 5 8 43 95 71 100 100 100 100 99 100 100 99 44 100 100 100 100 100 98 40 81 79 38 11 14 9 6 5 55 5 5 5 62 100 100 100
18 100 100 100 17 5 4 11 100 96 96 19 97 74 100 98 76 35 91 100 60 88 100 100 98 100 100 99 92 62 35 35 56 57 18 18 26 48 46 58 98 100 100 100
98 100 100 100 4 58 56 75 81 100 96 100 15 32 94 55 5 12 5 8 64 12 100 100 94 75 67 98 100 80 96 100 80 71 23 54 60 32 32 48 100 100 100 100
100 100 100 100 4 10 99 31 80 100 5 2 15 37 98 18 14 41 100 83 5 79 11 56 96 99 100 99 91 25 30 95 96 94 99 100 100 93 91 68 100 100 100 100
100 100 100 100 4 5 50 88 39 5 60 60 99 79 100 67 51 48 22 8 5 8 5 5 35 71 51 16 15 21 52 78 90 83 90 86 99 100 100 100 100 100 100 100
100 100 100 75 4 6 5 55 56 95 82 98 83 90 91 4 5 40 14 5 77 5 54 35 92 98 13 7 66 43 27 84 91 36 89 100 94 97 100 100 100 100 100 100
97 100 100 100 16 18 100 62 98 100 82 31 38 6 98 6 6 6 5 5 20 25 54 80 6 65 92 50 6 16 55 66 55 94 95 100 98 100 100 100 100 100 100 100
46 99 100 100 95 27 58 98 100 88 67 93 47 12 100 24 3 54 62 21 8 22 12 8 5 5 5 10 48 76 5 18 29 43 86 80 100 100 100 100 100 100 100 100
36 100 100 100 100 16 100 96 57 92 83 50 11 77 100 79 93 36 43 99 100 17 7 36 50 11 28 7 32 17 40 51 71 82 94 100 100 100 100 100 100 100 100 100
30 68 100 100 95 99 100 100 100 62 79 86 6 95 100 95 35 92 74 17 53 100 95 98 97 94 87 80 59 79 100 100 100 100 100 100 100 100 100 100 100 100 100 100
100 100 100 100 79 87 100 100 100 25 31 5 5 5 100 24 14 5 3 8 76 100 100 100 100 100 100 74 96 100 100 100 100 100 100 100 100 100 100 100 100 100 100 100
100 100 100 100 92 59 98 100 64 8 5 5 5 5 71 96 61 7 0 4 5 10 36 84 100 100 64 98 100 100 98 100 100 100 100 100 100 100 100 100 100 95 68 89
100 100 84 100 61 59 100 100 16 95 5 5 5 5 18 24 5 3 0 0 16 100 83 84 100 100 100 100 83 79 81 79 75 74 79 97 82 56 51 61 57 48 80 100
100 100 94 100 93 100 100 100 100 100 48 5 6 12 100 30 5 0 5 5 1 22 94 100 100 100 100 47 52 86 78 56 6 5 27 38 54 60 59 26 49 54 98 100
100 100 100 99 50 99 100 100 81 5 98 4 24 27 6 5 5 5 5 5 4 5 42 100 100 92 32 7 5 5 4 5 8 32 57 84 94 100 96 67 76 62 88 100
82 86 100 100 69 100 100 100 98 58 100 53 11 34 5 5 37 6 5 5 5 6 68 100 100 100 100 100 97 41 13 32 43 71 90 78 88 98 72 76 100 100 100 100
100 100 82 100 96 100 100 100 100 100 99 47 4 5 5 31 26 11 5 5 25 22 15 30 100 100 85 100 100 100 90 88 100 73 95 98 99 100 99 99 100 100 100 100
100 81 100 100 100 100 100 100 100 100 100 20 47 9 22 64 89 84 5 5 5 5 1 48 100 100 93 57 100 100 100 99 100 100 98 100 100 100 92 92 100 100 100 100
100 100 100 100 100 100 100 100 100 100 100 12 91 40 63 34 97 70 10 14 5 5 0 4 11 100 100 61 60 95 99 99 89 100 100 100 100 100 100 94 48 72 93 99
100 100 100 100 100 100 100 100 100 100 100 98 59 8 6 56 42 39 8 5 5 5 3 5 16 100 100 100 78 48 52 100 100 100 100 66 59 66 100 93 100 100 100 77
100 100 100 100 100 100 100 100 100 93 100 100 100 65 5 5 6 45 5 5 19 24 8 6 5 20 100 100 100 100 100 100 100 99 94 84 98 100 100 100 100 100 98 51

GFSCGP_prec_cloud_066.txt.gz
Cloud_Cover
47 100 99 5 68 75 15 5 11 100 49 26 77 27 21 25 100 80 40 62 100 100 100 100 76 40 100 100 100 100 100 100 100 100 100 100 100 100 100 100 100 100 100 100
97 100 54 5 97 93 100 19 3 100 51 4 84 100 100 9 10 81 8 52 100 15 88 79 100 34 12 32 100 96 89 86 82 100 100 100 100 100 100 100 100 100 100 100
100 92 85 7 100 100 100 8 32 48 78 59 9 100 100 92 100 93 53 5 32 100 55 27 1 9 75 100 98 5 17 83 96 50 81 100 100 100 100 100 100 100 100 100
100 100 93 52 100 100 100 3 18 99 90 92 58 95 94 100 94 100 14 77 22 70 12 48 5 97 64 79 100 100 55 2 0 82 90 1 14 15 30 6 33 99 100 100
100 94 32 75 100 100 100 18 46 5 5 24 65 86 100 31 77 56 13 85 38 100 100 100 100 14 99 100 100 49 85 92 90 68 98 93 9 7 9 4 4 16 59 16
100 72 46 100 100 100 100 32 3 5 5 4 49 83 80 18 72 100 79 63 87 88 100 100 100 95 53 98 100 100 100 100 100 96 5 52 83 14 5 7 17 16 69 87
100 100 100 98 100 100 100 34 4 42 84 4 99 42 100 84 74 96 92 99 100 100 100 100 86 95 95 60 85 80 100 100 100 100 81 49 45 6 6 20 16 49 97 100
100 56 100 100 100 100 100 15 5 68 100 66 86 84 98 52 100 26 5 5 43 88 5 68 100 100 53 49 44 27 98 99 85 17 47 97 100 70 6 5 4 5 5 67
100 100 100 100 100 100 100 89 13 100 92 99 89 84 76 15 5 5 5 20 23 31 5 5 5 85 98 100 100 80 56 7 5 5 40 11 92 7 99 46 7 10 71 8
93 100 100 100 100 100 100 51 48 82 99 92 8 6 100 54 56 3 6 42 18 72 52 5 5 5 5 5 21 26 5 5 5 5 5 5 5 5 5 10 38 94 100 98
100 100 95 100 100 100 100 19 6 55 79 43 4 87 99 100 55 4 1 5 10 80 18 38 42 50 7 41 10 5 39 5 5 5 6 5 5 6 85 95 100 94 100 100
100 100 100 100 100 100 100 25 6 50 45 3 13 86 73 84 84 16 0 0 1 5 5 5 7 21 36 85 95 100 88 3 4 43 100 99 100 97 100 78 76 100 100 100
100 100 100 100 100 100 100 99 39 5 5 24 40 15 4 6 5 2 0 0 5 3 5 4 5 5 46 47 68 99 100 67 97 100 91 98 100 99 83 99 100 100 100 100
100 100 97 60 100 100 100 96 93 61 95 98 100 4 34 69 59 41 2 53 82 41 0 5 98 84 10 5 5 5 6 28 6 45 87 100 100 100 100 100 100 100 100 100
100 100 100 27 100 96 100 100 36 100 100 100 100 19 0 89 95 70 100 15 9 97 4 5 3 2 5 90 61 15 17 16 42 100 100 100 100 100 100 100 100 100 100 100
100 100 97 92 100 100 100 100 43 99 100 100 99 62 6 80 66 29 96 4 0 40 4 2 4 0 1 94 100 100 100 97 92 77 99 100 100 100 100 100 100 100 100 100
100 100 100 92 100 100 100 100 93 100 100 100 80 14 5 10 97 86 96 63 0 0 0 0 4 1 4 55 100 100 100 100 99 98 100 100 100 100 100 100 100 100 100 100
100 100 100 100 100 45 98 100 17 8 97 31 29 88 40 22 25 75 32 46 0 0 0 0 1 12 3 6 72 96 100 100 100 100 100 100 100 100 100 100 100 100 64 15
100 100 100 100 100 91 100 100 98 53 67 22 88 100 100 68 71 5 9 1 5 1 0 0 0 4 12 71 89 98 92 95 85 79 97 67 46 72 100 68 10 5 65 100
100 100 100 100 100 100 100 100 100 100 86 100 100 98 60 88 65 62 55 5 5 5 4 5 5 5 5 6 9 55 100 70 45 63 50 100 100 99 72 90 33 81 87 36
100 100 100 100 100 100 100 100 100 28 65 100 57 60 66 100 20 25 5 5 5 5 5 5 5 5 5 0 4 82 100 64 44 45 100 100 87 75 49 78 100 64 78 87
100 100 100 100 100 90 100 100 96 99 100 26 23 48 99 100 99 10 5 5 5 5 5 5 5 5 5 5 5 5 37 57 79 96 58 91 93 100 89 98 100 100 100 100
100 100 100 100 100 100 100 100 100 100 100 98 99 100 100 100 100 5 5 5 5 5 5 5 5 5 5 5 5 5 5 64 100 94 85 94 79 77 100 100 100 100 100 100
100 100 100 100 100 100 100 100 100 100 100 68 82 71 100 100 93 8 5 5 5 5 5 5 6 28 5 5 5 5 7 19 94 100 100 100 100 100 100 100 100 100 100 100
100 100 100 100 100 100 100 100 100 100 100 100 100 100 100 78 100 78 76 76 23 5 5 5 5 37 5 5 5 7 50 45 38 94 100 90 85 76 63 85 86 84 100 84
74 100 100 99 100 100 100 100 99 100 100 100 100 100 100 100 62 15 26 100 38 39 6 7 78 91 100 63 42 5 14 43 18 29 39 61 86 93 75 67 36 49 98 94

GFSCGP_prec_cloud_069.txt.gz
Cloud_Cover
39 100 29 10 100 13 5 11 100 100 51 96 21 31 19 96 97 100 100 100 100 87 93 91 98 81 100 100 100 100 100 100 100 100 100 100 100 100 100 100 100 100 100 100
100 100 52 5 88 14 23 100 100 99 3 23 4 0 5 24 65 100 78 58 66 100 100 59 43 90 100 69 89 89 100 100 100 100 100 100 100 100 100 100 100 100 100 100
100 100 16 87 96 60 97 79 100 100 6 5 3 3 5 5 55 44 80 5 1 65 98 98 98 100 100 88 100 100 100 100 100 100 100 100 100 100 100 100 100 100 100 100
97 100 30 98 100 22 57 100 100 100 11 0 5 13 65 26 7 5 3 63 4 0 8 100 80 77 100 86 42 30 100 100 100 100 100 100 100 100 100 100 100 100 100 100
100 100 82 100 100 84 79 100 100 100 41 0 1 2 96 5 4 7 19 41 4 4 22 79 100 30 99 48 64 5 81 86 99 100 100 100 100 100 100 100 100 100 100 100
100 100 65 100 100 45 100 100 100 100 37 0 2 5 90 69 5 32 22 5 12 5 21 74 100 100 100 99 76 100 100 72 55 78 50 25 99 90 45 77 5 3 16 76
100 100 93 100 99 96 100 100 100 100 48 1 55 74 5 62 44 40 5 5 5 5 4 60 60 56 93 29 100 100 87 100 100 100 100 32 5 7 0 1 5 5 5 67
100 100 100 100 100 100 100 100 100 100 40 33 100 76 1 3 16 7 5 26 5 5 5 5 5 1 2 5 4 22 98 97 48 5 89 100 33 5 5 5 4 5 5 60
30 100 100 92 100 54 100 100 100 100 53 100 89 100 11 9 11 5 2 3 5 5 5 56 10 48 12 18 5 5 0 0 1 1 4 5 43 5 5 25 14 98 39 84
22 59 100 100 100 72 100 100 100 100 69 61 100 99 75 83 60 4 0 0 2 1 18 65 90 91 11 5 5 5 5 5 5 5 10 12 5 46 70 90 73 100 100 100
80 85 98 98 83 100 100 100 100 100 98 18 100 67 70 52 72 25 1 0 5 0 2 5 5 5 5 5 5 5 4 4 2 67 99 89 78 82 100 100 100 100 100 100
86 100 100 100 100 100 100 100 100 100 96 87 69 66 5 8 12 38 52 5 0 0 0 0 0 2 7 5 92 100 1 98 100 100 100 100 100 100 100 100 100 100 100 100
100 79 100 96 98 100 96 99 100 100 100 100 52 8 95 100 97 14 13 2 1 0 0 0 0 0 0 2 4 64 98 100 100 100 100 100 100 98 100 100 100 100 100 100
100 91 96 5 77 100 100 100 100 100 100 99 76 16 95 100 55 62 50 56 16 26 0 0 0 0 0 0 47 10 61 100 100 100 100 100 100 100 100 100 100 100 100 100
99 42 96 33 100 100 100 100 98 100 100 99 6 73 5 100 91 81 10 43 71 4 3 0 0 0 2 9 83 98 100 100 98 100 100 100 100 100 100 100 100 100 100 100
94 80 100 100 100 100 100 100 100 100 100 100 100 75 99 100 100 10 26 49 70 48 18 4 0 0 1 7 47 100 100 100 100 100 100 100 100 100 100 100 100 100 100 100
81 100 100 100 100 100 100 87 100 100 100 100 32 57 5 100 97 84 100 21 11 1 3 2 0 0 0 17 37 72 86 99 100 100 100 100 100 100 100 100 98 100 100 100
30 100 100 100 100 63 58 100 100 100 100 100 100 89 99 100 100 100 90 85 80 35 14 20 0 0 7 17 4 10 22 40 69 99 100 100 89 100 100 100 100 100 90 100
62 85 100 100 100 98 100 100 100 100 100 100 100 88 98 100 42 100 100 79 34 5 0 5 5 0 0 3 5 5 0 6 49 88 94 100 100 100 100 100 89 94 34 80
100 100 100 100 100 100 99 100 100 100 100 100 100 100 100 81 95 100 100 73 16 33 7 5 5 5 5 2 4 5 72 100 100 100 100 98 79 56 47 35 21 7 53 86
99 98 100 100 100 100 100 100 100 100 100 100 100 100 88 11 95 100 100 100 96 6 6 5 5 5 5 5 5 5 16 17 4 10 6 83 79 51 98 45 7 21 74 99
75 100 100 100 87 100 100 100 100 100 100 100 100 100 7 47 70 99 100 100 83 100 16 5 5 5 5 5 5 4 0 0 5 5 30 74 2 5 50 98 100 100 100 100
9 99 100 100 100 100 100 100 100 100 100 100 100 99 17 6 98 95 100 100 100 100 6 5 44 86 30 5 5 5 0 2 5 5 20 4 0 1 5 97 100 100 100 60
13 100 100 100 100 100 100 100 100 100 96 97 100 93 51 53 100 100 100 99 93 88 26 6 61 74 22 35 6 5 5 6 15 28 71 8 5 3 11 83 100 95 86 100
100 100 100 100 100 100 100 100 100 100 100 100 74 34 99 7 22 100 100 100 100 100 99 24 71 44 60 41 42 50 33 26 99 100 31 8 5 5 8 52 65 100 93 99
100 100 100 100 100 100 100 100 100 100 100 100 93 84 91 52 10 97 100 98 100 100 99 100 100 84 88 86 100 100 100 100 100 100 67 28 60 35 57 98 100 100 100 100

GFSCGP_prec_cloud_072.txt.gz
Cloud_Cover
5 26 100 49 100 18 5 5 5 5 68 100 100 14 0 0 5 5 58 40 88 90 84 31 44 63 100 86 100 100 100 100 100 100 100 100 100 100 100 100 100 100 100 100
19 88 47 7 100 20 5 6 19 5 44 100 100 20 0 3 1 22 58 62 91 80 58 56 16 32 100 100 100 100 100 100 97 100 100 100 100 100 100 100 90 100 100 100
16 16 29 100 100 87 35 67 29 5 100 100 80 13 0 0 3 5 6 95 78 4 36 30 42 21 100 100 98 92 99 69 94 100 100 100 100 100 100 100 100 100 100 97
13 63 60 24 100 62 68 61 58 81 100 100 42 1 0 1 5 4 0 32 20 23 0 0 90 53 100 50 100 100 100 100 100 100 100 100 100 100 100 100 100 100 100 100
64 100 5 26 100 98 100 74 85 100 83 72 21 2 0 5 0 0 6 100 28 5 5 16 100 100 82 100 100 100 47 99 100 100 100 100 100 100 100 100 100 100 100 100
24 100 100 100 96 100 100 73 97 59 51 17 12 28 0 5 3 0 0 5 64 5 7 4 38 93 74 76 89 100 100 100 100 100 100 100 100 98 100 100 100 100 100 100
69 40 12 95 100 100 100 98 95 100 44 100 95 18 3 2 0 0 4 5 66 10 5 6 34 9 91 13 7 6 48 72 100 100 88 100 98 100 91 58 80 96 100 100
100 100 58 99 100 100 100 92 100 100 92 71 100 45 0 0 0 0 0 0 5 5 15 5 1 1 9 11 8 78 84 85 100 63 67 100 100 55 17 43 95 61 35 83
6 55 33 60 100 100 100 94 86 16 100 56 100 60 5 0 0 0 0 0 0 0 5 5 1 2 1 5 52 26 6 21 70 64 88 40 5 5 78 8 13 11 15 71
3 4 46 82 100 100 100 99 11 97 100 12 100 97 5 7 5 0 0 2 3 0 5 4 4 28 28 0 0 3 20 5 1 2 5 24 44 32 6 70 100 100 100 100
4 1 70 100 54 67 100 100 100 100 100 100 92 100 5 6 5 5 3 0 0 0 0 0 2 53 86 21 4 1 28 20 5 70 99 100 100 100 100 100 100 100 100 100
0 23 6 51 100 100 100 100 98 99 100 100 100 100 100 75 23 100 6 5 0 0 0 0 0 0 0 0 0 0 5 45 100 100 100 100 100 100 100 100 100 100 100 100
40 9 68 88 56 97 100 97 100 98 80 100 100 100 100 74 5 93 100 5 3 3 1 0 0 0 0 0 0 0 1 97 100 100 100 100 100 100 100 100 100 100 100 100
85 50 100 58 100 100 100 100 100 100 100 100 100 92 100 98 68 21 100 98 94 95 3 0 0 0 0 0 0 0 0 98 100 100 100 100 100 100 100 100 100 100 100 100
53 98 100 100 100 100 100 100 100 100 100 70 100 82 100 65 98 92 100 100 63 62 38 4 0 3 50 39 35 36 57 43 100 100 100 100 100 100 100 100 100 100 100 100
66 100 100 100 100 100 92 100 100 100 100 100 100 100 100 100 70 24 87 100 18 99 5 3 4 0 55 100 100 100 100 100 94 100 100 100 100 100 100 100 100 100 100 100
40 100 100 100 100 100 96 100 96 72 99 100 100 100 100 100 99 7 40 99 70 13 6 10 15 5 42 100 100 100 100 100 100 100 100 100 100 100 100 100 100 100 100 100
66 100 100 100 100 100 92 100 100 100 100 100 100 100 100 100 95 69 94 89 100 100 88 59 92 20 92 100 100 100 100 100 100 100 100 100 100 100 100 100 100 100 100 100
100 100 100 100 100 100 100 100 100 100 100 100 100 100 100 100 96 76 11 12 14 86 78 32 5 29 80 100 100 100 100 100 100 100 100 100 100 100 100 100 100 100 100 87
100 100 100 100 100 100 100 100 100 100 76 100 100 100 100 96 13 98 100 100 98 85 48 19 8 23 26 46 42 92 100 100 100 100 100 100 100 100 100 100 100 86 18 66
94 100 98 99 100 100 100 100 100 100 58 100 100 100 100 90 100 100 100 100 100 10 73 74 6 99 100 30 5 15 50 91 87 100 100 100 100 100 95 69 52 24 42 91
91 100 70 68 57 100 100 100 100 99 63 100 100 100 100 57 97 100 100 100 100 40 95 71 7 25 73 46 66 81 36 55 100 100 100 88 42 14 6 7 5 20 10 0
97 49 100 98 100 100 100 100 100 100 88 100 100 100 100 100 100 100 100 100 82 97 100 88 15 26 78 96 100 100 100 82 10 11 5 56 49 6 41 46 5 26 47 7
100 100 100 74 100 100 100 100 100 100 100 100 100 100 100 100 100 100 100 100 100 100 100 96 91 82 97 100 100 100 100 100 22 26 81 100 48 41 50 68 73 97 28 21
100 100 100 66 100 100 100 100 100 100 100 100 98 100 100 90 87 100 100 100 100 98 63 82 99 100 100 100 100 100 100 100 100 76 100 100 100 100 85 100 100 100 100 84
81 88 60 94 100 100 96 100 100 100 100 100 100 100 100 94 90 100 100 100 82 94 93 97 100 100 100 100 100 82 54 95 100 98 100 100 100 100 100 92 93 100 100 100

GFSCGP_prec_cloud_075.txt.gz
Cloud_Cover
64 11 100 5 5 5 5 33 72 78 56 1 4 5 98 81 0 3 0 1 16 83 12 97 100 65 100 100 100 100 100 100 100 100 100 100 100 100 100 100 100 100 100 100
33 97 82 4 5 6 93 12 62 21 5 5 9 77 91 26 0 2 0 0 3 56 100 96 95 100 100 100 100 100 100 100 100 100 100 100 100 100 100 100 100 100 100 100
8 49 7 27 8 26 100 95 37 61 5 5 5 7 7 32 0 0 1 0 3 37 100 81 100 100 100 100 100 100 100 100 100 100 100 100 100 100 100 100 100 100 100 100
66 77 100 8 8 82 7 100 77 5 5 5 6 5 5 44 0 0 3 0 4 6 20 3 38 94 94 100 100 100 100 100 100 100 100 100 100 100 100 100 100 100 100 100
99 100 100 18 100 54 100 48 81 7 10 16 5 10 6 71 0 0 0 0 0 3 0 1 48 100 96 100 100 100 100 100 100 100 100 100 100 100 100 100 100 100 100 100
77 100 76 99 100 73 100 100 86 67 51 74 31 6 40 96 0 3 0 0 0 5 43 11 5 100 91 93 88 100 100 100 100 100 100 100 100 100 100 100 100 100 100 100
100 100 100 14 50 69 62 100 100 100 83 92 86 14 100 100 1 31 2 0 0 0 5 5 5 18 90 6 75 13 6 9 11 34 100 100 100 100 100 47 68 45 80 62
100 100 100 100 100 36 30 60 100 100 100 29 96 74 100 98 5 0 5 0 3 0 5 4 5 5 10 9 5 4 5 5 5 5 16 26 84 6 5 10 6 10 19 64
67 61 100 100 96 100 40 7 64 98 100 45 20 98 100 100 41 4 2 8 5 0 0 5 5 5 5 1 0 5 5 5 5 1 1 5 5 5 5 68 38 91 91 99
100 100 100 100 34 93 100 92 80 9 98 100 65 90 100 100 98 23 17 8 1 5 0 0 0 0 5 5 4 1 6 10 14 18 7 5 24 64 91 99 79 95 99 75
12 52 96 72 11 96 92 39 25 58 100 100 54 97 100 100 100 37 46 20 6 4 1 0 0 0 0 3 60 74 5 16 98 97 85 86 66 100 100 100 100 100 100 100
2 4 44 11 5 93 100 44 22 95 100 100 63 93 100 100 100 100 63 40 94 7 4 0 0 0 0 0 0 0 5 13 92 100 100 100 100 100 100 100 100 100 100 100
53 4 0 81 26 5 83 100 88 100 54 96 78 94 80 100 100 100 64 5 97 66 5 0 0 0 0 0 0 0 0 0 72 100 100 100 100 100 100 100 100 100 100 100
99 34 0 0 23 98 100 97 100 100 36 100 98 100 100 100 100 100 99 6 66 100 14 0 1 2 0 0 0 3 0 0 0 65 100 100 100 100 94 100 100 100 100 100
98 54 25 1 56 100 88 100 100 97 24 52 100 100 50 100 100 100 97 61 15 87 48 1 0 2 16 10 0 0 0 0 0 0 43 100 100 100 100 100 100 100 100 100
100 56 100 99 100 100 100 75 99 100 23 5 53 100 34 19 100 100 100 100 87 100 97 6 87 52 0 0 5 60 74 26 0 12 75 100 100 100 100 100 100 100 100 100
100 100 75 73 100 100 87 100 100 100 68 94 92 100 100 94 55 100 100 100 100 60 96 100 86 100 21 9 50 78 100 93 56 57 100 100 100 100 100 100 100 100 100 100
100 100 100 100 100 97 60 100 100 100 100 100 100 100 100 100 72 100 100 100 100 60 62 90 100 100 46 62 100 100 100 100 100 100 100 100 100 100 100 100 100 100 100 100
100 100 100 100 100 52 100 100 100 100 100 100 100 100 100 84 81 100 100 100 100 63 26 27 5 79 99 94 100 100 100 100 100 100 100 100 100 100 100 100 100 100 100 100
100 100 95 100 100 60 100 100 100 100 100 100 100 72 100 89 100 87 100 100 100 58 24 34 45 86 100 100 100 100 100 100 100 100 100 100 100 100 100 100 100 100 100 100
94 100 38 100 100 88 100 100 100 92 100 100 100 69 100 100 100 100 87 100 100 100 100 100 67 100 100 100 100 100 100 100 100 100 100 100 100 100 100 100 100 100 100 100
12 100 100 100 94 79 100 100 100 95 100 100 100 100 100 100 85 100 92 100 100 100 100 100 100 100 100 100 98 100 100 100 100 100 100 100 100 100 100 100 100 100 100 100
10 100 100 100 96 100 100 100 100 100 100 100 100 100 100 100 100 100 81 100 100 100 100 100 100 100 100 100 100 100 97 94 98 100 100 100 100 100 100 100 100 100 100 100
8 100 100 98 99 100 100 100 100 100 100 100 100 100 100 100 100 100 100 100 100 100 100 100 100 100 100 100 100 99 93 64 100 100 100 100 100 100 94 94 89 96 98 100
0 37 100 100 100 100 100 100 100 100 100 100 100 100 100 100 96 96 100 100 100 100 100 100 100 100 100 100 100 100 69 59 57 35 88 100 100 100 99 100 100 100 100 100
1 6 65 7 94 77 72 100 100 100 100 100 100 100 100 100 100 100 100 97 99 100 100 100 100 100 100 100 100 100 100 100 100 99 100 100 100 100 100 100 100 100 100 100

GFSCGP_prec_cloud_078.txt.gz
Cloud_Cover
100 2 96 100 5 1 19 93 91 30 5 5 4 5 5 3 5 0 5 10 34 24 43 100 100 100 100 100 100 100 100 100 100 100 100 100 100 100 100 100 100 100 100 100
77 100 100 89 5 91 100 37 41 6 39 5 1 34 7 4 2 0 1 0 1 27 94 100 100 100 99 100 100 100 100 100 100 100 100 100 100 100 100 100 100 100 100 100
100 100 10 64 9 5 38 71 25 53 27 27 3 52 7 5 0 3 2 5 0 10 91 100 98 100 100 100 100 100 100 100 100 100 100 100 100 100 100 100 100 100 100 100
100 98 100 100 94 73 49 63 44 100 49 5 2 39 81 5 5 38 1 5 0 4 18 100 100 100 100 100 100 100 100 100 100 100 100 100 100 100 100 100 100 100 100 100
100 100 98 59 93 18 97 52 98 73 81 8 36 43 51 9 5 5 3 5 0 0 12 94 100 100 100 100 100 100 100 100 100 100 100 100 100 100 100 100 100 100 100 100
89 100 94 100 100 94 97 93 90 5 14 25 67 51 82 78 8 40 5 0 0 0 0 1 23 45 99 100 100 100 100 100 100 100 100 100 100 100 100 100 100 100 100 100
100 100 100 100 100 54 59 80 48 4 8 100 79 85 56 100 80 40 10 0 0 0 0 0 5 36 100 85 71 77 96 100 100 100 100 100 100 100 100 100 100 100 100 100
100 99 100 100 100 100 100 30 5 4 70 98 91 97 100 100 100 34 5 0 0 0 0 0 0 5 6 5 57 8 6 88 85 100 100 100 100 100 100 100 100 100 100 100
100 100 100 100 100 100 100 94 100 27 5 65 54 100 100 100 100 44 19 4 0 0 0 0 0 2 5 5 6 39 29 6 60 99 14 57 100 100 99 100 100 100 100 100
100 100 100 100 100 100 93 100 77 5 5 11 96 100 100 68 100 48 35 5 4 5 0 0 0 0 0 3 4 5 31 5 12 6 30 44 8 52 89 98 100 90 100 100
100 100 100 100 58 74 56 5 14 83 62 33 97 100 100 99 100 100 79 32 69 8 0 0 0 0 0 1 1 21 98 100 78 57 47 65 100 100 100 100 100 100 100 92
100 100 100 100 100 94 41 57 97 66 5 12 66 100 100 100 100 88 100 100 100 8 0 3 0 5 0 0 5 5 13 85 100 100 100 100 100 99 99 100 99 100 100 100
86 16 59 99 95 11 5 5 97 98 96 32 43 100 100 100 100 100 100 100 100 98 0 5 3 0 0 0 0 0 0 6 40 98 100 100 100 100 100 100 100 100 100 100
100 100 11 11 99 100 96 99 100 100 80 54 77 100 100 100 100 100 100 100 100 100 59 15 8 5 0 0 0 0 2 0 0 1 58 100 100 100 100 99 95 100 100 100
100 100 11 3 0 0 1 5 100 32 6 4 59 98 100 100 100 100 100 100 100 100 96 72 11 5 2 0 0 0 0 0 0 0 0 28 98 86 100 88 100 100 100 100
100 88 62 5 1 0 0 9 16 5 5 6 12 43 100 100 100 100 100 100 100 100 100 100 47 40 5 73 5 1 0 0 0 0 4 0 4 53 86 100 100 100 100 100
100 100 100 52 5 0 6 0 0 2 3 3 7 98 100 100 100 100 100 100 100 100 100 100 100 94 98 100 67 8 58 9 1 5 14 79 99 100 100 100 100 100 100 100
82 100 100 95 85 20 3 7 75 92 24 14 26 93 100 100 100 99 100 100 100 100 100 100 100 100 81 100 60 98 100 84 82 94 100 100 100 100 100 100 100 100 100 100
100 100 100 100 98 24 5 89 100 93 70 54 52 99 100 100 100 100 100 100 100 100 100 100 100 100 37 42 68 100 100 100 100 100 100 100 100 100 100 100 100 100 100 100
100 100 100 100 100 100 91 53 100 30 54 100 100 100 100 100 100 100 100 100 100 100 100 100 100 100 99 100 100 100 100 100 100 100 100 100 100 100 100 100 100 100 100 100
100 100 100 100 100 70 100 100 100 94 98 100 100 100 100 100 100 100 100 100 100 100 100 100 100 100 100 100 100 100 100 100 100 100 100 100 100 100 100 100 100 100 100 100
100 100 100 100 100 100 100 100 100 99 100 100 100 100 100 100 100 100 100 100 100 100 100 100 100 100 100 100 100 100 100 100 100 100 100 100 100 100 100 100 100 100 100 100
100 100 100 100 72 58 100 100 100 100 100 100 100 100 100 100 100 100 100 100 100 100 100 100 100 100 100 100 100 100 100 100 100 100 100 100 100 100 100 100 100 100 100 100
100 100 72 100 100 100 88 100 100 100 98 100 100 100 100 100 100 100 100 100 100 100 100 100 100 100 100 100 100 100 100 100 100 100 100 100 100 100 100 100 100 100 100 100
65 100 100 17 44 50 32 99 100 100 84 100 100 100 100 100 100 100 100 100 98 100 100 100 100 100 100 100 100 100 99 93 100 100 100 96 98 97 100 100 100 100 100 100
4 7 67 100 96 99 100 100 100 100 95 100 100 100 100 100 100 93 65 100 100 100 100 100 100 100 100 100 100 100 76 99 80 95 100 98 87 98 94 100 100 100 100 100

GFSCGP_prec_cloud_081.txt.gz
Cloud_Cover
100 100 100 100 100 1 0 5 10 44 0 14 63 5 5 4 5 1 0 0 18 76 23 100 95 100 100 100 100 100 100 100 100 100 100 100 100 100 100 100 100 100 100 100
46 100 100 100 97 80 2 5 52 2 1 39 28 85 7 5 4 1 0 5 1 0 76 98 98 100 92 100 100 100 100 100 100 100 100 100 100 100 100 100 100 100 100 100
100 100 100 100 100 89 54 18 93 3 5 1 5 83 13 13 5 0 0 4 0 0 20 90 100 100 100 100 100 100 100 100 100 100 100 100 100 100 100 100 100 100 100 100
100 100 100 100 100 100 78 94 5 5 5 5 9 85 79 26 5 5 4 5 2 1 0 17 100 100 100 100 100 100 100 100 100 100 100 100 100 100 100 100 100 100 100 100
93 100 100 100 100 97 98 5 48 5 76 68 69 28 100 66 5 5 5 5 4 5 0 0 85 100 100 100 100 100 100 100 100 100 100 100 100 100 100 100 100 100 100 100
100 100 100 100 100 100 100 100 100 100 13 100 81 27 100 78 58 5 5 5 5 0 0 0 8 69 100 100 100 100 100 100 100 100 100 100 100 100 100 100 100 100 100 100
100 100 100 100 94 95 95 100 100 17 5 100 100 38 100 90 100 39 5 39 5 3 0 0 9 99 100 100 100 100 100 100 100 100 100 100 100 100 100 100 100 100 100 100
100 100 100 100 99 100 47 47 5 5 6 100 98 88 100 59 100 100 5 97 6 49 6 0 0 1 48 100 100 100 100 100 100 100 100 100 100 100 100 100 100 100 100 100
99 100 100 100 100 100 100 98 89 21 3 16 86 100 100 100 36 100 79 73 7 100 35 10 0 0 0 16 95 100 41 53 91 100 100 100 100 100 100 100 100 100 100 100
100 99 100 100 100 100 90 93 70 5 3 8 100 100 100 94 22 96 100 90 14 73 100 61 2 0 0 0 0 20 16 4 11 34 62 94 100 100 100 100 100 100 100 100
100 100 100 100 100 100 100 100 100 84 70 77 97 100 100 31 82 100 100 99 59 96 100 74 4 2 0 0 0 0 0 2 5 5 5 5 8 12 50 82 57 68 76 96
100 100 100 100 100 100 100 100 100 97 6 7 90 84 100 97 100 100 100 100 93 70 100 100 32 5 0 0 0 0 2 16 5 5 7 85 60 86 93 78 100 96 86 90
96 99 100 100 100 100 100 100 100 82 46 10 70 48 100 100 100 98 100 100 100 52 100 100 67 11 5 0 0 0 0 11 21 69 70 99 100 100 100 100 100 88 18 97
98 100 100 72 100 97 93 100 100 100 94 90 19 95 100 100 100 100 100 100 100 100 100 100 73 40 5 5 5 5 1 0 0 0 42 74 71 84 93 100 100 63 87 47
4 49 87 69 81 75 70 71 77 100 88 11 90 16 81 100 100 100 100 100 100 100 87 100 100 87 91 5 5 5 5 5 3 0 0 0 20 86 98 100 74 100 100 100
75 77 100 50 5 5 5 5 5 5 5 6 100 22 100 100 100 100 100 100 100 100 100 100 100 100 100 100 11 3 5 5 5 5 5 1 0 0 0 18 99 100 100 100
5 80 100 7 6 59 21 0 5 5 4 5 5 21 53 100 100 100 100 100 100 100 100 100 100 100 100 100 100 85 5 5 5 5 8 5 3 2 0 8 94 100 100 100
20 49 100 80 100 100 60 0 0 0 0 0 1 0 2 46 100 67 39 99 100 100 100 100 100 100 100 100 100 97 43 87 11 80 5 13 34 75 84 100 100 100 100 100
2 24 100 100 100 100 100 93 56 5 3 17 5 49 95 27 100 67 100 100 100 100 100 100 100 100 100 100 100 100 100 100 51 82 96 99 99 100 100 100 100 100 100 100
3 90 100 100 100 100 100 100 100 39 10 100 100 43 85 47 100 100 100 79 100 100 100 100 100 100 100 100 93 100 100 98 100 100 100 100 100 100 100 100 100 100 100 100
100 100 100 100 100 100 100 100 100 100 98 100 100 59 61 84 100 100 100 100 100 100 100 100 100 100 100 100 100 100 100 100 100 100 100 100 100 100 100 100 100 100 100 100
100 100 100 100 100 100 100 97 100 100 100 97 100 98 20 100 90 100 100 100 100 100 100 100 100 100 100 100 100 100 100 100 100 100 100 100 100 100 100 100 100 100 100 100
100 100 100 100 100 100 100 100 100 100 100 100 100 100 73 100 100 100 100 100 100 100 100 100 100 100 100 100 100 100 100 100 100 100 100 100 100 100 100 100 100 100 100 100
100 100 100 100 100 100 100 100 100 90 94 100 100 99 25 100 100 100 100 100 100 100 100 100 100 100 100 100 100 100 100 100 100 100 100 100 100 100 100 100 100 100 100 100
97 100 97 76 100 100 100 100 100 90 100 96 70 22 35 100 100 100 100 100 100 100 100 100 100 100 100 100 100 100 100 100 100 100 100 100 100 100 100 100 100 100 100 100
8 46 100 67 100 100 100 100 100 100 98 100 96 11 44 100 100 100 100 100 100 100 100 100 100 100 100 100 100 100 100 100 100 100 100 100 100 100 100 100 100 100 100 100

GFSCGP_prec_cloud_084.txt.gz
Cloud_Cover
100 51 13 100 100 100 100 12 5 46 5 5 45 33 100 3 0 0 0 0 0 0 0 0 48 95 91 83 83 100 100 100 100 100 100 100 100 100 100 100 100 100 100 100
99 89 100 100 100 100 100 100 100 40 3 7 16 46 100 4 0 0 0 0 3 0 0 0 62 90 99 65 87 100 98 99 100 100 100 100 100 100 100 100 100 100 100 100
100 100 100 100 100 100 100 84 100 100 4 15 61 43 82 3 0 0 0 0 5 0 1 0 20 43 68 84 58 100 100 100 100 100 100 100 100 100 100 100 100 100 100 100
100 100 100 100 100 100 100 100 100 100 5 88 80 45 100 2 5 3 0 5 5 5 0 0 0 28 45 93 74 100 100 100 100 100 100 100 100 100 100 100 100 100 100 100
100 100 100 100 100 99 100 100 100 100 5 70 67 15 100 13 5 2 5 3 18 77 2 0 0 0 24 95 100 100 100 100 100 100 100 100 100 100 100 100 100 100 100 100
100 100 100 100 100 100 100 48 100 100 16 20 100 18 99 23 4 2 5 79 5 99 16 2 0 0 2 83 100 100 100 100 100 100 100 100 100 100 100 100 100 100 100 100
100 100 100 100 100 100 100 100 88 97 16 12 100 55 96 100 78 5 17 100 67 98 31 5 0 0 0 35 92 100 100 100 100 100 100 100 100 100 100 100 100 100 100 100
100 100 100 100 100 100 100 96 66 75 100 67 99 96 100 100 5 81 5 82 24 53 85 32 0 0 0 0 1 99 100 100 100 100 100 100 100 100 100 100 100 100 100 100
100 100 100 100 100 100 100 100 100 97 5 5 42 100 100 100 67 24 29 5 70 14 86 82 6 5 1 0 0 24 92 98 99 100 100 100 100 100 100 100 100 100 100 100
100 100 100 100 100 100 100 100 100 23 5 10 94 100 100 100 91 6 70 0 20 63 100 98 99 58 5 0 0 6 5 4 19 80 98 100 100 100 100 100 100 100 100 100
100 100 100 100 100 100 100 100 100 91 10 70 68 97 100 100 100 66 14 5 5 67 100 86 100 100 5 8 0 0 0 0 1 4 42 75 100 100 100 100 100 100 100 100
100 100 100 100 100 100 100 100 100 49 97 14 5 92 100 100 97 10 42 60 5 9 100 100 91 100 57 8 4 0 0 0 0 0 7 11 24 26 79 97 100 100 100 100
100 100 100 100 100 100 100 100 99 96 88 5 79 94 100 100 100 100 100 100 28 5 100 100 100 100 100 19 4 4 0 0 0 0 4 5 4 12 62 100 79 51 94 100
100 100 100 100 100 100 100 100 100 100 22 9 17 51 87 100 100 100 100 100 86 22 70 100 100 100 100 100 6 5 4 0 0 0 0 2 5 49 34 13 53 100 59 71
100 100 100 100 100 95 100 100 100 100 100 87 100 70 100 100 100 99 100 100 98 100 78 96 100 100 100 100 99 5 22 5 1 0 0 0 0 10 90 74 10 7 100 82
99 100 64 7 100 35 5 38 99 100 100 62 100 99 100 100 100 100 100 97 98 100 100 100 97 100 100 100 100 100 100 100 8 5 5 0 0 0 0 0 35 100 96 87
99 80 79 5 57 93 8 5 5 5 14 57 14 100 100 100 100 100 100 100 100 86 100 98 100 100 100 100 100 100 61 17 52 58 41 7 4 0 0 0 0 0 72 100
95 84 86 15 14 10 1 38 70 7 5 5 5 16 73 55 85 100 100 100 70 12 100 69 98 100 100 100 100 100 100 100 100 99 70 36 25 5 5 4 0 20 99 100
21 80 100 26 77 13 35 100 100 100 16 22 5 89 84 5 5 16 60 9 64 74 89 88 100 100 100 100 100 100 100 100 87 100 100 100 37 62 77 39 96 100 94 100
36 90 98 7 90 67 100 100 100 100 50 49 10 35 5 5 5 12 76 8 18 100 32 100 100 100 100 100 100 100 100 58 56 99 100 100 100 100 97 100 100 100 100 100
82 100 51 44 100 94 100 100 100 100 100 100 36 99 100 38 12 63 22 5 5 60 12 51 100 100 100 100 100 100 100 100 84 76 100 100 100 100 100 100 100 100 100 100
100 86 37 95 100 100 100 100 100 100 100 100 100 100 98 100 92 14 5 5 6 36 97 83 100 100 100 100 100 100 100 100 100 100 100 100 100 100 100 100 100 100 100 100
72 100 100 92 100 100 100 100 100 100 100 97 100 96 75 57 8 69 61 5 82 100 100 100 100 100 100 100 100 100 100 100 100 100 100 100 100 100 100 100 100 100 100 100
61 100 86 100 100 100 100 100 100 100 94 81 100 100 97 100 91 15 98 82 100 100 100 100 100 100 100 100 100 100 100 100 100 100 100 100 100 100 100 100 100 100 100 100
60 98 88 100 100 100 100 100 100 100 100 100 100 100 100 79 60 89 100 100 100 100 100 100 100 100 100 100 100 100 100 100 100 100 100 100 100 100 100 100 100 100 100 100
65 24 96 68 100 100 100 100 100 100 100 100 100 100 96 99 92 48 96 100 100 100 100 100 100 100 100 100 100 100 100 100 100 100 100 100 100 100 100 100 100 100 100 100

GFSCGP_prec_cloud_087.txt.gz
Cloud_Cover
25 8 3 20 91 100 100 100 100 100 100 100 48 6 50 81 5 5 5 5 0 0 0 0 0 0 0 27 100 100 99 100 100 100 100 100 100 100 100 100 100 100 100 100
3 0 29 100 100 100 100 92 100 100 100 98 6 45 95 99 15 5 5 5 1 1 0 2 0 0 1 46 100 100 98 85 87 100 100 100 100 100 100 100 100 100 100 100
5 47 90 81 90 100 100 100 100 100 100 100 100 13 65 100 5 5 5 2 2 4 1 5 5 0 36 74 100 100 94 100 94 100 100 100 100 100 100 100 100 100 100 100
29 91 22 99 65 100 100 100 100 100 100 87 92 95 100 100 8 5 19 5 0 5 5 5 5 0 26 51 100 100 100 100 98 91 100 100 100 100 100 100 100 100 100 100
41 98 99 77 90 100 100 100 100 100 100 78 98 100 100 100 5 20 42 5 1 1 7 5 2 0 2 37 100 90 96 96 100 100 100 100 100 100 100 100 100 100 100 100
100 43 82 95 100 100 100 100 100 100 76 8 96 100 100 100 16 94 28 5 5 28 77 5 2 0 0 33 30 100 95 100 100 99 100 100 100 100 100 100 100 100 100 100
100 75 100 100 100 100 100 100 100 100 100 93 100 100 100 100 16 55 10 5 1 88 90 28 6 1 0 7 2 100 99 100 100 100 100 100 100 100 100 100 100 100 100 100
100 100 100 100 100 100 100 100 100 100 100 96 98 84 100 100 97 100 5 4 5 1 32 11 36 0 3 12 0 100 100 100 98 100 100 100 100 100 100 100 100 100 100 100
100 100 100 100 100 100 100 98 100 100 100 100 91 100 100 99 100 100 7 6 20 35 5 78 93 75 5 34 0 1 100 100 100 91 100 100 100 100 100 100 100 100 100 100
100 100 100 100 100 100 100 100 100 90 100 85 94 77 100 100 100 76 5 27 21 77 1 46 27 100 97 100 3 0 6 78 98 100 96 95 100 100 100 100 100 100 100 100
100 100 100 100 100 100 100 100 100 100 100 97 99 100 100 100 95 96 71 22 53 2 5 1 5 33 100 100 87 0 0 4 47 100 100 79 94 100 100 100 100 100 100 100
100 100 100 100 100 100 100 100 100 100 89 100 100 100 100 96 81 100 100 8 5 5 9 5 5 96 100 100 100 54 0 0 1 15 51 100 83 100 100 27 38 100 98 100
100 100 100 100 100 100 100 100 100 100 100 100 100 100 100 94 94 100 90 66 7 4 3 9 5 31 32 98 100 100 41 0 0 0 2 10 75 100 42 88 99 100 58 45
100 100 100 100 100 100 100 97 99 100 100 100 100 100 100 100 97 100 100 99 98 8 64 100 6 6 68 12 100 100 100 85 2 0 0 0 0 4 8 36 82 88 83 74
100 100 100 100 100 100 100 100 100 100 100 92 100 99 100 100 100 95 100 100 100 93 88 50 5 2 88 65 89 100 100 100 65 5 2 0 0 0 7 25 96 100 100 100
100 100 100 100 100 100 100 100 100 100 100 100 100 100 100 100 100 49 100 86 48 99 37 78 77 87 5 20 100 100 100 100 100 85 5 5 0 0 0 0 0 0 21 43
100 100 100 100 100 100 83 100 100 99 86 100 100 100 100 100 100 100 100 100 66 82 45 69 95 79 79 11 40 100 100 100 100 100 100 17 5 5 0 0 0 3 21 14
100 100 100 100 93 70 100 30 5 33 100 100 100 100 100 100 100 100 100 100 99 20 22 32 94 68 100 100 57 10 100 100 100 100 100 100 100 54 4 1 0 0 0 2
95 100 100 100 98 21 22 87 14 5 26 84 42 91 100 100 91 100 100 100 100 100 100 100 62 41 100 93 100 93 60 100 100 100 100 100 100 100 100 42 6 20 41 68
100 100 100 100 100 100 44 23 99 92 98 97 88 59 100 25 97 94 70 100 100 100 99 97 98 100 98 100 100 100 99 100 86 100 100 100 100 100 100 100 100 100 81 99
93 100 79 97 100 74 100 75 100 100 89 49 100 97 74 98 36 54 16 9 58 85 27 5 5 40 5 21 100 97 100 99 99 71 100 100 100 100 100 100 100 100 100 100
97 100 100 98 100 96 32 54 100 100 100 100 100 100 87 49 100 26 5 5 5 5 5 5 3 34 22 8 86 100 100 74 87 100 100 100 100 100 100 100 100 100 100 100
92 98 100 95 76 97 30 89 100 100 100 100 100 100 100 100 100 90 24 5 5 25 50 75 68 98 97 63 43 97 100 100 100 100 100 100 100 100 100 100 100 100 100 100
100 59 100 100 100 100 100 82 100 100 100 100 100 98 100 100 100 99 16 34 88 100 100 100 100 100 100 100 100 100 100 100 100 100 100 100 100 100 100 100 100 100 100 100
96 100 100 100 100 100 100 100 100 100 100 100 100 100 100 100 99 68 70 74 100 100 100 100 100 100 100 100 100 100 100 100 100 100 100 100 100 100 100 100 100 100 100 100
65 78 73 100 100 100 99 100 100 100 100 100 100 100 100 64 46 79 100 100 100 100 100 100 100 100 100 100 100 100 100 100 100 100 100 100 100 100 100 100 100 100 100 100

GFSCGP_prec_cloud_093.txt.gz
Cloud_Cover
100 37 5 94 32 5 0 0 0 0 4 26 5 1 3 2 37 69 100 100 5 36 5 5 1 0 0 0 0 0 0 91 97 100 100 100 100 100 100 100 100 100 100 100
100 30 100 100 100 89 15 13 27 5 24 93 5 2 0 3 99 100 74 98 100 9 5 5 5 2 0 14 0 0 1 99 100 100 100 100 100 100 100 100 100 100 100 100
100 100 100 100 100 100 99 13 5 0 0 3 59 0 3 3 25 100 100 100 97 10 9 9 5 4 3 24 5 1 0 94 100 100 100 100 100 100 100 100 100 100 100 100
100 100 100 100 100 87 52 46 3 4 4 0 84 3 0 5 8 100 100 100 20 5 9 30 25 5 0 40 0 0 0 100 100 100 100 96 99 100 100 100 100 100 100 100
100 100 100 48 18 72 6 2 9 5 29 4 7 65 4 12 10 100 100 100 51 96 5 31 11 5 0 3 3 0 1 100 100 100 100 100 100 100 100 100 100 100 100 100
37 100 99 17 17 5 4 20 59 5 6 5 36 78 5 80 82 100 100 100 33 72 72 46 8 5 5 3 0 0 10 100 100 98 99 13 45 68 100 100 100 100 100 100
23 5 10 9 0 0 0 66 77 44 44 4 100 78 5 100 100 100 100 100 82 100 100 99 53 5 5 8 1 4 46 100 100 100 100 75 100 100 100 100 100 100 100 100
5 5 5 5 0 0 76 98 38 75 33 100 100 77 100 100 100 100 100 58 93 100 100 100 100 31 5 4 5 5 20 90 100 100 88 100 99 100 100 100 100 100 100 100
2 2 0 2 54 1 12 5 49 100 99 100 100 100 100 100 100 100 100 100 100 100 100 100 100 100 84 4 5 1 5 46 100 100 100 100 100 100 100 100 100 100 100 100
1 0 1 5 88 46 24 92 100 100 100 100 100 100 100 100 100 100 100 100 100 100 100 100 100 100 100 17 5 1 0 28 100 100 100 100 100 100 100 100 100 100 100 100
70 48 82 7 51 100 94 100 100 100 100 100 100 100 100 100 100 100 100 100 100 100 100 99 99 100 100 12 2 0 0 25 100 100 100 100 100 100 100 100 100 100 100 100
80 100 100 81 98 59 100 81 100 100 100 100 100 100 100 100 100 100 81 100 100 100 100 100 100 100 74 5 5 0 0 4 94 100 100 100 100 100 100 100 100 100 83 100
100 100 100 100 98 100 99 100 100 100 100 100 100 100 100 100 100 100 100 100 100 100 98 97 100 100 100 11 5 5 0 0 45 100 100 100 100 100 100 76 43 100 100 97
100 17 81 100 100 100 100 100 100 100 100 100 100 100 100 100 100 100 100 100 99 100 86 92 100 100 100 72 23 5 5 5 2 92 100 100 100 100 100 83 16 3 64 89
100 98 100 100 100 100 100 100 100 100 100 100 100 100 100 100 100 100 100 100 100 90 100 88 98 100 100 79 99 17 5 98 95 3 96 100 100 100 100 100 44 20 17 0
100 100 100 100 100 100 100 100 100 100 100 100 100 100 100 100 100 100 100 100 100 100 100 87 28 100 100 98 55 22 5 5 56 100 4 91 100 100 100 100 100 100 45 10
100 100 100 100 100 100 100 100 100 100 100 100 100 100 100 100 100 100 100 100 100 99 100 92 100 100 100 100 100 72 73 5 5 45 36 6 79 41 99 100 100 100 99 81
100 100 100 100 100 100 100 100 100 100 100 100 100 100 100 100 100 100 100 100 100 100 100 100 100 100 100 100 86 100 100 94 7 43 5 5 5 22 92 97 100 100 100 100
100 100 100 100 100 100 100 100 100 100 100 91 100 100 100 100 100 100 100 100 100 100 100 100 100 100 100 100 100 96 52 100 93 64 88 94 100 10 25 98 100 100 100 100
100 100 100 100 100 100 100 100 100 100 100 100 100 100 100 100 100 100 100 100 100 100 100 100 100 81 58 77 95 91 100 63 100 100 98 78 100 98 100 100 100 100 100 99
100 100 100 100 100 100 100 100 100 100 100 100 100 100 100 100 100 100 100 100 100 100 100 100 100 100 100 58 79 94 97 100 94 99 100 99 100 99 100 100 100 100 100 100
100 100 100 100 100 100 100 100 100 100 100 87 100 100 100 100 100 100 100 100 100 100 100 100 100 100 100 100 100 100 100 100 100 100 100 100 100 100 100 100 100 100 100 100
100 100 98 69 28 100 100 100 100 100 100 49 14 89 100 100 100 100 100 100 100 100 100 100 100 100 100 100 100 100 100 100 100 100 100 100 100 100 100 100 100 100 100 100
98 100 80 98 98 98 100 85 100 100 100 43 16 86 88 100 100 100 100 100 100 100 100 100 100 100 100 100 100 100 100 100 100 100 100 100 100 100 100 100 100 100 100 100
100 100 100 100 96 100 84 100 99 56 94 71 30 97 100 100 93 100 100 100 100 100 100 100 100 100 100 100 100 100 100 100 100 100 100 100 100 100 100 100 100 100 100 100
99 100 100 100 100 100 99 100 100 100 49 96 67 100 100 100 100 100 100 100 100 100 100 100 100 100 100 100 100 100 100 100 100 100 100 100 100 100 100 100 100 100 100 100

GFSCGP_prec_cloud_096.txt.gz
Cloud_Cover
94 6 15 100 100 80 5 5 5 5 5 3 0 0 0 5 2 5 5 0 0 63 93 65 100 6 11 28 22 4 34 100 86 100 100 100 100 100 100 100 100 100 100 100
85 100 100 100 100 65 71 5 16 75 99 58 2 4 0 75 16 56 5 0 4 38 15 100 100 16 21 46 27 30 65 100 96 88 92 100 100 100 100 100 100 100 100 100
98 28 99 97 95 99 100 83 66 42 100 35 11 0 80 92 73 50 24 5 2 57 4 100 100 96 60 50 47 40 71 89 60 98 44 100 100 100 100 100 100 100 100 100
6 95 100 100 100 100 100 100 99 99 100 52 9 0 44 92 100 62 24 7 73 99 63 100 100 61 46 52 27 31 68 78 91 85 75 94 100 100 100 100 100 100 100 100
22 5 37 5 14 24 96 57 35 97 99 27 2 1 67 65 26 2 1 2 100 100 97 100 62 5 29 52 38 38 90 100 100 51 87 100 100 100 100 100 100 100 100 100
1 1 4 5 40 100 100 100 88 92 85 3 1 2 1 84 0 0 0 72 100 78 74 100 100 54 91 57 36 37 100 100 100 33 46 100 100 100 100 100 100 100 100 100
3 0 5 5 5 36 50 92 100 88 84 4 3 0 0 1 0 2 0 32 100 100 65 100 100 81 100 84 45 53 100 100 100 43 90 99 100 84 100 95 100 100 100 100
11 4 4 3 0 6 7 3 0 5 3 4 4 1 0 21 20 36 87 100 100 100 91 100 92 67 54 58 44 51 100 100 100 40 24 35 94 74 97 100 100 100 100 100
100 75 53 96 35 5 5 0 1 1 0 5 0 0 2 3 97 83 100 100 100 100 100 100 25 64 100 100 100 58 72 100 100 38 26 52 74 62 100 100 100 100 100 100
82 100 100 100 100 59 34 7 32 28 0 11 6 0 100 83 100 100 100 100 100 100 100 100 97 99 100 100 100 100 66 82 100 66 32 15 20 7 100 100 100 100 100 100
32 100 100 100 37 3 23 5 76 55 64 21 47 53 100 100 100 100 100 100 100 100 100 100 100 100 99 100 100 100 99 61 100 96 26 83 30 47 77 97 100 100 100 100
6 30 31 47 89 60 7 92 92 95 6 63 100 100 100 100 100 100 100 100 100 72 100 100 100 100 100 100 100 100 32 34 90 100 36 100 100 98 90 100 100 100 95 99
100 77 86 100 100 94 100 32 26 22 57 97 100 100 100 100 100 100 100 100 100 100 100 100 100 100 100 100 100 100 100 5 5 28 62 99 100 100 100 100 100 100 100 100
100 100 100 100 72 48 100 100 73 19 14 100 100 100 100 100 100 100 100 100 100 100 50 94 100 100 100 12 92 100 96 29 14 5 30 89 100 100 100 100 100 100 100 89
100 100 100 100 6 87 100 100 99 96 91 100 100 100 100 100 100 100 100 100 100 100 93 98 99 98 100 100 100 100 100 100 47 26 6 34 100 100 100 100 100 100 100 30
100 100 100 100 100 100 100 100 100 100 100 100 100 100 100 100 100 100 100 100 100 100 100 100 94 100 100 100 100 99 44 74 98 30 5 5 91 100 100 100 100 100 95 96
100 100 100 100 82 100 100 100 100 93 100 100 100 100 100 100 100 100 100 100 100 100 46 97 98 100 100 99 100 100 100 100 100 100 100 12 5 10 88 100 100 100 100 100
98 20 78 63 87 100 100 100 100 100 97 100 100 100 100 100 100 100 100 100 100 100 100 76 62 99 100 78 75 100 100 100 100 100 100 100 56 31 42 47 94 100 100 100
58 0 34 100 99 100 100 100 100 100 100 100 100 100 100 100 100 99 98 100 100 100 100 100 100 65 97 92 99 100 100 100 96 100 100 100 100 100 90 100 100 100 100 100
1 9 100 100 100 100 100 100 100 100 100 100 100 100 100 100 100 100 100 100 100 100 100 100 100 78 94 100 100 100 100 100 98 87 97 100 100 100 100 100 100 100 100 100
58 100 100 100 100 100 100 100 100 100 100 100 100 100 100 100 100 100 100 100 100 100 100 100 100 100 99 83 80 100 100 100 100 100 100 100 100 100 100 100 100 100 100 100
100 100 100 100 100 100 100 100 100 100 100 100 100 100 100 100 100 100 100 100 100 100 100 100 100 100 100 100 100 100 100 100 100 100 100 100 100 100 100 100 100 100 100 100
100 100 100 100 100 100 100 100 100 100 100 100 100 100 100 100 100 100 100 100 100 100 100 100 100 100 100 100 100 100 100 100 100 100 100 100 100 100 100 100 100 100 100 100
100 100 100 100 100 100 100 100 100 100 88 82 93 100 100 100 100 100 100 100 100 100 100 100 100 100 100 100 100 100 100 100 100 100 100 100 100 100 100 100 100 100 100 100
100 96 100 100 100 100 100 100 99 100 100 73 68 26 66 100 100 100 100 100 100 100 100 100 100 100 100 100 100 100 100 100 100 100 100 100 100 100 100 100 100 100 100 100
100 100 100 100 100 100 100 96 78 99 84 100 100 80 32 60 100 100 100 100 100 100 100 100 100 100 100 100 100 100 28 10 52 68 100 100 100 100 99 96 100 100 100 100

GFSCGP_prec_cloud_099.txt.gz
Cloud_Cover
100 84 6 7 73 14 7 6 4 3 13 5 0 0 0 5 72 53 5 5 98 97 100 100 32 21 55 36 100 53 63 92 100 100 100 100 100 100 100 100 100 100 100 100
100 100 93 95 54 1 3 5 7 96 100 51 0 0 0 2 26 88 13 50 100 86 100 100 94 98 100 71 100 51 38 100 100 100 100 94 96 98 100 100 100 100 100 100
100 100 93 42 5 0 0 6 71 100 100 34 6 0 0 5 7 98 85 76 81 71 100 100 41 83 100 92 91 57 71 100 100 79 72 91 92 100 100 100 100 100 100 100
100 100 100 76 5 4 0 5 28 98 44 90 19 0 5 53 100 97 100 56 54 16 58 5 5 47 100 84 90 68 100 100 100 62 100 100 100 100 100 100 100 100 100 100
38 100 90 95 98 7 23 1 5 5 100 88 93 43 82 100 100 100 57 51 46 6 79 2 1 97 100 99 93 100 100 100 100 47 72 42 92 91 100 99 100 100 98 100
67 100 100 73 31 5 2 1 0 42 27 5 100 76 98 94 65 8 5 11 81 40 12 4 5 100 100 100 100 100 100 91 63 88 40 2 50 100 82 100 100 100 100 100
100 100 100 88 7 23 5 5 6 2 0 2 6 2 5 10 90 4 4 5 5 4 2 3 89 100 100 100 100 100 100 100 100 100 46 9 65 62 86 100 100 100 100 100
54 90 86 86 18 99 39 16 5 5 3 4 0 0 4 6 4 2 0 13 4 0 0 40 100 100 100 100 100 100 100 100 100 100 42 40 23 94 100 100 100 100 100 100
100 69 88 64 96 100 95 8 54 54 1 4 2 1 4 2 0 0 0 5 11 0 4 60 100 100 96 99 100 85 100 100 100 100 59 32 8 31 6 93 97 100 100 100
91 61 100 57 67 75 98 100 42 24 5 34 4 5 5 4 0 0 1 30 41 94 100 100 100 100 100 98 94 74 100 96 100 100 70 19 3 5 1 34 100 100 100 100
100 100 100 100 100 71 94 100 99 95 32 60 4 5 5 0 0 0 98 100 100 100 100 100 100 100 73 70 100 100 100 76 100 100 58 11 14 2 6 1 100 97 99 100
92 92 100 100 100 100 100 100 100 100 66 33 25 1 3 4 24 100 100 100 100 100 100 100 100 100 63 100 100 100 100 80 100 100 91 8 26 2 4 16 6 96 68 100
81 46 75 32 6 35 98 84 8 5 14 10 45 5 44 70 99 97 100 100 100 100 100 100 100 100 83 100 100 100 94 100 100 100 100 24 5 11 0 3 5 92 97 4
97 40 94 83 29 3 99 93 36 86 86 5 5 63 96 100 86 100 100 100 100 100 100 100 100 100 100 100 100 100 100 100 100 100 100 54 5 5 1 0 2 66 100 86
97 69 100 100 68 95 100 98 100 100 100 62 97 100 100 100 100 100 100 100 100 100 100 100 100 100 100 62 100 100 99 97 100 100 100 100 15 16 5 2 21 64 100 100
100 100 100 100 100 100 95 25 43 100 100 100 100 100 100 100 100 100 100 100 100 100 100 100 100 100 100 79 100 100 100 100 100 100 100 100 100 49 5 10 67 53 100 100
100 100 100 100 97 93 58 29 99 100 77 100 100 100 100 100 100 100 100 100 100 100 100 100 100 100 100 100 100 100 100 100 100 100 100 100 100 100 78 100 100 100 100 100
100 100 100 100 45 95 100 100 83 100 100 100 100 100 100 100 100 100 100 100 100 100 100 100 100 100 100 100 77 95 100 100 100 100 100 100 100 100 100 100 100 100 100 100
100 100 100 100 81 70 100 76 92 100 100 100 100 100 100 100 100 100 100 100 100 100 100 100 100 100 100 100 100 100 100 100 100 100 100 100 100 100 100 100 100 100 100 100
100 100 100 100 65 100 100 100 91 100 100 100 100 100 100 98 100 100 100 100 100 100 100 100 100 100 100 100 100 100 100 100 100 100 100 100 100 100 100 100 100 100 100 100
100 100 100 100 48 33 89 100 100 100 100 100 100 100 100 100 100 100 100 100 100 100 100 100 100 100 100 100 100 100 100 100 100 100 100 100 100 100 100 100 100 100 100 100
100 100 100 65 90 38 99 100 100 100 100 100 100 100 100 100 100 100 100 100 100 100 100 100 100 100 100 100 100 100 100 100 100 100 100 100 100 100 100 100 100 100 100 100
100 100 100 57 58 100 100 100 100 100 100 100 100 100 100 100 100 100 100 100 100 100 100 100 100 100 100 100 100 100 100 100 100 100 100 100 100 100 100 100 100 100 100 100
100 100 98 100 100 100 100 100 100 100 100 100 100 100 100 100 100 100 100 100 100 100 100 100 100 100 100 100 100 100 100 100 100 100 100 100 100 100 100 100 100 100 100 100
100 100 100 100 100 100 100 100 100 100 100 100 100 100 100 100 100 100 100 100 100 100 100 100 100 100 100 100 100 100 100 100 100 100 100 100 100 100 100 100 100 100 100 100
100 100 100 100 100 100 100 100 100 100 100 100 100 100 100 100 100 100 100 100 100 100 100 100 100 100 100 100 100 100 100 100 100 99 100 100 100 100 100 100 100 100 100 100

GFSCGP_prec_cloud_102.txt.gz
Cloud_Cover
100 100 16 97 100 100 100 6 0 0 1 2 10 3 0 0 5 5 5 12 13 6 5 5 5 5 10 99 45 26 52 99 47 100 100 100 100 100 100 100 100 88 100 100
100 44 98 100 100 100 99 34 14 5 16 3 1 4 0 0 14 16 4 10 18 15 4 12 23 75 100 100 85 69 86 100 44 100 100 100 97 100 100 100 100 100 100 100
100 100 100 100 100 100 92 100 92 41 36 5 0 4 0 0 5 92 100 93 97 1 4 42 52 100 100 100 86 100 88 100 86 63 86 100 100 100 100 100 100 100 100 100
100 100 100 100 100 100 100 100 100 100 3 0 0 0 0 2 55 100 100 100 21 5 9 97 97 100 100 99 99 100 78 99 90 98 100 100 100 74 85 95 100 100 89 100
100 100 100 100 100 100 100 100 94 100 19 1 0 0 4 26 100 100 100 53 5 2 23 66 100 99 100 100 99 100 79 100 97 100 100 100 99 60 100 100 100 100 100 100
100 100 100 100 100 100 100 100 100 68 18 4 6 2 0 3 46 100 45 36 100 100 100 51 76 94 100 99 88 100 100 100 100 100 100 100 90 80 88 100 100 100 96 98
100 100 100 100 100 100 100 100 92 38 5 5 81 4 9 7 79 6 56 100 100 99 59 43 9 5 38 85 93 100 100 100 100 100 100 62 2 17 100 99 100 100 100 100
100 100 100 100 100 100 100 100 100 94 92 92 96 5 5 79 5 5 26 95 94 16 7 7 5 0 8 73 100 100 100 100 100 83 57 76 1 4 100 60 100 100 100 100
100 100 100 100 100 100 100 100 100 100 100 88 6 0 5 100 5 5 0 0 0 0 3 0 0 0 0 41 90 100 100 100 100 11 100 86 25 28 42 47 70 83 100 89
100 100 100 100 100 100 100 100 100 100 94 8 4 5 3 53 4 0 0 0 0 0 50 0 0 0 2 89 98 100 100 100 100 52 100 74 51 8 0 8 53 93 96 98
100 100 100 100 100 100 100 100 100 82 12 5 3 5 5 5 5 3 4 2 0 16 85 5 3 0 5 100 88 100 100 100 100 99 100 100 54 21 0 1 20 30 86 100
100 100 100 100 100 100 100 100 96 6 98 51 7 5 5 5 5 4 0 5 5 86 100 64 17 6 100 100 100 100 100 100 100 100 100 100 36 11 1 17 23 23 11 98
100 100 100 100 100 100 68 72 100 100 100 100 64 10 6 5 4 0 2 5 54 100 100 100 96 100 100 100 100 100 100 100 100 100 100 100 59 36 18 2 21 1 7 2
88 54 6 37 79 54 72 100 89 70 94 100 57 4 5 4 0 2 80 68 100 100 100 100 100 100 100 100 100 100 100 100 100 100 100 100 98 68 26 5 5 0 2 52
97 90 83 5 7 5 25 86 1 4 5 4 24 10 5 5 5 20 96 100 100 100 100 100 100 100 100 100 100 100 100 100 100 100 100 100 100 69 12 5 5 5 1 47
84 100 100 95 10 100 19 100 66 100 23 100 100 90 65 94 78 100 100 100 100 100 100 100 100 100 100 100 100 100 100 100 100 100 100 100 100 97 99 21 5 6 14 48
100 100 100 90 9 62 41 97 98 100 74 7 99 100 100 100 100 100 100 100 100 100 100 100 100 100 100 100 100 100 100 100 100 100 100 100 100 100 100 100 100 100 100 100
100 100 100 66 71 36 76 100 23 68 97 100 100 100 100 100 100 100 100 100 100 100 100 100 100 100 100 100 100 100 100 100 100 100 100 100 100 100 100 100 100 100 100 100
100 100 100 100 100 83 100 74 97 90 100 100 100 100 100 100 100 100 100 100 100 100 100 100 100 100 100 100 100 100 100 100 100 100 100 100 100 100 100 100 96 100 98 100
100 100 100 100 100 77 100 91 100 100 100 100 100 100 100 100 100 100 100 100 100 100 100 100 100 100 100 100 100 100 100 100 100 100 100 100 100 100 100 100 100 100 100 98
100 100 100 100 100 100 100 100 100 79 97 100 100 100 100 100 100 100 100 100 100 100 100 100 100 100 100 100 100 100 100 100 100 100 100 100 100 100 100 100 100 100 100 100
88 100 100 100 100 100 100 96 100 100 68 100 100 100 100 100 100 100 100 100 100 100 100 100 100 100 100 100 100 100 100 100 100 100 100 100 100 100 100 100 100 100 100 100
100 100 100 100 100 100 98 98 100 100 100 100 100 100 100 100 100 100 100 100 100 100 100 100 100 100 100 100 100 100 100 100 100 100 100 100 100 100 100 100 100 100 100 100
100 100 100 100 100 100 100 88 68 98 100 100 100 100 100 100 100 100 100 100 100 100 100 100 100 100 100 100 100 100 100 100 100 100 100 100 100 100 100 100 100 100 100 100
100 100 100 100 100 100 100 100 100 100 100 100 100 100 100 100 100 100 100 100 100 100 100 100 100 100 100 100 100 100 100 81 100 98 100 100 100 100 100 100 100 100 100 100
100 100 100 100 100 100 100 100 100 100 100 100 100 100 100 100 100 100 100 100 100 100 100 100 100 100 100 100 100 100 100 100 100 83 99 100 100 100 100 100 100 100 100 100

GFSCGP_prec_cloud_105.txt.gz
Cloud_Cover
100 100 87 100 100 100 100 100 100 100 15 4 5 5 5 4 3 5 5 5 4 7 100 24 0 0 1 5 5 14 5 29 97 100 100 100 100 100 99 100 100 100 100 100
100 100 100 100 100 100 100 99 16 68 69 35 2 1 1 1 4 5 6 9 23 7 18 4 0 3 5 5 5 5 12 63 59 95 100 98 100 100 100 100 100 100 100 100
100 100 100 100 100 100 100 100 100 100 100 38 1 5 4 5 5 76 81 87 43 6 5 2 1 1 5 4 5 56 71 96 53 76 100 99 100 100 100 100 100 100 100 100
100 100 100 100 100 100 100 100 100 100 100 20 5 4 5 10 5 9 56 100 22 5 5 0 11 5 5 5 8 52 60 100 92 92 100 72 20 70 29 84 100 100 100 100
100 100 100 100 100 100 100 100 100 100 84 28 30 8 27 82 79 54 5 5 5 5 11 0 5 100 70 9 5 93 99 100 100 98 68 86 42 89 97 100 100 100 100 100
100 100 100 100 100 100 100 100 100 100 100 100 44 5 36 5 99 100 81 5 5 26 6 0 5 87 100 16 25 62 100 100 100 100 85 56 100 42 50 60 100 100 99 100
100 100 100 100 100 100 100 100 100 100 85 72 100 100 78 92 100 100 87 5 4 4 0 0 1 5 100 100 89 87 79 100 100 100 97 100 100 32 24 95 100 100 100 100
56 100 100 100 100 100 100 100 98 100 82 89 100 100 100 54 76 94 8 21 9 5 0 0 3 89 100 100 75 87 99 100 100 100 100 100 53 22 15 30 95 93 89 100
100 100 100 100 100 100 100 100 100 100 100 95 100 100 100 69 89 85 91 100 90 5 1 0 3 0 54 85 77 100 100 100 100 100 100 100 43 15 35 66 100 100 96 98
100 100 100 100 100 100 100 100 100 100 100 100 100 100 100 100 100 100 73 42 0 3 4 6 3 0 0 3 54 100 100 100 100 100 100 84 51 37 49 66 100 100 70 87
100 100 100 100 100 100 100 100 100 100 100 100 82 84 81 82 100 100 51 4 0 0 5 70 6 5 38 94 100 100 100 100 100 100 100 89 100 64 64 65 100 97 49 88
100 100 100 100 100 100 100 100 100 100 100 97 96 100 100 100 100 7 0 0 0 1 6 46 100 93 98 86 100 100 100 100 100 100 100 99 100 90 76 73 86 90 54 81
100 100 100 100 100 100 100 100 91 100 18 28 88 100 94 25 5 1 2 0 13 5 12 56 100 100 100 100 100 100 100 100 100 100 100 100 100 100 92 84 89 83 71 100
100 98 100 100 97 100 100 100 83 84 64 78 9 10 5 5 3 4 5 6 3 39 10 69 100 100 100 100 100 100 100 100 100 100 100 100 100 96 80 100 91 79 74 89
100 95 47 44 100 100 100 100 100 100 100 100 100 28 5 5 18 82 75 96 100 97 37 100 100 100 100 100 100 100 100 100 100 100 100 100 100 100 100 100 100 60 62 60
100 100 100 57 5 43 97 76 99 97 59 68 5 5 5 38 99 96 100 100 100 100 74 100 100 100 100 100 100 100 100 100 100 100 100 100 100 100 100 100 100 96 96 99
100 89 80 100 83 39 10 10 44 19 4 4 55 48 78 80 100 100 100 100 100 100 100 100 100 100 100 100 100 100 100 100 100 100 100 100 100 100 100 100 100 100 99 92
100 93 29 9 26 5 29 12 4 16 29 100 100 98 86 100 100 100 100 100 100 100 100 100 100 100 100 100 100 100 100 100 100 100 100 100 100 100 100 100 100 100 100 100
100 71 33 70 10 9 6 100 69 100 89 99 100 100 100 100 100 100 100 100 100 100 100 100 100 100 100 100 100 100 100 100 100 100 100 100 100 100 100 100 100 100 100 100
100 100 76 76 100 100 100 100 98 88 97 100 100 100 100 100 100 100 100 100 100 100 100 100 100 100 100 100 100 100 100 100 100 100 100 100 100 100 100 100 100 100 100 100
100 100 100 100 100 100 100 100 100 98 99 100 100 100 100 100 100 100 100 100 100 100 100 100 100 100 100 100 100 100 100 100 100 100 100 100 100 100 100 100 100 100 100 100
81 100 100 100 100 100 100 100 96 100 100 100 100 100 100 100 100 100 100 100 100 100 100 100 100 100 100 100 100 100 100 100 100 100 100 100 100 100 100 100 100 100 100 100
95 100 100 100 100 100 100 100 100 100 100 100 100 100 100 100 100 100 100 100 100 100 100 100 100 100 100 100 100 100 100 100 100 100 100 100 100 100 100 100 100 100 100 100
100 100 100 100 100 100 100 100 100 100 100 100 100 100 100 100 100 100 100 100 100 100 100 100 100 100 100 100 100 100 100 100 100 100 100 100 100 100 100 100 100 100 100 100
100 100 100 100 100 100 100 100 100 97 94 100 100 100 100 100 100 100 100 100 100 100 100 100 100 100 100 100 100 100 100 100 100 100 100 100 100 100 100 100 100 100 100 100
100 100 100 100 100 100 100 100 100 100 100 100 100 100 100 100 100 100 100 100 100 100 100 100 100 100 100 100 100 100 100 94 92 81 99 100 100 100 100 100 100 100 100 100

GFSCGP_prec_cloud_108.txt.gz
Cloud_Cover
8 51 2 8 100 100 100 91 31 97 100 100 100 100 95 8 100 76 5 5 5 5 5 0 5 5 5 5 5 56 100 100 3 91 100 100 100 100 100 95 74 71 89 74
100 40 38 100 100 100 100 100 16 100 56 100 100 100 5 5 30 8 7 5 13 16 7 39 6 8 5 5 5 44 100 100 21 100 100 69 100 100 100 81 100 64 73 70
100 100 100 100 100 100 100 100 100 100 100 93 100 100 80 31 9 5 27 66 7 40 17 5 5 9 8 18 7 5 17 56 83 5 100 100 100 100 100 100 96 100 78 90
100 100 100 89 30 100 98 100 100 100 100 100 65 92 100 78 53 71 5 7 61 9 39 5 8 33 92 14 5 5 2 84 62 6 95 100 75 77 46 86 81 100 100 100
96 100 100 100 100 100 99 100 100 100 82 100 54 72 98 100 100 100 68 7 30 22 33 72 5 86 81 12 3 0 7 100 71 22 100 100 94 5 11 42 100 74 100 100
53 100 100 100 100 100 100 100 100 100 100 100 100 100 100 100 100 100 55 51 6 22 76 51 66 82 50 9 4 0 11 100 100 100 100 94 93 9 15 50 88 91 100 100
89 100 100 100 100 100 100 100 100 100 100 98 100 100 100 100 100 100 100 99 5 5 6 54 100 69 10 66 5 0 4 100 100 100 100 100 83 44 4 20 30 100 100 100
100 88 100 100 100 100 100 100 100 100 100 100 100 100 100 100 100 100 100 100 68 5 79 98 22 5 14 67 20 5 5 86 100 94 100 100 100 55 14 76 0 18 98 51
100 100 93 100 100 100 100 100 100 100 100 100 98 100 100 100 100 100 100 100 100 100 96 5 4 5 60 86 5 1 22 100 100 100 100 100 100 49 21 33 11 54 99 73
100 100 100 100 100 100 100 100 100 100 100 100 100 100 100 100 100 100 100 100 100 100 100 37 3 4 6 37 4 1 21 100 100 100 100 100 100 70 29 52 83 70 72 77
100 100 100 100 100 100 100 100 100 100 100 100 100 100 100 100 100 100 100 100 81 100 32 5 9 62 5 5 5 4 87 100 100 100 100 100 100 94 70 76 91 84 33 97
100 100 100 100 100 100 100 100 100 100 100 100 100 100 100 100 98 55 100 90 100 82 64 39 9 28 5 5 99 100 100 100 100 100 100 100 100 87 100 100 100 98 51 100
100 100 100 100 100 100 100 100 100 100 100 100 100 100 96 100 100 66 33 86 99 100 100 23 6 5 5 34 100 100 100 100 100 100 100 100 100 100 100 100 100 100 51 99
100 100 100 100 100 94 100 100 100 100 100 100 82 85 100 100 100 83 68 98 100 100 100 93 66 6 17 84 100 100 100 100 100 100 100 100 100 100 100 100 100 100 78 99
100 100 100 100 79 93 100 100 100 100 100 100 100 100 50 81 38 98 100 100 100 100 99 99 100 62 73 100 100 100 100 100 100 100 100 100 100 100 100 100 100 100 100 100
100 100 100 100 100 100 100 100 100 100 100 100 99 100 64 100 100 100 100 100 87 99 100 99 72 62 100 100 100 100 100 100 100 100 100 100 100 100 100 100 100 100 100 100
98 96 100 100 100 100 81 98 100 100 100 90 67 82 100 100 100 100 100 96 100 100 100 100 100 100 100 100 100 100 100 100 100 100 100 100 100 100 100 100 100 100 100 100
100 96 89 100 100 100 94 97 67 100 90 22 10 79 100 98 100 100 100 100 100 100 100 100 100 100 100 100 100 100 100 100 100 100 100 100 100 100 100 100 100 100 100 100
78 97 100 96 100 61 7 95 45 89 100 96 98 100 100 100 100 100 100 100 100 100 100 100 100 100 100 100 100 100 100 100 100 100 100 100 100 100 100 100 100 100 100 100
85 100 100 100 100 95 81 100 89 67 100 100 100 99 100 98 100 100 100 98 82 100 100 100 100 100 100 100 100 100 100 100 100 100 100 100 100 100 100 100 100 100 100 100
100 100 100 98 100 49 27 100 100 100 100 100 100 98 100 100 100 100 100 97 100 100 100 100 100 100 100 100 100 100 100 100 100 100 100 100 100 100 100 100 100 100 100 100
100 100 100 100 100 94 86 100 100 100 100 100 100 100 100 100 100 100 100 100 100 100 100 100 100 100 100 100 100 100 100 100 100 100 100 100 100 100 100 100 100 100 100 100
100 95 100 100 100 100 100 100 100 100 100 100 100 100 100 100 100 100 100 100 100 100 100 100 100 100 100 100 100 100 100 100 100 100 100 100 100 100 100 100 100 100 100 100
100 100 88 100 100 100 100 100 100 100 100 100 100 100 100 100 100 100 100 100 100 100 100 100 100 100 100 100 100 100 100 100 100 100 100 100 100 100 100 100 100 100 100 100
78 69 100 100 100 100 100 100 100 100 100 100 100 76 60 100 99 100 100 100 100 100 100 100 100 100 100 100 100 100 100 100 100 100 100 100 100 100 100 100 100 100 100 100
100 100 100 100 100 100 100 100 100 100 100 100 100 83 100 100 100 100 100 100 100 100 100 100 100 100 100 100 100 100 100 100 100 100 100 100 100 100 100 100 100 100 100 100

GFSCGP_prec_cloud_111.txt.gz
Cloud_Cover
0 0 0 0 0 0 34 100 100 100 100 100 73 41 100 100 100 100 95 5 11 5 8 61 49 80 100 18 9 8 17 48 15 6 5 5 67 80 88 5 28 25 62 66
0 0 0 0 0 0 93 100 30 62 100 100 100 83 100 100 100 98 5 88 52 71 34 14 16 21 69 12 5 5 49 17 54 12 5 17 98 100 100 52 22 23 75 100
0 0 1 5 5 5 6 49 23 100 100 99 84 11 100 100 99 98 100 100 100 100 100 93 8 5 7 15 70 14 70 97 100 93 41 94 100 100 100 100 62 91 98 100
26 0 0 48 100 100 100 42 100 100 100 77 100 82 100 100 100 100 74 100 100 100 72 44 5 5 5 7 92 94 82 99 99 92 6 99 76 100 100 100 99 100 100 59
100 100 11 5 100 100 100 100 100 100 100 100 100 70 100 100 100 100 100 98 100 100 100 88 66 5 5 11 92 100 78 100 100 100 63 38 100 96 100 93 80 100 100 11
100 73 89 82 100 100 100 100 100 100 100 100 78 100 75 100 100 100 100 97 100 100 100 100 100 60 5 6 73 100 100 92 90 91 12 30 98 88 100 100 72 100 100 99
100 100 96 100 100 100 100 100 100 100 100 7 93 98 100 100 100 100 100 100 100 98 100 100 100 56 5 5 31 67 80 100 100 7 12 64 100 60 98 100 100 100 99 82
94 100 100 39 100 100 100 100 100 100 100 79 100 97 100 100 100 100 100 100 100 100 100 100 100 77 14 53 28 85 100 100 22 20 56 100 100 35 100 100 99 70 46 87
100 100 97 100 100 100 100 100 100 100 100 100 100 100 100 100 100 100 100 100 100 100 100 100 100 100 84 68 100 100 100 67 8 10 96 100 78 99 100 100 100 61 25 18
94 100 88 100 100 100 100 100 100 100 100 100 100 100 100 100 100 100 100 100 100 100 100 100 86 100 5 49 96 88 29 45 60 81 93 91 87 100 100 100 89 43 8 8
100 92 74 100 92 100 100 100 100 100 100 100 100 100 100 100 100 100 100 100 100 100 100 100 100 100 100 100 100 100 48 10 43 50 89 100 100 100 100 100 92 42 19 99
100 100 100 100 99 100 100 100 100 100 100 100 100 100 100 100 100 100 100 100 100 100 100 100 100 100 93 41 100 90 87 99 100 100 100 100 100 100 100 100 51 31 20 99
80 100 100 100 100 100 100 100 100 100 100 100 100 100 100 100 100 100 100 100 100 100 100 96 97 54 81 82 47 90 100 100 100 100 100 100 100 100 100 100 75 88 85 97
100 100 100 100 100 100 100 100 100 100 100 100 100 100 100 100 100 100 100 88 100 100 100 89 57 76 100 98 90 26 98 100 100 100 100 100 100 100 100 100 99 100 100 100
100 100 100 100 100 100 100 100 100 100 100 100 100 100 100 91 100 100 100 100 100 100 98 93 86 89 78 46 39 59 100 100 100 100 100 100 100 100 100 100 100 100 100 100
100 100 100 100 100 100 100 100 100 100 100 100 100 100 22 100 100 100 100 100 100 100 100 78 98 100 99 96 84 100 100 100 100 100 100 100 100 100 100 100 100 100 100 100
100 100 100 100 100 98 88 100 91 100 100 100 100 100 100 100 77 100 100 100 100 78 100 100 100 100 100 100 100 100 100 100 100 100 100 100 100 100 100 100 100 100 100 100
75 95 100 100 100 96 100 100 100 100 100 100 100 100 100 100 100 99 100 100 100 100 100 100 100 100 100 100 100 100 100 100 100 100 100 100 100 100 100 100 100 100 100 100
94 29 92 100 100 100 100 100 100 100 100 100 100 100 100 100 97 100 100 100 100 100 100 100 100 100 100 100 100 100 100 100 100 100 100 100 100 100 100 100 100 100 100 100
53 91 94 98 99 100 100 100 100 100 100 100 100 100 100 100 100 100 100 100 98 100 100 100 100 100 100 100 100 100 100 100 100 100 100 100 100 100 100 100 100 100 100 100
41 48 68 96 100 97 86 23 99 90 100 100 100 99 71 70 99 100 100 79 89 100 100 100 100 100 100 100 100 100 100 100 100 100 100 100 100 100 100 100 100 100 100 100
100 100 100 100 100 99 15 60 100 100 100 100 100 100 100 100 96 100 93 68 92 98 100 100 100 100 100 100 100 100 100 100 100 100 100 100 100 100 100 100 100 100 100 100
98 89 100 100 100 100 100 100 100 100 100 100 100 100 100 100 78 78 79 57 76 100 100 100 100 100 100 100 100 100 100 100 100 100 100 100 100 100 100 100 100 100 100 100
100 68 98 61 100 100 100 100 100 100 100 100 100 100 99 100 85 71 66 48 85 100 96 100 100 100 100 100 100 100 100 100 100 100 100 100 100 100 100 100 100 100 100 100
95 100 80 97 100 100 100 100 100 100 100 100 100 100 100 100 93 99 71 58 96 100 100 100 100 100 100 100 100 100 100 100 100 100 100 100 100 100 100 100 100 100 100 100
92 94 88 100 100 100 100 100 100 100 100 100 100 100 100 100 98 79 84 86 89 100 100 100 100 100 100 100 100 100 100 100 100 100 100 100 100 100 100 100 100 100 100 100

GFSCGP_prec_cloud_114.txt.gz
Cloud_Cover
4 73 0 0 0 0 0 0 5 0 1 90 100 10 97 96 80 85 81 100 98 100 95 100 100 100 100 100 100 100 100 55 28 72 14 17 5 27 0 2 14 61 88 100
40 15 3 0 0 0 0 8 69 90 98 100 94 90 86 100 95 100 100 100 100 100 49 99 100 100 100 99 100 100 65 88 90 90 39 15 32 24 14 3 36 5 5 17
100 25 3 2 0 0 0 4 37 4 100 99 38 60 50 79 68 100 100 100 100 100 88 89 18 5 45 100 51 9 94 17 21 69 98 46 51 14 54 54 31 100 81 71
99 81 68 99 1 4 0 1 4 99 100 88 39 28 67 4 43 75 100 100 100 100 100 100 94 5 77 100 74 100 72 90 66 99 78 100 96 80 67 19 78 86 100 100
100 100 100 100 0 16 14 76 69 100 97 33 59 62 0 15 88 38 100 100 100 100 100 100 100 47 5 94 100 100 97 21 63 60 68 99 100 67 99 35 96 100 100 100
99 87 80 86 76 13 61 100 100 99 65 82 1 88 0 35 80 74 100 95 100 99 97 100 100 100 100 98 68 93 37 65 48 43 74 98 100 100 98 44 40 100 100 100
100 63 41 16 100 43 100 100 100 99 100 75 100 100 3 93 97 95 100 100 100 94 100 100 100 100 100 13 30 38 100 100 80 56 64 50 98 100 100 100 16 100 100 100
91 100 71 5 37 96 97 7 79 100 100 100 100 58 50 100 100 100 100 100 94 99 100 100 100 100 100 95 97 90 100 100 64 31 18 20 100 100 100 96 85 99 100 100
100 100 100 100 100 91 91 27 100 100 100 100 100 100 80 100 100 100 100 85 100 100 100 100 100 100 100 100 58 78 99 100 93 38 5 93 100 100 100 93 77 100 100 100
100 100 64 100 89 97 96 100 100 100 100 100 100 100 100 100 96 99 100 100 100 100 98 81 99 100 100 100 100 100 100 85 29 10 100 100 100 100 87 13 100 100 100 100
100 100 64 75 87 93 100 100 100 100 100 100 100 100 100 100 100 100 100 100 83 94 100 100 100 100 100 100 100 86 94 98 100 66 5 93 44 16 10 28 100 100 100 100
100 100 100 78 94 100 100 100 100 100 100 100 100 100 100 100 100 100 100 99 100 100 100 100 100 100 100 100 100 100 100 100 100 100 100 94 93 12 14 82 100 100 98 65
100 100 100 98 15 85 98 100 100 100 100 100 100 100 100 100 100 100 100 100 100 100 100 94 54 99 100 100 100 100 81 100 100 100 100 100 100 100 14 100 100 100 99 90
100 100 100 100 100 88 100 100 100 100 100 100 100 100 100 100 100 100 100 92 100 100 100 100 99 94 100 90 100 100 93 100 100 100 100 100 100 100 34 100 100 100 64 100
100 100 100 100 100 97 95 36 100 100 100 100 100 100 100 100 100 100 100 88 100 100 100 100 100 100 100 100 100 100 100 88 59 100 100 100 100 100 100 100 100 100 94 100
100 100 100 100 100 100 100 100 100 100 100 100 100 100 100 100 100 100 98 42 99 100 100 100 100 100 100 100 100 100 100 100 74 100 100 100 100 96 100 100 100 100 100 100
72 100 96 100 100 100 100 100 100 100 100 100 100 100 100 100 100 100 94 88 97 53 85 100 100 100 100 100 100 100 100 100 96 100 100 100 100 100 100 100 100 100 100 100
99 79 97 100 100 100 100 100 94 94 78 100 100 100 100 100 100 100 100 100 100 98 100 100 100 100 100 100 100 100 100 100 97 100 100 100 100 100 100 100 100 100 100 100
100 100 51 100 100 100 100 100 100 100 100 100 100 100 100 100 100 100 100 100 100 100 100 100 100 100 100 100 100 100 100 100 100 100 100 100 100 100 100 100 100 100 100 100
77 15 76 100 100 100 100 100 100 100 100 100 100 100 100 100 100 100 100 100 100 100 100 100 100 100 100 100 100 100 77 100 100 100 100 100 100 100 100 100 100 100 100 100
25 29 82 78 89 100 99 100 100 100 100 100 100 100 100 100 100 100 100 100 100 100 100 100 100 100 100 100 99 100 100 100 100 100 100 100 100 100 100 100 100 100 100 100
100 95 88 68 78 100 100 99 100 100 100 100 100 100 100 100 100 100 100 100 100 100 100 100 100 100 100 100 100 100 100 100 100 100 100 100 100 100 100 100 100 100 100 100
94 95 100 100 100 100 100 100 100 100 100 98 100 100 100 100 100 100 100 100 98 100 100 91 98 100 100 100 100 100 100 100 100 100 100 100 100 100 100 100 100 100 100 100
90 100 98 100 100 100 100 100 100 100 100 100 100 100 100 100 100 100 100 98 95 98 100 76 98 100 100 100 100 100 100 100 100 100 100 100 100 100 100 100 100 100 100 100
83 58 100 100 98 98 100 100 100 100 100 100 100 100 100 100 100 100 100 100 100 79 86 98 100 100 100 100 100 100 100 100 100 100 100 100 100 100 100 100 100 100 100 100
90 100 81 100 100 100 100 100 100 100 100 100 100 100 100 100 100 100 100 100 100 97 100 100 100 100 100 100 100 100 100 100 100 100 100 100 100 100 100 100 100 100 100 100

GFSCGP_prec_cloud_117.txt.gz
Cloud_Cover
0 4 0 0 0 0 0 18 0 0 0 0 0 0 0 5 98 5 5 5 4 0 0 59 65 12 47 100 100 100 100 100 100 100 100 100 97 5 5 7 5 0 0 0
28 88 0 7 0 0 6 93 38 0 0 39 30 77 0 81 14 2 5 5 5 1 5 9 100 14 17 12 63 100 100 100 100 100 100 56 5 5 5 5 10 5 4 5
5 63 80 98 2 5 6 100 41 2 10 100 98 30 0 4 100 23 5 3 5 5 25 11 16 84 100 45 17 72 100 100 100 100 100 100 80 100 89 56 100 56 13 8
8 96 100 13 1 23 78 97 81 4 99 100 68 76 7 15 42 56 55 84 91 96 100 99 53 6 100 84 77 100 100 100 100 100 100 100 100 100 99 5 17 48 34 23
84 40 100 100 82 100 3 4 0 28 100 100 100 95 6 8 47 2 3 5 100 100 100 100 100 15 100 100 34 53 100 97 95 11 97 100 100 100 97 5 5 72 100 80
32 95 98 100 69 98 1 1 100 84 100 99 30 27 14 21 0 2 3 48 100 100 100 100 100 72 5 27 8 69 88 100 100 100 100 97 100 100 100 63 5 46 98 99
8 95 100 80 77 49 100 100 100 100 100 24 61 52 0 0 0 5 40 99 100 100 78 100 100 12 35 96 100 100 100 100 100 75 100 94 100 100 100 54 39 82 100 100
94 100 100 99 100 4 100 67 72 100 44 5 49 0 0 2 5 59 98 100 100 93 100 100 38 77 100 34 100 100 100 100 100 94 72 25 14 82 100 57 100 100 100 100
100 100 100 68 100 78 1 87 100 88 55 1 43 65 100 79 100 92 7 100 100 100 100 67 18 99 100 80 100 100 100 100 100 100 100 100 49 98 100 7 11 93 100 100
100 99 100 100 100 67 51 18 2 7 31 22 92 100 100 100 100 100 97 100 100 83 93 14 86 42 100 100 99 98 100 100 100 100 100 28 39 67 65 6 35 100 100 100
100 100 100 100 100 100 100 38 4 98 100 100 100 100 100 100 100 100 92 100 100 98 16 80 92 100 100 100 100 100 100 100 100 100 100 95 90 96 72 98 92 100 100 64
100 82 100 100 100 100 40 100 96 100 100 100 100 100 100 100 100 100 100 100 100 100 100 100 100 94 100 100 100 100 92 100 100 100 100 100 100 100 100 100 100 87 91 100
100 100 100 100 97 100 100 95 100 100 100 100 100 100 100 100 100 100 100 100 100 100 100 96 73 81 100 100 100 100 100 100 100 100 100 100 100 100 100 100 100 100 100 98
100 100 100 100 100 100 82 18 99 100 100 100 100 100 100 100 100 100 100 100 100 99 93 99 100 100 100 100 98 100 100 100 100 100 100 100 100 100 100 100 100 100 86 100
100 100 100 100 100 100 100 16 84 100 100 100 100 100 100 100 100 100 100 100 100 100 100 100 100 100 100 100 100 100 100 100 100 100 100 100 100 100 100 100 100 100 99 100
100 100 100 100 100 100 100 100 100 100 100 100 100 100 100 100 100 100 100 100 100 28 100 100 100 100 100 100 100 100 100 100 100 100 100 100 100 100 100 100 100 100 100 100
100 100 100 100 100 100 100 100 97 100 100 100 100 100 100 100 100 100 100 100 74 70 94 100 100 100 100 100 100 100 100 100 100 100 100 100 100 100 100 100 54 100 100 100
76 100 100 100 100 100 100 100 100 100 100 100 100 100 100 100 100 100 100 100 100 100 100 100 100 100 100 100 100 100 100 100 100 100 100 100 100 100 100 100 97 100 100 100
90 74 100 100 100 100 100 100 100 99 100 100 100 100 100 100 100 100 100 100 100 100 100 100 100 70 71 100 100 100 75 98 76 100 100 100 100 100 100 100 100 100 100 93
100 97 90 100 100 100 100 100 100 100 100 100 100 100 100 100 100 100 100 100 100 100 100 100 100 92 100 100 100 92 99 100 100 100 100 100 100 100 100 100 100 100 100 100
42 100 100 74 65 100 100 100 100 100 100 100 100 100 100 100 100 100 100 100 100 100 100 100 99 100 100 100 100 100 100 100 100 96 100 100 100 100 100 100 100 100 100 100
87 81 98 100 100 100 100 92 98 100 100 100 100 100 100 100 100 100 100 100 100 100 100 100 100 82 77 84 100 100 100 100 100 96 100 100 100 100 100 100 100 100 100 100
99 62 82 98 100 100 100 100 100 100 100 100 100 100 100 100 100 100 100 100 100 100 100 100 99 96 98 85 99 100 100 91 89 100 100 100 100 100 100 100 100 100 100 100
97 6 55 93 100 100 100 100 100 100 100 100 98 90 100 100 100 99 100 83 94 100 99 100 100 100 100 88 100 100 100 100 100 100 100 100 100 100 100 100 100 100 100 100
91 62 45 74 86 100 100 100 100 100 99 74 100 100 97 99 91 99 97 100 100 98 81 92 97 98 86 86 99 100 100 100 100 100 100 100 100 100 100 100 100 100 100 100
100 98 99 98 96 100 100 100 98 100 100 80 85 100 100 99 100 100 100 100 100 89 98 96 86 92 100 100 100 100 100 100 100 100 100 100 100 100 100 100 100 100 100 100

GFSCGP_prec_cloud_120.txt.gz
Cloud_Cover
0 0 0 0 0 0 0 0 0 0 0 0 0 0 0 0 0 0 0 2 25 58 61 41 4 0 5 3 0 0 5 98 100 100 100 99 5 62 100 100 100 100 92 7
0 0 0 0 1 5 5 2 2 1 0 0 0 0 0 0 0 0 0 0 0 61 100 100 100 56 5 43 5 5 6 98 100 100 100 100 88 100 100 100 100 100 48 97
0 0 0 0 2 64 9 0 3 15 0 0 68 1 0 0 0 0 4 0 0 3 99 100 100 74 60 37 66 93 5 73 100 100 100 100 100 100 100 100 100 100 100 90
0 0 0 0 1 100 100 97 5 0 2 100 87 42 0 0 0 2 5 0 0 0 82 100 100 100 100 100 19 78 99 54 47 54 100 100 100 100 100 85 22 92 100 8
0 0 2 3 6 100 50 100 11 4 2 100 100 100 0 5 2 5 4 0 4 14 100 100 100 84 100 79 5 24 97 100 100 100 100 100 100 100 100 100 5 100 16 5
0 54 80 36 98 51 33 89 88 100 85 100 99 86 0 83 4 6 5 5 69 100 100 100 78 12 7 85 90 100 100 100 100 100 100 80 100 100 100 92 95 100 5 72
26 86 93 99 95 27 70 100 100 100 100 67 95 89 0 5 13 90 100 100 100 100 100 95 78 90 96 96 100 100 100 100 100 100 98 100 100 100 100 100 100 100 38 100
6 100 62 98 99 100 97 4 1 8 46 93 100 57 0 36 100 79 62 99 100 100 75 96 59 5 8 5 10 88 100 100 100 100 99 43 100 98 100 100 100 99 98 100
99 100 26 67 76 90 14 8 100 100 99 100 29 4 7 0 10 45 58 20 86 30 100 11 13 72 96 100 100 100 100 100 100 100 100 99 100 26 98 97 39 61 100 100
84 100 100 95 100 67 90 6 100 100 100 87 49 1 18 92 87 29 17 4 2 3 55 31 33 74 78 98 100 95 92 97 100 100 98 100 66 100 100 100 100 67 87 100
84 86 100 100 100 82 98 30 100 100 100 94 85 99 100 92 100 100 100 47 5 5 45 67 98 94 92 92 98 100 58 77 100 100 100 96 92 100 100 100 100 100 78 98
100 100 100 100 100 99 100 91 82 97 99 100 100 100 100 100 100 97 100 100 99 100 100 100 100 100 97 100 100 100 74 100 100 100 100 100 100 96 100 100 100 64 100 100
100 100 100 100 99 89 100 100 98 100 100 100 100 100 100 100 100 100 100 100 100 100 100 100 99 100 97 100 98 80 17 21 100 100 98 87 91 100 100 100 100 100 100 100
22 100 100 100 100 94 100 100 100 100 100 100 100 100 100 100 100 100 100 100 100 100 100 100 100 100 100 99 100 100 100 100 69 86 100 67 83 100 100 100 100 100 92 100
100 100 100 100 100 100 100 97 93 43 99 100 100 100 100 100 100 100 100 100 100 100 100 100 100 100 100 100 100 96 100 100 64 98 100 98 71 96 100 97 100 100 100 100
90 100 100 98 100 100 100 100 100 100 84 100 100 100 100 100 100 100 100 100 100 100 100 100 100 100 100 100 100 100 100 100 99 100 100 100 97 100 100 100 100 100 100 100
23 100 100 100 100 100 99 100 100 100 100 100 100 100 100 100 100 100 100 100 100 100 100 100 100 100 100 100 100 100 100 100 100 100 100 100 100 100 100 100 100 100 100 100
6 44 100 100 100 100 100 100 100 100 100 100 100 100 100 100 100 100 100 100 100 100 98 100 100 100 100 100 100 100 100 100 100 100 100 97 100 100 100 100 100 100 100 100
28 81 70 100 100 100 100 100 100 100 100 100 100 100 100 100 100 100 100 100 100 100 100 100 98 99 100 100 100 100 100 100 100 100 100 100 100 100 100 100 100 100 100 100
31 10 53 100 100 100 100 100 100 100 100 100 100 100 100 100 100 100 100 100 100 100 100 96 89 53 100 100 100 100 100 100 100 100 100 100 100 100 100 100 100 100 100 100
55 82 39 100 100 100 100 92 99 88 100 100 100 100 100 100 97 100 100 100 100 100 100 92 34 67 100 100 100 97 100 100 100 95 75 92 99 100 100 100 100 100 100 100
64 87 100 83 85 100 100 100 96 100 98 100 100 100 100 100 100 100 100 100 100 100 100 100 100 99 91 99 100 100 94 82 91 70 74 85 82 100 100 100 100 100 100 100
93 69 92 100 96 100 99 100 100 100 100 94 75 96 100 100 100 100 100 100 100 99 100 99 100 100 100 98 100 100 99 85 86 70 86 88 99 100 100 100 100 100 100 100
74 9 68 97 99 100 100 100 100 100 100 96 100 100 100 100 100 98 80 89 100 84 76 25 76 86 76 100 100 100 99 99 75 65 86 97 100 100 100 100 100 100 100 100
80 49 72 97 100 100 100 100 100 100 94 99 100 98 95 86 74 70 55 95 100 73 5 11 93 94 88 98 100 100 99 98 74 74 82 98 100 100 100 100 100 100 100 100
75 98 61 47 72 98 100 100 81 99 100 72 100 97 82 92 64 75 56 89 92 69 63 74 82 81 88 94 99 100 99 98 100 95 100 100 100 100 100 100 100 100 100 100

GFSCGP_prec_cloud_123.txt.gz
Cloud_Cover
74 16 0 0 0 0 0 0 0 0 0 0 0 0 0 0 0 0 6 49 7 5 4 4 4 5 5 95 88 42 49 18 5 5 5 24 36 35 29 38 48 29 83 100
0 0 0 0 0 0 0 1 1 0 0 1 0 0 0 0 0 0 0 38 57 72 95 100 35 24 5 5 88 5 9 62 8 91 99 44 5 92 30 41 100 100 88 64
0 0 0 0 0 0 0 4 5 80 10 97 56 0 0 0 0 0 0 0 4 14 57 100 100 92 79 91 5 3 6 13 5 12 100 100 28 65 100 100 100 100 100 100
0 0 0 0 0 20 5 10 100 98 99 96 4 10 0 0 1 0 0 0 0 0 5 100 100 94 23 30 5 5 4 2 9 92 100 100 46 58 100 100 100 100 100 100
0 0 0 4 4 33 17 96 96 5 84 95 3 99 2 98 2 0 0 0 0 0 3 99 100 100 11 5 5 5 11 98 100 31 92 97 100 100 100 100 100 100 100 100
0 0 2 0 0 5 7 98 28 21 74 98 0 93 0 14 0 0 5 69 6 0 0 5 100 100 15 5 9 25 100 100 100 100 99 100 100 100 100 100 100 100 100 100
2 0 0 1 5 30 6 15 5 20 100 65 100 91 0 79 89 4 0 26 34 5 5 5 78 43 25 4 9 95 100 100 100 100 100 100 100 100 100 100 100 100 100 99
7 8 4 4 17 54 99 14 44 97 100 99 26 47 48 72 100 100 99 71 98 5 5 5 29 77 96 94 83 100 100 100 100 100 100 96 99 100 100 100 100 100 100 97
22 65 3 5 20 89 59 94 100 100 100 100 36 100 94 100 100 100 100 78 31 18 37 23 36 100 100 100 99 100 100 100 100 100 100 95 95 100 62 100 100 100 100 100
0 78 16 81 89 96 79 62 77 100 100 100 85 100 90 100 100 100 100 100 88 100 100 100 96 94 100 89 100 100 99 99 100 100 100 100 100 100 100 100 96 100 100 100
6 46 97 74 100 79 54 77 87 100 100 100 100 87 100 100 100 100 100 100 98 98 100 100 87 100 100 90 100 100 100 100 100 100 100 88 95 100 100 100 100 100 100 100
2 81 100 100 100 88 96 99 100 100 100 100 100 100 100 100 100 100 100 100 99 84 99 100 95 96 100 100 100 100 100 100 100 100 100 92 89 25 5 44 64 100 99 96
5 65 100 100 69 47 9 98 100 100 100 100 100 100 100 100 100 100 100 100 100 100 100 100 100 100 100 99 100 98 100 81 10 5 5 28 5 11 65 5 28 81 99 100
5 83 100 100 100 100 100 44 100 100 100 100 100 100 100 100 100 100 100 100 100 100 100 100 98 96 88 80 96 100 98 90 88 96 100 92 12 64 83 100 88 26 100 100
46 26 99 100 100 100 100 100 100 100 100 100 100 100 100 100 100 100 100 100 100 100 100 100 100 100 100 100 100 100 100 98 100 100 84 75 95 100 100 100 100 56 100 100
5 5 40 100 100 100 100 100 100 99 100 100 100 100 100 100 100 100 100 100 100 100 100 100 100 100 100 100 100 100 100 100 100 100 100 100 100 100 100 100 100 100 100 100
5 10 84 100 100 100 100 100 100 100 100 100 100 100 100 100 100 100 100 100 100 100 100 100 100 100 100 100 100 100 100 100 100 100 99 100 100 100 100 100 96 100 100 100
5 5 54 100 100 100 100 100 100 100 100 100 100 100 100 100 100 100 100 100 100 100 100 100 100 100 100 100 100 100 100 100 100 100 100 100 100 100 100 100 100 100 100 100
5 65 70 100 100 100 100 99 100 100 100 100 100 100 100 100 100 100 100 100 100 100 100 100 98 100 100 100 100 100 100 100 100 100 100 100 100 100 100 100 100 100 100 100
43 5 92 100 100 100 100 72 100 100 100 100 100 100 100 100 100 100 100 100 100 100 100 90 74 99 100 100 100 100 100 100 100 100 100 100 100 100 100 100 100 100 100 100
25 18 79 100 100 99 100 100 100 100 100 100 100 100 100 100 100 98 100 100 100 100 100 100 100 88 100 100 100 100 100 100 100 94 71 100 100 100 100 100 100 100 100 100
91 96 100 100 100 100 100 100 100 100 100 100 100 98 100 100 100 97 100 99 100 100 100 96 81 100 100 100 100 100 100 98 92 98 99 100 99 100 100 100 100 100 100 100
70 91 90 99 100 100 100 100 100 100 100 100 100 100 100 100 100 100 98 70 84 100 100 100 100 81 100 100 100 100 100 100 51 28 41 80 88 100 100 77 100 100 100 100
34 38 78 84 81 100 100 100 100 100 98 94 99 100 91 86 98 100 100 100 99 94 97 100 100 100 100 100 100 100 100 100 78 25 42 57 86 81 88 90 100 100 100 100
84 50 72 100 87 87 98 100 100 100 90 91 77 72 93 90 100 96 100 100 97 48 37 66 94 100 100 99 100 100 100 100 100 56 27 75 92 91 94 100 100 100 100 100
88 97 66 90 98 98 100 100 94 79 100 100 100 69 71 67 95 99 100 100 99 84 70 89 100 100 100 96 100 100 100 100 100 85 84 82 98 100 100 100 100 100 100 100

GFSCGP_prec_cloud_126.txt.gz
Cloud_Cover
56 94 11 5 2 4 2 2 4 5 0 0 0 0 0 0 0 0 0 0 5 5 91 100 100 100 100 78 5 98 100 15 15 5 32 74 56 81 75 38 9 16 72 58
5 46 5 77 87 4 0 0 0 0 0 2 0 2 0 0 0 0 0 0 0 3 0 2 5 77 100 100 34 6 83 100 88 2 5 5 5 57 61 92 67 100 76 44
5 5 0 0 0 0 4 3 2 38 2 0 4 32 0 0 0 0 0 0 0 0 0 0 3 14 84 100 99 32 54 73 100 65 35 94 52 61 100 100 97 63 100 74
15 5 2 0 0 0 0 11 85 21 72 99 19 76 0 0 0 0 0 0 0 0 0 0 3 100 100 99 100 92 44 85 100 76 8 79 23 72 88 80 81 99 100 100
81 40 5 1 2 2 0 6 99 65 100 83 0 77 0 0 0 0 0 0 0 0 0 0 0 100 100 100 98 100 100 100 100 100 98 100 29 48 44 42 99 100 100 100
99 95 6 3 0 4 5 8 5 42 64 92 79 100 38 64 100 99 80 4 0 0 0 0 0 90 100 9 33 83 100 100 100 86 94 100 100 47 52 73 78 100 100 100
100 52 1 0 4 5 6 36 36 5 38 44 100 91 58 93 100 86 100 100 100 96 53 21 3 44 8 77 70 89 100 100 92 81 100 100 86 98 100 100 100 100 100 100
84 7 0 0 39 99 6 93 100 84 22 10 99 100 100 99 100 100 100 100 100 100 90 58 33 85 84 100 100 81 100 100 100 100 99 59 96 100 100 100 100 100 100 100
5 3 2 5 7 76 67 97 44 95 100 100 100 100 100 100 100 100 100 100 100 100 100 99 88 100 100 100 87 90 93 53 100 100 100 100 93 100 100 100 100 100 100 100
3 18 0 1 42 98 76 91 89 79 98 100 100 100 100 100 100 100 100 100 100 100 100 100 100 100 100 87 29 39 79 100 100 100 100 100 100 100 100 100 100 100 100 100
0 27 6 3 36 72 65 92 93 98 100 100 100 100 100 100 100 100 100 100 100 100 100 100 100 100 100 87 87 94 75 88 100 77 51 87 100 100 100 100 100 100 100 100
5 30 92 5 20 32 86 98 88 100 100 100 100 100 100 100 100 100 100 100 100 100 100 100 100 100 100 100 100 100 100 100 100 100 100 100 100 100 100 100 100 52 95 100
17 10 70 95 36 98 50 91 100 100 100 100 100 100 100 100 100 100 100 100 100 100 100 100 100 100 100 100 100 100 100 100 100 100 100 100 100 100 100 100 98 82 19 66
9 5 6 41 88 100 94 100 100 100 100 100 100 100 100 100 100 100 100 100 100 100 100 100 100 100 100 100 100 100 100 100 100 100 99 99 100 100 97 100 98 55 44 36
98 9 5 5 97 100 100 100 100 100 100 100 100 100 100 100 100 100 100 100 100 100 100 100 100 100 100 100 100 100 100 100 100 100 97 98 100 100 100 100 100 96 46 54
5 5 5 5 88 100 100 100 100 100 100 100 100 100 100 100 100 100 100 100 100 100 100 100 100 100 100 100 100 100 100 100 100 96 97 100 95 65 88 100 100 100 87 56
5 5 59 62 100 100 100 100 100 100 100 100 100 100 100 100 100 100 100 100 100 100 100 100 100 100 100 100 100 100 100 100 100 100 100 100 100 100 100 100 100 100 100 72
5 5 99 55 100 100 100 100 100 100 100 100 100 100 100 100 100 100 100 100 100 100 100 100 100 100 100 100 100 100 100 100 100 100 100 100 100 100 100 100 100 100 100 100
5 53 92 90 100 100 100 100 100 100 100 100 100 100 100 100 100 100 100 100 100 100 100 100 100 100 100 100 100 100 100 100 100 100 100 100 100 100 100 100 100 100 100 100
38 33 96 39 100 100 100 100 100 100 100 100 100 100 90 100 100 100 100 100 100 100 100 100 100 100 100 100 100 100 100 100 100 100 100 100 100 100 100 100 100 100 100 100
65 53 88 94 99 100 99 100 97 93 100 100 100 100 99 100 100 100 100 100 100 100 100 100 100 100 100 100 100 100 100 100 84 100 84 100 100 100 100 100 100 100 100 100
86 95 100 98 14 100 100 97 98 100 100 100 100 100 100 100 100 100 100 100 100 100 100 100 100 100 100 100 100 100 100 100 100 87 31 91 78 100 100 100 96 100 100 100
86 90 98 71 97 97 100 100 100 100 100 100 100 100 100 100 100 100 95 100 100 100 100 98 89 94 100 100 100 100 100 100 98 5 16 31 84 97 100 100 100 100 100 100
92 92 82 65 99 100 100 100 99 100 100 99 95 86 88 89 100 85 96 91 62 100 100 100 100 100 100 99 100 100 100 100 85 99 82 76 90 84 90 99 98 100 100 100
70 90 77 72 99 100 98 100 100 92 97 84 100 81 80 81 98 80 73 91 83 72 74 82 100 100 100 100 98 97 100 100 99 100 98 81 98 94 90 96 100 100 100 100
33 89 68 97 98 99 100 100 100 99 92 93 85 99 97 86 97 15 93 99 100 96 79 81 76 89 95 92 100 80 100 100 100 100 100 94 90 100 100 88 82 86 100 100